     2              OBSERVATION DATA    GPS                 RINEX VERSION / TYPE
FIC2RX 9.60 97/08/04                                        PGM / RUN BY / DATE
                                                            COMMENT
Operator input collection int (sec) 30.0000                 COMMENT
Operator input collection int (sec) 30.0000                 COMMENT
Operator input collection int (sec) 30.0000                 COMMENT
Operator input collection int (sec) 30.0000                 COMMENT
Original Marker Name: OCOT55477                             COMMENT
Campaign Name: STRC 1988 University                         COMMENT
4-Character Station Name: OCOT                              COMMENT
6-Character Antenna Code: TI4100                            COMMENT
Vertical Measurement Point: PAE                             COMMENT
Vertical Offset to Rinex Ref. Point: 0.0000                 COMMENT
Radial Measurement Point: PAE                               COMMENT
Radial Offset to Rinex Ref. Point: 0.0842                   COMMENT
Antenna Height from Field Measurement: 1.3715 m             COMMENT
Original XYZ: 0.0000 0.0000 0.0000                          COMMENT
New XYZ position is based on association with SCEC monument COMMENT
E1C8V7N3+0011. Position of that monument is believed to be  COMMENT
valid to within 1 m horizontally; vertical accuracy         COMMENT
should be no worse than 3-times this value.                 COMMENT
                                                            COMMENT
Revised Rinex header created by UCSD GPS archive for        COMMENT
GSAC on 10-Apr-1999 (1999:100) 05:36:15 GMT                 COMMENT
For assistance contact dagnew@ucsd.edu or hjohnson@ucsd.edu COMMENT
                                                            COMMENT
OCOTILLO NCMN 1983                                          MARKER NAME
RR MASS INST. OF TECHNOLOGY                                 OBSERVER / AGENCY
UNO1 TI 4100 GES 1.50                                       REC # / TYPE / VERS
UN01 TI 4100                                                ANT # / TYPE
 -2335602.0000 -4832244.0000  3434393.0000                  APPROX POSITION XYZ
        1.3689        0.0000        0.0000                  ANTENNA: DELTA H/E/N
     1     1     0                                          WAVELENGTH FACT L1/2
     4    L1    L2    P1    P2                              # / TYPES OF OBSERV
    30                                                      INTERVAL
  1988     2    25     5     0   29.000000                  TIME OF FIRST OBS
  1988     2    25    12    11   59.000000                  TIME OF LAST OBS
     7                                                      # OF SATELLITES
           6   384   384   384   384                        PRN / # OF OBS
           8   288   288   288   288                        PRN / # OF OBS
          11   560   560   560   560                        PRN / # OF OBS
           9   632   632   632   632                        PRN / # OF OBS
          13   576   576   576   576                        PRN / # OF OBS
           3   480   480   480   480                        PRN / # OF OBS
                                                            END OF HEADER
 88  2 25  5  0 29.0800000  0  2  6  8
         -.085 7         -.122 7  21752342.859 0  21752342.955 0
          .093 6          .389 6  20259634.424 0  20259634.743 0
 88  2 25  5  0 59.0800000  0  2  6  8
    -57869.220 7    -45092.974 7  21741330.435 0  21741331.876 0
    -35533.510 7    -27688.139 6  20252871.781 0  20252874.108 0
 88  2 25  5  1 29.0800000  0  2  6  8
   -115609.757 7    -90085.593 6  21730343.067 0  21730341.550 0
    -70387.464 6    -54847.038 6  20246239.782 0  20246240.641 0
 88  2 25  5  1 59.0800000  0  2  6  8
   -173219.944 7   -134976.647 7  21719380.492 0  21719381.052 0
   -104561.040 6    -81475.790 6  20239736.359 0  20239737.486 0
 88  2 25  5  2 29.0800000  0  2  6  8
   -230697.809 7   -179764.587 6  21708441.828 0  21708441.311 0
   -138052.872 7   -107573.312 6  20233361.353 0  20233365.357 0
 88  2 25  5  2 59.0800000  0  2  6  8
   -288041.606 7   -224448.063 6  21697529.567 0  21697531.169 0
   -170861.863 7   -133138.750 6  20227120.216 0  20227120.520 0
 88  2 25  5  3 29.0800000  0  2  6  8
   -345249.480 7   -269025.639 7  21686643.802 0  21686644.090 0
   -202987.344 7   -158171.581 6  20221006.003 0  20221007.606 0
 88  2 25  5  3 59.0800000  0  2  6  8
   -402319.654 8   -313495.893 7  21675783.824 0  21675784.214 0
   -234428.003 7   -182670.784 6  20215023.073 0  20215025.104 0
 88  2 25  5  4 29.0800000  0  2  6  8
   -459250.029 7   -357857.219 6  21664949.597 0  21664950.431 0
   -265182.985 7   -206635.720 6  20209170.575 0  20209171.439 0
 88  2 25  5  4 59.0800000  0  2  6  8
   -516038.822 7   -402108.237 7  21654143.111 0  21654144.685 0
   -295251.429 6   -230065.643 6  20203448.900 0  20203450.733 0
 88  2 25  5  5 29.0800000  0  2  6  8
   -572683.968 7   -446247.293 7  21643364.434 0  21643364.851 0
   -324632.701 7   -252960.126 6  20197858.609 0  20197858.107 0
 88  2 25  5  5 59.0800000  0  2  6  8
   -629183.656 8   -490273.058 7  21632612.828 0  21632612.997 0
   -353326.128 7   -275318.637 6  20192397.160 0  20192398.131 0
 88  2 25  5  6 29.0800000  0  2  6  8
   -685536.064 7   -534183.996 7  21621889.570 0  21621889.869 0
   -381330.844 7   -297140.494 6  20187070.003 0  20187068.766 0
 88  2 25  5  6 59.0800000  0  2  6  8
   -741739.071 7   -577978.537 7  21611194.837 0  21611194.541 0
   -408645.890 7   -318424.944 6  20181870.933 0  20181871.157 0
 88  2 25  5  7 29.0800000  0  2  6  8
   -797790.711 7   -621655.149 7  21600527.523 0  21600528.048 0
   -435270.724 6   -339171.553 7  20176805.465 0  20176805.474 0
 88  2 25  5  7 59.0800000  0  2  6  8
   -853689.069 7   -665212.310 7  21589891.917 0  21589890.664 0
   -461204.387 7   -359379.601 6  20171870.196 0  20171870.119 0
 88  2 25  5  8 29.0800000  0  4  6  8 11  9
   -909432.727 8   -708648.934 7  21579282.848 0  21579283.600 0
   -486447.113 7   -379049.239 6  20167066.696 0  20167066.534 0
         -.213 8          .000 1  22383086.850 0          .000 0
         -.374 8          .000 1          .000 0          .000 0
 88  2 25  5  8 59.0800000  0  4  6  8 11  9
   -965019.331 7   -751963.159 7  21568704.435 0  21568704.776 0
   -510998.140 7   -398179.905 7  20162394.071 0  20162396.138 0
    -93709.289 7     83356.116 7  22365280.477 0  22365283.802 0
    -89397.945 7    144366.769 6  23914417.540 0  23914419.263 0
 88  2 25  5  9 29.0800000  0  4  6  8 11  9
  -1020446.570 7   -795153.211 7  21558157.826 0  21558158.892 0
   -534856.195 7   -416770.598 7  20157853.003 0  20157854.869 0
   -187074.389 7     10604.125 7  22347513.465 0  22347516.309 0
   -178845.766 7     74667.191 6  23897394.984 0  23897397.122 0
 88  2 25  5  9 59.0800000  0  4  6  8 11  9
  -1075712.612 7   -838217.646 7  21547640.570 0  21547641.355 0
   -558021.316 7   -434821.338 6  20153446.757 0  20153447.508 0
   -280093.061 7    -61877.943 6  22329813.161 0  22329814.899 0
   -268343.623 7      4928.635 7  23880364.759 0  23880366.182 0
 88  2 25  5 10 29.0800000  0  4  6  8 11  9
  -1130815.496 7   -881154.960 6  21537155.757 0  21537155.871 0
   -580492.674 7   -452331.470 6  20149170.109 0  20149171.365 0
   -372762.438 7   -134087.829 6  22312178.998 0  22312181.466 0
   -357890.500 7    -64848.104 7  23863324.452 0  23863326.363 0
 88  2 25  5 10 59.0800000  0  4  6  8 11  9
  -1185753.137 8   -923963.516 7  21526701.681 0  21526701.168 0
   -602269.964 7   -469300.801 6  20145025.553 0  20145027.423 0
   -465079.900 7   -206023.496 6  22294611.715 0  22294613.620 0
   -447484.936 6   -134661.913 6  23846277.011 0  23846276.507 0
 88  2 25  5 11 29.0800000  0  4  6  8 11  9
  -1240523.419 7   -966641.653 7  21516277.998 0  21516280.481 0
   -623352.823 7   -485728.978 6  20141014.783 0  20141014.686 0
   -557043.340 7   -277683.317 6  22277111.737 0  22277113.549 0
   -537126.001 6   -204512.080 7  23829217.325 0  23829217.619 0
 88  2 25  5 11 59.0800000  0  4  6  8 11  9
  -1295124.595 7  -1009188.014 6  21505887.492 0  21505888.082 0
   -643740.953 7   -501615.820 6  20137134.975 0  20137135.527 0
   -648650.234 7   -349065.292 7  22259678.907 0  22259681.389 0
   -626812.563 6   -274397.695 6  23812150.853 0  23812150.759 0
 88  2 25  5 12 29.0800000  0  4  6  8 11  9
  -1349554.483 8  -1051600.900 7  21495529.918 0  21495530.851 0
   -663433.727 7   -516960.834 6  20133387.275 0  20133387.765 0
   -739898.047 7   -420167.480 7  22242315.037 0  22242317.451 0
   -716543.589 5   -344317.955 6  23795073.427 0  23795075.531 0
 88  2 25  5 12 59.0800000  0  4  6  8 11  9
  -1403810.947 7  -1093878.668 7  21485205.358 0  21485205.791 0
   -682430.624 8   -531763.612 6  20129771.270 0  20129772.528 0
   -830784.496 7   -490988.068 7  22225019.518 0  22225022.661 0
   -806317.829 6   -414271.860 6  23777990.936 0  23777992.665 0
 88  2 25  5 13 29.0800000  0  4  6  8 11  9
  -1457892.042 7  -1136019.780 7  21474914.627 0  21474915.097 0
   -700731.908 6   -546024.342 7  20126289.039 0  20126290.671 0
   -921306.819 7   -561524.921 6  22207794.166 0  22207795.933 0
   -896133.916 6   -484258.395 6  23760899.280 0  23760901.026 0
 88  2 25  5 13 59.0800000  0  4  6  8 11  9
  -1511795.695 7  -1178022.630 7  21464656.482 0  21464657.324 0
   -718337.030 7   -559742.608 6  20122939.861 0  20122940.128 0
  -1011462.533 7   -631776.115 6  22190638.726 0  22190639.752 0
   -985990.695 6   -554276.669 6  23743800.711 0  23743801.836 0
 88  2 25  5 14 29.0800000  0  4  6  8 11  9
  -1565519.790 8  -1219885.547 7  21454433.233 0  21454434.269 0
   -735246.057 7   -572918.458 6  20119721.263 0  20119722.283 0
  -1101249.207 7   -701739.743 6  22173551.464 0  22173555.618 0
  -1075887.157 6   -624325.845 6  23726695.055 0  23726695.466 0
 88  2 25  5 14 59.0800000  0  4  6  8 11  9
  -1619062.250 7  -1261606.939 6  21444245.087 0  21444244.261 0
   -751458.835 7   -585551.787 6  20116635.280 0  20116636.735 0
  -1190664.444 7   -771413.946 7  22156537.911 0  22156538.924 0
  -1165821.983 6   -694404.926 7  23709580.664 0  23709581.047 0
 88  2 25  5 15 29.0800000  0  4  6  8 11  9
  -1672420.954 7  -1303185.163 7  21434091.476 0  21434091.756 0
   -766975.014 7   -597642.321 7  20113682.469 0  20113684.088 0
  -1279705.863 7   -840796.844 7  22139593.049 0  22139594.444 0
  -1255794.125 7   -764513.054 7  23692459.440 0  23692459.363 0
 88  2 25  5 15 59.0800000  0  4  6  8 11  9
  -1725593.873 7  -1344618.606 7  21423972.302 0  21423973.603 0
   -781794.461 7   -609189.940 6  20110861.729 0  20110863.327 0
  -1368371.033 7   -909886.587 7  22122721.105 0  22122722.277 0
  -1345802.245 6   -834649.215 7  23675332.488 0  23675332.097 0
 88  2 25  5 16 29.0800000  0  4  6  8 11  9
  -1778578.860 8  -1385905.598 7  21413889.578 0  21413891.064 0
   -795917.124 7   -620194.605 6  20108176.216 0  20108176.724 0
  -1456657.761 8   -978681.422 7  22105920.567 0  22105922.650 0
  -1435844.782 6   -904812.201 7  23658197.770 0  23658198.148 0
 88  2 25  5 16 59.0800000  0  4  6  8 11  9
  -1831373.744 7  -1427044.455 7  21403842.836 0  21403842.826 0
   -809342.651 7   -630656.052 6  20105620.342 0  20105621.820 0
  -1544563.241 7  -1047179.192 7  22089192.349 0  22089194.639 0
  -1525920.719 7   -975001.228 7  23641055.370 0  23641056.095 0
 88  2 25  5 17 29.0800000  0  4  6  8 11  9
  -1883976.491 7  -1468033.616 6  21393832.269 0  21393833.125 0
   -822071.197 7   -640574.389 7  20103198.826 0  20103199.863 0
  -1632085.118 7  -1115378.038 7  22072537.786 0  22072538.898 0
  -1616028.706 7  -1045215.247 7  23623909.145 0  23623910.503 0
 88  2 25  5 17 59.0800000  0  4  6  8 11  9
  -1936384.914 7  -1508871.360 7  21383860.661 0  21383860.144 0
   -834102.658 7   -649949.554 6  20100908.825 0  20100909.754 0
  -1719221.113 7  -1183276.214 7  22055955.608 0  22055957.497 0
  -1706167.421 7  -1115453.201 7  23606756.408 0  23606756.128 0
 88  2 25  5 18 29.0800000  0  4  6  8 11  9
  -1988596.961 7  -1549556.066 6  21373925.007 0  21373925.358 0
   -845437.341 7   -658781.750 6  20098752.897 0  20098752.936 0
  -1805969.115 7  -1250872.049 6  22039448.888 0  22039451.718 0
  -1796335.815 8  -1185714.312 6  23589599.024 0  23589599.341 0
 88  2 25  5 18 59.0800000  0  4  6  8 11  9
  -2040610.434 7  -1590086.068 6  21364026.128 0  21364027.542 0
   -856075.286 6   -667071.065 6  20096727.476 0  20096728.315 0
  -1892326.806 8  -1318163.735 6  22023014.981 0  22023016.920 0
  -1886532.353 7  -1255997.337 6  23572434.729 0  23572435.653 0
 88  2 25  5 19 29.0800000  0  4  6  8 11  9
  -2092423.141 8  -1630459.596 7  21354166.646 0  21354168.008 0
   -866016.586 7   -674817.527 6  20094836.331 0  20094837.993 0
  -1978292.057 8  -1385149.622 7  22006656.217 0  22006657.570 0
  -1976755.719 7  -1326301.272 7  23555265.432 0  23555265.837 0
 88  2 25  5 19 59.0800000  0  4  6  8 11  9
  -2144032.945 8  -1670675.033 7  21344345.476 0  21344345.837 0
   -875261.796 7   -682021.584 6  20093077.947 0  20093075.380 0
  -2063862.096 7  -1451827.575 6  21990371.870 0  21990374.268 0
  -2067004.411 7  -1396624.919 7  23538091.593 0  23538092.214 0
 88  2 25  5 20 29.0800000  0  4  6  8 11  9
  -2195437.839 8  -1710730.791 7  21334563.941 0  21334564.716 0
   -883810.754 7   -688683.089 6  20091450.035 0  20091451.090 0
  -2149034.619 7  -1518195.767 7  21974165.074 0  21974167.582 0
  -2157277.355 7  -1466967.463 7  23520912.784 0  23520913.926 0
 88  2 25  5 20 59.0800000  0  4  6  8 11  9
  -2246635.373 7  -1750624.977 7  21324821.242 0  21324821.998 0
   -891663.409 7   -694802.033 6  20089955.135 0  20089957.080 0
  -2233807.083 7  -1584252.206 7  21958033.006 0  21958034.719 0
  -2247572.917 7  -1537327.637 7  23503730.551 0  23503731.113 0
 88  2 25  5 21 29.0800000  0  4  6  8 11  9
  -2297623.612 7  -1790356.065 7  21315119.572 0  21315119.522 0
   -898820.369 7   -700378.890 6  20088594.518 0  20088593.897 0
  -2318177.618 7  -1649995.470 7  21941978.399 0  21941979.639 0
  -2337889.882 7  -1607704.511 7  23486543.533 0  23486543.979 0
 88  2 25  5 21 59.0800000  0  4  6  8 11  9
  -2348400.237 7  -1829922.277 8  21305456.460 0  21305456.659 0
   -905281.777 7   -705413.745 6  20087364.006 0  20087364.724 0
  -2402143.733 8  -1715423.592 6  21926000.667 0  21926002.097 0
  -2428226.733 6  -1678096.851 8  23469352.887 0  23469353.741 0
 88  2 25  5 22 29.0800000  0  4  6  8 11  9
  -2398963.027 7  -1869321.846 7  21295834.693 0  21295834.819 0
   -911048.033 7   -709906.921 6  20086266.329 0  20086266.565 0
  -2485703.164 7  -1780534.821 7  21910100.174 0  21910100.387 0
  -2518581.991 6  -1748503.506 8  23452157.625 0  23452159.480 0
 88  2 25  5 22 59.0800000  0  4  6  8 11  9
  -2449309.774 7  -1908553.074 7  21286253.983 0  21286254.524 0
   -916119.869 7   -713858.998 6  20085302.264 0  20085303.166 0
  -2568853.891 7  -1845327.598 7  21894276.895 0  21894277.488 0
  -2608954.342 6  -1818923.482 7  23434960.688 0  23434961.365 0
 88  2 25  5 23 29.0800000  0  4  6  8 11  9
  -2499438.288 7  -1947614.258 7  21276715.314 0  21276715.035 0
   -920497.362 7   -717270.023 6  20084468.996 0  20084469.201 0
  -2651593.282 7  -1909799.830 7  21878531.974 0  21878534.237 0
  -2699342.356 5  -1889355.661 7  23417759.696 0  23417761.442 0
 88  2 25  5 23 59.0800000  0  4  6  8 11  9
  -2549346.402 8  -1986503.691 7  21267217.549 0  21267217.911 0
   -924180.621 6   -720140.082 6  20083767.572 0  20083767.981 0
  -2733919.524 7  -1973950.151 7  21862865.521 0  21862867.845 0
  -2789744.526 6  -1959798.920 6  23400557.011 0  23400559.937 0
 88  2 25  5 24 29.0800000  0  4  6  8 11  9
  -2599031.852 7  -2025219.634 7  21257762.502 0  21257763.170 0
   -927170.687 7   -722470.015 7  20083198.379 0  20083199.064 0
  -2815830.481 7  -2037776.852 7  21847278.487 0  21847280.638 0
  -2880159.270 6  -2030251.945 7  23383352.323 0  23383353.043 0
 88  2 25  5 24 59.0800000  0  4  6  8 11  9
  -2648492.513 7  -2063760.403 7  21248350.804 0  21248350.859 0
   -929467.653 7   -724259.842 6  20082762.237 0  20082762.243 0
  -2897323.856 7  -2101278.159 6  21831770.669 0  21831772.448 0
  -2970585.500 6  -2100713.941 6  23366145.818 0  23366146.939 0
 88  2 25  5 25 29.0800000  0  4  6  8 11  9
  -2697726.057 7  -2102124.215 6  21238981.765 0  21238981.411 0
   -931072.165 7   -725510.095 6  20082456.694 0  20082457.798 0
  -2978397.423 7  -2164452.362 6  21816342.690 0  21816344.527 0
  -3061021.133 7  -2171183.275 6  23348936.016 0  23348937.093 0
 88  2 25  5 25 59.0800000  0  4  6  8 11  9
  -2746730.270 7  -2140309.316 7  21229656.218 0  21229656.974 0
   -931985.002 7   -726221.412 6  20082282.884 0  20082283.819 0
  -3059049.208 7  -2227297.896 6  21800995.137 0  21800997.807 0
  -3151465.038 7  -2241659.027 6  23331725.610 0  23331726.962 0
 88  2 25  5 26 29.0800000  0  4  6  8 11  9
  -2795502.824 7  -2178313.894 6  21220375.208 0  21220376.462 0
   -932206.814 7   -726394.252 6  20082240.118 0  20082241.801 0
  -3139276.770 7  -2289812.870 6  21785727.141 0  21785729.546 0
  -3241915.522 8  -2312139.906 6  23314513.340 0  23314514.953 0
 88  2 25  5 26 59.0800000  0  4  6  8 11  9
  -2844041.688 7  -2216136.379 7  21211139.207 0  21211138.667 0
   -931738.000 8   -726028.929 6  20082330.398 0  20082330.322 0
  -3219078.560 7  -2351996.082 6  21770542.592 0  21770545.244 0
  -3332371.409 8  -2382625.009 6  23297300.402 0  23297298.890 0
 88  2 25  5 27 29.0800000  0  4  6  8 11  9
  -2892344.443 7  -2253774.907 7  21201947.499 0  21201948.776 0
   -930579.279 7   -725126.023 6  20082549.868 0  20082551.007 0
  -3298452.441 7  -2413845.824 6  21755438.029 0  21755440.137 0
  -3422830.901 8  -2453112.940 7  23280085.471 0  23280086.199 0
 88  2 25  5 27 59.0800000  0  4  6  8 11  9
  -2940408.919 8  -2291227.732 6  21192800.243 0  21192802.313 0
   -928731.378 7   -723686.086 6  20082902.685 0  20082903.001 0
  -3377395.820 7  -2475360.132 6  21740416.236 0  21740417.651 0
  -3513292.414 7  -2523602.429 6  23262871.832 0  23262871.836 0
 88  2 25  5 28 29.0800000  0  4  6  8 11  9
  -2988232.832 7  -2328493.129 7  21183699.559 0  21183701.403 0
   -926194.733 7   -721709.489 6  20083384.169 0  20083385.007 0
  -3455906.837 7  -2536537.533 7  21725476.349 0  21725477.217 0
  -3603754.456 7  -2594092.306 7  23245657.017 0  23245658.160 0
 88  2 25  5 28 59.0800000  0  4  6  8 11  9
  -3035813.903 7  -2365569.274 6  21174645.885 0  21174646.623 0
   -922970.815 7   -719197.323 6  20083997.479 0  20083999.087 0
  -3533983.294 7  -2597376.322 6  21710618.196 0  21710620.420 0
  -3694215.485 7  -2664581.409 6  23228443.120 0  23228443.429 0
 88  2 25  5 29 29.0800000  0  4  6  8 11  9
  -3083149.963 7  -2402454.510 6  21165637.791 0  21165638.768 0
   -919060.026 7   -716149.952 6  20084742.699 0  20084743.403 0
  -3611623.330 7  -2657875.049 7  21695843.865 0  21695845.360 0
  -3784673.708 7  -2735068.296 7  23211229.565 0  23211229.361 0
 88  2 25  5 29 59.0800000  0  4  6  8 11  9
  -3130238.568 7  -2439146.932 7  21156678.578 0  21156677.912 0
   -914463.349 7   -712568.123 6  20085616.993 0  20085617.424 0
  -3688824.786 7  -2718032.028 6  21681151.075 0  21681155.300 0
  -3875127.685 7  -2805551.895 7  23194016.594 0  23194016.367 0
 88  2 25  5 30 29.0800000  0  4  6  8 11  9
  -3177077.497 8  -2475644.796 7  21147763.876 0  21147765.504 0
   -909181.713 7   -708452.570 7  20086622.406 0  20086623.463 0
  -3765585.692 7  -2777845.694 6  21666545.591 0  21666548.633 0
  -3965575.780 7  -2876030.931 6  23176804.997 0  23176805.839 0
 88  2 25  5 30 59.0800000  0  4  6  8 11  9
  -3223664.526 7  -2511946.374 6  21138899.293 0  21138899.782 0
   -903215.895 7   -703803.857 7  20087757.474 0  20087757.493 0
  -3841904.040 7  -2837314.530 6  21652021.214 0  21652024.922 0
  -4056016.190 7  -2946503.960 7  23159594.060 0  23159594.996 0
 88  2 25  5 31 29.0800000  0  4  6  8 11  9
  -3269997.290 7  -2548049.835 7  21130082.589 0  21130083.270 0
   -896566.854 7   -698622.801 6  20089023.601 0  20089024.130 0
  -3917778.234 7  -2896437.252 6  21637584.402 0  21637585.795 0
  -4146447.715 7  -3016970.026 7  23142386.432 0  23142386.896 0
 88  2 25  5 31 59.0800000  0  4  6  8 11  9
  -3316073.501 7  -2583953.372 7  21121314.422 0  21121314.831 0
   -889235.723 7   -692910.225 7  20090418.255 0  20090418.114 0
  -3993206.323 7  -2955212.373 6  21623232.164 0  21623232.673 0
  -4236868.301 7  -3087427.612 7  23125180.299 0  23125180.363 0
 88  2 25  5 32 29.0800000  0  4  6  8 11  9
  -3361890.938 7  -2619655.259 7  21112596.528 0  21112595.944 0
   -881223.483 7   -686666.910 7  20091942.364 0  20091942.194 0
  -4068185.940 7  -3013638.045 6  21608962.862 0  21608965.085 0
  -4327276.517 6  -3157875.536 7  23107975.836 0  23107976.768 0
 88  2 25  5 32 59.0800000  0  4  6  8 11  9
  -3407447.234 7  -2655153.669 7  21103926.875 0  21103928.118 0
   -872530.669 7   -679893.279 6  20093597.393 0  20093597.027 0
  -4142715.358 7  -3071712.901 6  21594780.277 0  21594782.910 0
  -4417670.358 6  -3228312.279 7  23090773.297 0  23090775.640 0
 88  2 25  5 33 29.0800000  0  4  6  8 11  9
  -3452740.048 8  -2690446.776 7  21095307.792 0  21095307.800 0
   -863158.378 7   -672590.201 7  20095381.013 0  20095380.451 0
  -4216792.624 8  -3129435.426 6  21580684.230 0  21580684.987 0
  -4508048.166 7  -3298736.513 7  23073577.264 0  23073575.933 0
 88  2 25  5 33 59.0800000  0  4  6  8 11  9
  -3497767.247 7  -2725532.902 7  21086739.609 0  21086740.065 0
   -853107.761 7   -664758.527 6  20097293.052 0  20097294.450 0
  -4290416.000 7  -3186804.302 7  21566673.037 0  21566674.979 0
  -4598408.667 7  -3369147.267 6  23056380.845 0  23056380.193 0
 88  2 25  5 34 29.0800000  0  4  6  8 11  9
  -3542526.406 7  -2760410.159 6  21078221.635 0  21078222.224 0
   -842380.245 7   -656399.427 6  20099334.469 0  20099334.523 0
  -4363583.621 7  -3243818.007 6  21552750.214 0  21552751.766 0
  -4688749.529 7  -3439542.753 7  23039189.295 0  23039189.244 0
 88  2 25  5 34 59.0800000  0  4  6  8 11  9
  -3587015.054 7  -2795076.638 7  21069756.087 0  21069756.434 0
   -830977.238 7   -647513.976 6  20101504.796 0  20101505.554 0
  -4436293.269 7  -3300474.856 6  21538914.285 0  21538916.639 0
  -4779069.197 7  -3509921.684 7  23022001.806 0  23022003.765 0
 88  2 25  5 35 29.0800000  0  4  6  8 11  9
  -3631230.985 7  -2829530.610 6  21061341.864 0  21061342.753 0
   -818899.616 7   -638102.833 6  20103803.011 0  20103802.377 0
  -4508543.082 7  -3356773.412 7  21525165.434 0  21525167.904 0
  -4869366.045 7  -3580282.829 7  23004818.625 0  23004819.410 0
 88  2 25  5 35 59.0800000  0  4  6  8 11  9
  -3675171.955 7  -2863770.323 7  21052980.592 0  21052979.866 0
   -806148.440 7   -628166.853 6  20106228.315 0  20106229.785 0
  -4580331.673 7  -3412712.561 6  21511504.962 0  21511506.922 0
  -4959638.154 7  -3650624.723 7  22987640.875 0  22987640.849 0
 88  2 25  5 36 29.0800000  0  4  6  8 11  9
  -3718835.666 7  -2897793.987 6  21044671.541 0  21044672.202 0
   -792724.745 7   -617706.816 6  20108784.246 0  20108783.278 0
  -4651657.370 7  -3468291.009 6  21497932.313 0  21497933.754 0
  -5049883.959 7  -3720946.135 6  22970467.870 0  22970468.445 0
 88  2 25  5 36 59.0800000  0  4  6  8 11  9
  -3762219.673 8  -2931599.705 7  21036415.796 0  21036416.410 0
   -778630.235 7   -606724.072 6  20111465.567 0  20111466.041 0
  -4722518.087 7  -3523507.145 6  21484447.187 0  21484447.854 0
  -5140101.516 7  -3791245.527 7  22953299.928 0  22953300.889 0
 88  2 25  5 37 29.0800000  0  4  6  8 11  9
  -3805321.667 7  -2965185.678 7  21028214.597 0  21028214.333 0
   -763865.817 7   -595219.342 6  20114275.451 0  20114275.610 0
  -4792912.196 7  -3578359.690 7  21471051.858 0  21471052.795 0
  -5230289.076 7  -3861521.536 7  22936138.121 0  22936137.679 0
 88  2 25  5 37 59.0800000  0  4  6  8 11  9
  -3848139.397 7  -2998550.139 7  21020065.217 0  21020065.626 0
   -748433.306 8   -583193.994 7  20117210.778 0  20117212.593 0
  -4862837.808 7  -3632847.180 6  21457745.452 0  21457747.849 0
  -5320444.791 7  -3931772.764 7  22918981.911 0  22918981.298 0
 88  2 25  5 38 29.0800000  0  4  6  8 11  9
  -3890670.549 7  -3031691.295 7  21011972.302 0  21011972.505 0
   -732334.181 7   -570649.238 6  20120274.176 0  20120275.138 0
  -4932293.140 7  -3686968.200 7  21444528.302 0  21444530.404 0
  -5410566.760 7  -4001997.682 7  22901831.620 0  22901832.258 0
 88  2 25  5 38 59.0800000  0  4  6  8 11  9
  -3932912.611 7  -3064607.194 7  21003934.657 0  21003934.722 0
   -715569.666 7   -557585.952 7  20123465.688 0  20123467.048 0
  -5001276.675 7  -3740721.586 7  21431401.219 0  21431403.056 0
  -5500653.296 7  -4072194.981 7  22884688.883 0  22884690.913 0
 88  2 25  5 39 29.0800000  0  4  6  8 11  9
  -3974863.359 7  -3097296.104 7  20995950.862 0  20995952.039 0
   -698141.083 7   -544005.237 7  20126782.290 0  20126783.657 0
  -5069786.659 7  -3794105.981 6  21418364.681 0  21418366.538 0
  -5590702.326 8  -4142363.043 6  22867554.330 0  22867555.066 0
 88  2 25  5 39 59.0800000  0  4  6  8 11  9
  -4016520.434 8  -3129756.164 7  20988023.723 0  20988023.964 0
   -680050.451 7   -529908.643 6  20130225.353 0  20130225.327 0
  -5137821.477 7  -3847120.111 7  21405417.610 0  21405419.205 0
  -5680712.019 8  -4212500.486 6  22850425.305 0  22850425.443 0
 88  2 25  5 40 29.0800000  0  4  6  8 11  9
  -4057881.505 7  -3161985.567 7  20980153.296 0  20980154.178 0
   -661298.675 8   -515296.847 7  20133794.138 0  20133793.493 0
  -5205379.425 7  -3899762.657 6  21392562.113 0  21392563.804 0
  -5770680.691 7  -4282605.972 6  22833304.684 0  22833304.735 0
 88  2 25  5 40 59.0800000  0  4  6  8 11  9
  -4098944.246 7  -3193982.502 7  20972338.160 0  20972340.056 0
   -641887.137 7   -500170.988 6  20137486.986 0  20137486.792 0
  -5272458.904 7  -3952032.372 6  21379795.989 0  21379798.983 0
  -5860606.251 7  -4352677.848 7  22816192.767 0  22816192.107 0
 88  2 25  5 41 29.0800000  0  4  6  8 11  9
  -4139706.222 7  -3225745.082 7  20964582.149 0  20964582.586 0
   -621817.169 7   -484532.050 6  20141306.261 0  20141307.202 0
  -5339058.250 6  -4003927.949 6  21367123.330 0  21367124.754 0
  -5950487.015 8  -4422714.803 7  22799088.742 0  22799090.345 0
 88  2 25  5 41 59.0800000  0  4  6  8 11  9
  -4180165.160 7  -3257271.534 7  20956883.050 0  20956884.293 0
   -601090.655 8   -468381.510 6  20145250.176 0  20145250.109 0
  -5405175.884 7  -4055448.158 7  21354541.656 0  21354542.982 0
  -6040320.847 7  -4492715.184 7  22781993.546 0  22781994.511 0
 88  2 25  5 42 29.0800000  0  4  6  8 11  9
  -4220318.724 8  -3288560.011 7  20949242.267 0  20949243.653 0
   -579709.598 7   -451720.928 7  20149318.667 0  20149319.618 0
  -5470810.277 8  -4106591.844 6  21342052.188 0  21342053.816 0
  -6130105.729 7  -4562677.401 7  22764907.477 0  22764909.409 0
 88  2 25  5 42 59.0800000  0  4  6  8 11  9
  -4260164.589 7  -3319608.749 7  20941659.473 0  20941661.364 0
   -557675.476 8   -434551.484 6  20153512.077 0  20153511.461 0
  -5535960.111 7  -4157357.938 6  21329653.842 0  21329655.773 0
  -6219840.031 6  -4632600.224 7  22747832.617 0  22747833.203 0
 88  2 25  5 43 29.0800000  0  4  6  8 11  9
  -4299700.375 7  -3350415.853 7  20934135.663 0  20934137.835 0
   -534989.864 7   -416874.380 6  20157830.271 0  20157829.442 0
  -5600623.684 7  -4207745.137 7  21317348.761 0  21317350.558 0
  -6309521.709 7  -4702482.027 7  22730766.869 0  22730768.163 0
 88  2 25  5 43 59.0800000  0  4  6  8 11  9
  -4338923.740 7  -3380979.507 7  20926672.303 0  20926673.332 0
   -511654.447 7   -398690.929 7  20162269.298 0  20162269.747 0
  -5664799.429 7  -4257752.194 6  21305136.581 0  21305138.985 0
  -6399148.382 7  -4772320.969 7  22713710.246 0  22713712.346 0
 88  2 25  5 44 29.0800000  0  4  6  8 11  9
  -4377832.355 7  -3411297.906 7  20919267.276 0  20919268.626 0
   -487670.756 7   -380002.339 6  20166833.761 0  20166832.704 0
  -5728485.685 7  -4307377.830 6  21293018.549 0  21293019.889 0
  -6488718.638 7  -4842115.962 7  22696665.699 0  22696666.774 0
 88  2 25  5 44 59.0800000  0  4  6  8 11  9
  -4416423.835 7  -3441369.195 7  20911925.680 0  20911925.493 0
   -463040.579 7   -360809.993 6  20171520.026 0  20171520.609 0
  -5791681.126 7  -4356621.017 6  21280992.640 0  21280994.352 0
  -6578229.998 7  -4911865.069 7  22679633.222 0  22679634.923 0
 88  2 25  5 45 29.0800000  0  4  6  8 11  9
  -4454695.866 7  -3471191.557 6  20904640.527 0  20904642.620 0
   -437765.977 7   -341115.506 7  20176330.365 0  20176330.907 0
  -5854384.131 7  -4405480.486 6  21269060.891 0  21269062.857 0
  -6667680.827 7  -4981566.996 7  22662611.894 0  22662611.993 0
 88  2 25  5 45 59.0800000  0  4  6  8 11  9
  -4492646.035 7  -3500763.113 7  20897420.292 0  20897420.834 0
   -411848.726 8   -320920.235 6  20181262.133 0  20181262.879 0
  -5916593.712 7  -4453955.479 6  21257222.777 0  21257224.500 0
  -6757068.716 7  -5051219.856 7  22645600.816 0  22645602.370 0
 88  2 25  5 46 29.0800000  0  4  6  8 11  9
  -4530272.092 7  -3530082.113 7  20890258.713 0  20890261.697 0
   -385290.600 7   -300225.588 6  20186315.434 0  20186316.573 0
  -5978308.277 7  -4502044.735 6  21245478.931 0  21245480.051 0
  -6846392.158 7  -5120822.505 6  22628604.366 0  22628604.746 0
 88  2 25  5 46 59.0800000  0  4  6  8 11  9
  -4567571.590 7  -3559146.651 7  20883162.461 0  20883162.301 0
   -358093.507 7   -279033.040 7  20191490.088 0  20191491.794 0
  -6039526.123 8  -4549746.950 7  21233828.211 0  21233830.725 0
  -6935648.566 7  -5190372.939 7  22611618.512 0  22611619.170 0
 88  2 25  5 47 29.0800000  0  4  6  8 11  9
  -4604542.297 7  -3587955.000 7  20876126.172 0  20876127.646 0
   -330259.147 7   -257343.916 6  20196786.927 0  20196788.150 0
  -6100246.264 7  -4597061.326 6  21222274.218 0  21222276.699 0
  -7024836.105 7  -5259869.716 7  22594646.582 0  22594647.402 0
 88  2 25  5 47 59.0800000  0  4  6  8 11  9
  -4641181.859 7  -3616505.298 7  20869155.279 0  20869155.516 0
   -301789.337 7   -235159.660 7  20202205.264 0  20202206.188 0
  -6160467.282 7  -4643986.792 6  21210814.527 0  21210816.002 0
  -7113952.925 7  -5329311.386 7  22577688.403 0  22577689.406 0
 88  2 25  5 48 29.0800000  0  4  6  8 11  9
  -4677487.906 7  -3644795.717 7  20862245.008 0  20862245.827 0
   -272686.330 7   -212481.988 7  20207743.374 0  20207744.691 0
  -6220188.094 7  -4690522.495 6  21199450.739 0  21199452.402 0
  -7202996.650 7  -5398696.101 7  22560744.163 0  22560744.424 0
 88  2 25  5 48 59.0800000  0  4  6  8 11  9
  -4713458.063 7  -3672824.429 7  20855400.675 0  20855401.068 0
   -242952.065 7   -189312.426 6  20213401.692 0  20213402.132 0
  -6279407.075 7  -4736667.136 7  21188181.298 0  21188183.276 0
  -7291965.380 7  -5468022.373 6  22543813.301 0  22543814.152 0
 88  2 25  5 49 29.0800000  0  4  6  8 11  9
  -4749090.051 7  -3700589.603 7  20848619.071 0  20848621.722 0
   -212588.167 7   -165652.249 7  20219179.512 0  20219180.772 0
  -6338122.902 8  -4782419.711 6  21177007.758 0  21177009.488 0
  -7380856.891 8  -5537288.479 7  22526898.500 0  22526898.512 0
 88  2 25  5 49 59.0800000  0  4  6  8 11  9
  -4784381.596 8  -3728089.504 7  20841905.076 0  20841904.721 0
   -181596.864 7   -141503.166 7  20225076.197 0  20225078.127 0
  -6396334.429 7  -4827779.322 7  21165931.037 0  21165933.220 0
  -7469669.126 7  -5606492.798 7  22509998.651 0  22509998.444 0
 88  2 25  5 50 29.0800000  0  4  6  8 11  9
  -4819330.224 7  -3755322.211 7  20835254.240 0  20835254.972 0
   -149980.594 7   -116867.121 7  20231092.846 0  20231093.968 0
  -6454040.394 7  -4872745.002 7  21154949.878 0  21154951.186 0
  -7558399.875 7  -5675633.648 6  22493112.806 0  22493113.760 0
 88  2 25  5 50 59.0800000  0  4  6  8 11  9
  -4853933.627 7  -3782285.898 7  20828669.389 0  20828670.632 0
   -117741.146 7    -91745.464 7  20237227.815 0  20237228.688 0
  -6511239.420 7  -4917315.650 7  21144063.809 0  21144067.649 0
  -7647047.021 7  -5744709.328 7  22476243.136 0  22476244.556 0
 88  2 25  5 51 29.0800000  0  4  6  8 11  9
  -4888189.528 7  -3808978.810 7  20822150.609 0  20822151.860 0
    -84880.536 7    -66139.803 7  20243481.224 0  20243482.079 0
  -6567930.231 7  -4961490.302 6  21133275.700 0  21133278.858 0
  -7735608.485 7  -5813718.256 6  22459390.265 0  22459392.486 0
 88  2 25  5 51 59.0800000  0  4  6  8 11  9
  -4922095.643 7  -3835399.159 7  20815697.993 0  20815698.369 0
    -51400.705 7    -40051.603 7  20249851.559 0  20249853.021 0
  -6624111.916 7  -5005268.232 7  21122585.556 0  21122588.425 0
  -7824082.055 7  -5882658.677 7  22442555.119 0  22442556.445 0
 88  2 25  5 52 29.0800000  0  4  6  8 11  9
  -4955649.511 7  -3861545.028 7  20809312.974 0  20809314.300 0
    -17303.865 7    -13482.656 7  20256340.221 0  20256341.913 0
  -6679783.520 7  -5048648.688 6  21111992.461 0  21111993.495 0
  -7912465.605 7  -5951528.968 7  22425735.213 0  22425737.245 0
 88  2 25  5 52 59.0800000  0  4  6  8 11  9
  -4988848.980 7  -3887414.756 7  20802995.657 0  20802995.898 0
     17407.697 7     13565.329 7  20262946.189 0  20262947.674 0
  -6734943.642 7  -5091630.582 7  21101494.658 0  21101496.884 0
  -8000756.881 6  -6020327.336 6  22408935.780 0  22408935.899 0
 88  2 25  5 53 29.0800000  0  4  6  8 11  9
  -5021691.568 7  -3913006.391 7  20796745.566 0  20796745.640 0
     52732.064 7     41090.812 7  20269668.773 0  20269669.315 0
  -6789591.146 7  -5134213.035 6  21091096.055 0  21091098.546 0
  -8088953.270 7  -6089051.791 6  22392152.394 0  22392152.026 0
 88  2 25  5 53 59.0800000  0  4  6  8 11  9
  -5054175.006 7  -3938318.158 7  20790564.415 0  20790565.215 0
     88666.840 7     69091.938 6  20276506.631 0  20276507.314 0
  -6843724.935 7  -5176395.206 6  21080794.631 0  21080795.941 0
  -8177053.231 7  -6157701.094 7  22375385.808 0  22375387.270 0
 88  2 25  5 54 29.0800000  0  4  6  8 11  9
  -5086297.053 7  -3963348.335 6  20784451.529 0  20784452.148 0
    125209.345 7     97566.626 7  20283459.569 0  20283460.956 0
  -6897343.998 7  -5218176.280 7  21070590.883 0  21070593.766 0
  -8265054.421 7  -6226273.429 6  22358640.501 0  22358640.082 0
 88  2 25  5 54 59.0800000  0  4  6  8 11  9
  -5118055.345 7  -3988095.045 7  20778408.872 0  20778409.414 0
    162357.985 7    126513.608 7  20290528.099 0  20290531.098 0
  -6950447.058 7  -5259555.271 6  21060486.242 0  21060487.738 0
  -8352953.921 7  -6294766.535 7  22341914.083 0  22341914.243 0
 88  2 25  5 55 29.0800000  0  4  6  8 11  9
  -5149447.564 7  -4012556.521 7  20772434.728 0  20772435.213 0
    200110.103 7    155930.856 7  20297713.730 0  20297714.803 0
  -7003033.440 7  -5300531.656 6  21050479.507 0  21050480.969 0
  -8440750.349 7  -6363179.345 7  22325206.546 0  22325207.930 0
 88  2 25  5 55 59.0800000  0  4  6  8 11  9
  -5180471.473 7  -4036731.002 6  20766531.605 0  20766532.095 0
    238463.575 7    185816.669 6  20305012.030 0  20305011.712 0
  -7055102.157 7  -5341104.680 6  21040570.503 0  21040572.613 0
  -8528440.600 7  -6431509.403 7  22308520.632 0  22308520.730 0
 88  2 25  5 56 29.0800000  0  4  6  8 11  9
  -5211124.720 7  -4060616.646 6  20760698.091 0  20760698.653 0
    277416.107 7    216169.294 7  20312424.702 0  20312425.342 0
  -7106652.418 7  -5381273.692 6  21030761.569 0  21030762.898 0
  -8616023.455 8  -6499755.789 7  22291854.159 0  22291853.918 0
 88  2 25  5 56 59.0800000  0  4  6  8 11  9
  -5241405.013 7  -4084211.697 7  20754936.391 0  20754936.874 0
    316965.131 7    246986.698 7  20319948.912 0  20319950.301 0
  -7157682.998 8  -5421037.781 6  21021049.843 0  21021051.118 0
  -8703495.852 8  -6567916.085 6  22275208.765 0  22275208.534 0
 88  2 25  5 57 29.0800000  0  4  6  8 11  9
  -5271310.093 7  -4107514.353 6  20749244.577 0  20749246.015 0
    357108.656 7    278267.377 7  20327588.514 0  20327590.046 0
  -7208192.672 7  -5460395.961 6  21011438.228 0  21011441.524 0
  -8790855.847 7  -6635988.822 7  22258584.335 0  22258585.308 0
 88  2 25  5 57 59.0800000  0  4  6  8 11  9
  -5300837.496 7  -4130522.716 6  20743626.712 0  20743627.168 0
    397844.192 7    310009.333 7  20335340.610 0  20335341.585 0
  -7258180.648 7  -5499347.622 6  21001925.448 0  21001926.911 0
  -8878100.959 7  -6703972.013 6  22241981.083 0  22241981.547 0
 88  2 25  5 58 29.0800000  0  4  6  8 11  9
  -5329985.195 7  -4153235.212 6  20738078.638 0  20738080.983 0
    439169.312 7    342210.735 6  20343204.531 0  20343205.436 0
  -7307646.154 6  -5537892.157 6  20992513.597 0  20992514.141 0
  -8965228.640 7  -6771863.703 6  22225402.091 0  22225401.723 0
 88  2 25  5 58 59.0800000  0  4  6  8 11  9
  -5358750.767 7  -4175649.935 7  20732606.136 0  20732606.296 0
    481081.279 7    374869.427 7  20351180.118 0  20351181.279 0
  -7356588.192 7  -5576028.806 6  20983199.629 0  20983201.192 0
  -9052237.223 8  -6839662.593 7  22208846.298 0  22208845.256 0
 88  2 25  5 59 29.0800000  0  4  6  8 11  9
  -5387131.986 7  -4197765.171 7  20727204.436 0  20727204.972 0
    523577.829 7    407983.599 6  20359267.057 0  20359268.095 0
  -7405006.128 7  -5613757.054 7  20973986.391 0  20973987.699 0
  -9139123.505 7  -6907366.207 7  22192311.588 0  22192312.133 0
 88  2 25  5 59 59.0800000  0  4  6  8 11  9
  -5415126.693 7  -4219579.235 7  20721878.297 0  20721878.096 0
    566656.884 7    441551.706 7  20367464.605 0  20367466.169 0
  -7452899.203 7  -5651076.345 6  20964872.666 0  20964874.547 0
  -9225885.669 7  -6974973.080 6  22175801.253 0  22175802.143 0
 88  2 25  6  0 29.0800000  0  4  6  8 11  9
  -5442732.420 7  -4241090.197 6  20716624.315 0  20716625.350 0
    610315.542 7    475571.430 7  20375772.975 0  20375774.032 0
  -7500266.387 7  -5687985.819 6  20955859.724 0  20955860.145 0
  -9312521.353 7  -7042481.421 7  22159315.014 0  22159314.850 0
 88  2 25  6  0 59.0800000  0  4  6  8 11  9
  -5469947.064 7  -4262296.411 7  20711446.527 0  20711446.314 0
    654551.121 7    510040.715 6  20384189.988 0  20384191.097 0
  -7547106.820 8  -5724484.840 6  20946946.294 0  20946948.137 0
  -9399028.008 8  -7109889.225 7  22142852.243 0  22142853.212 0
 88  2 25  6  1 29.0800000  0  4  6  8 11  9
  -5496768.289 7  -4283196.080 7  20706341.598 0  20706343.433 0
    699361.700 7    544958.042 7  20392718.259 0  20392718.729 0
  -7593419.927 7  -5760572.968 6  20938132.780 0  20938135.186 0
  -9485403.072 7  -7177194.484 6  22126416.415 0  22126417.020 0
 88  2 25  6  1 59.0800000  0  4  6  8 11  9
  -5523193.979 7  -4303787.515 7  20701313.930 0  20701314.072 0
    744744.511 8    580321.273 7  20401353.497 0  20401354.422 0
  -7639204.856 7  -5796249.540 6  20929418.214 0  20929421.217 0
  -9571644.841 7  -7244395.859 6  22110004.522 0  22110005.231 0
 88  2 25  6  2 29.0800000  0  4  6  8 11  9
  -5549221.753 7  -4324068.908 7  20696359.937 0  20696361.018 0
    790696.868 7    616128.314 7  20410098.274 0  20410098.939 0
  -7684461.034 7  -5831514.066 6  20920807.169 0  20920808.730 0
  -9657750.151 7  -7311490.900 7  22093619.936 0  22093620.204 0
 88  2 25  6  2 59.0800000  0  4  6  8 11  9
  -5574849.406 7  -4344038.527 7  20691483.794 0  20691485.495 0
    837216.104 7    652377.059 7  20418950.689 0  20418950.420 0
  -7729187.780 7  -5866366.074 6  20912295.769 0  20912298.752 0
  -9743716.692 7  -7378477.823 6  22077260.634 0  22077260.869 0
 88  2 25  6  3 29.0800000  0  4  6  8 11  9
  -5600074.884 8  -4363694.732 7  20686683.309 0  20686684.066 0
    884299.837 7    689065.687 6  20427909.565 0  20427910.944 0
  -7773384.405 7  -5900805.004 6  20903886.252 0  20903888.408 0
  -9829542.712 7  -7445355.237 7  22060929.252 0  22060929.641 0
 88  2 25  6  3 59.0800000  0  4  6  8 11  9
  -5624896.046 7  -4383035.914 7  20681959.578 0  20681961.379 0
    931945.309 8    726192.020 7  20436975.914 0  20436977.293 0
  -7817049.933 7  -5934830.067 6  20895576.573 0  20895579.037 0
  -9915224.979 8  -7512120.637 7  22044623.596 0  22044624.990 0
 88  2 25  6  4 29.0800000  0  4  6  8 11  9
  -5649310.145 7  -4402059.884 7  20677313.393 0  20677314.479 0
    980149.810 8    763753.982 6  20446149.604 0  20446151.058 0
  -7860184.046 6  -5968441.055 7  20887368.025 0  20887370.475 0
 -10000761.502 7  -7578772.444 6  22028346.234 0  22028347.119 0
 88  2 25  6  4 59.0800000  0  4  6  8 11  9
  -5673315.392 7  -4420765.279 7  20672745.919 0  20672746.685 0
   1028911.017 7    801749.723 7  20455428.848 0  20455428.696 0
  -7902785.854 7  -6001637.249 6  20879262.406 0  20879264.399 0
 -10086149.554 7  -7645308.605 6  22012098.044 0  22012097.932 0
 88  2 25  6  5 29.0800000  0  4  6  8 11  9
  -5696909.447 7  -4439150.262 7  20668256.039 0  20668257.367 0
   1078226.157 7    840177.096 6  20464812.613 0  20464813.580 0
  -7944855.280 7  -6034418.618 6  20871255.807 0  20871259.105 0
 -10171386.724 7  -7711727.180 7  21995876.523 0  21995878.745 0
 88  2 25  6  5 59.0800000  0  4  6  8 11  9
  -5720090.257 7  -4457213.236 7  20663845.327 0  20663845.152 0
   1128092.207 7    879033.766 7  20474302.428 0  20474301.545 0
  -7986391.659 7  -6066784.622 6  20863352.263 0  20863353.223 0
 -10256470.622 7  -7778026.300 6  21979686.678 0  21979687.861 0
 88  2 25  6  6 29.0800000  0  4  6  8 11  9
  -5742855.626 7  -4474952.489 7  20659513.152 0  20659512.931 0
   1178506.567 7    918317.682 7  20483894.745 0  20483896.546 0
  -8027394.466 7  -6098734.851 6  20855550.628 0  20855552.452 0
 -10341398.516 7  -7844203.895 7  21963525.584 0  21963525.759 0
 88  2 25  6  6 59.0800000  0  4  6  8 11  9
  -5765203.334 7  -4492366.297 7  20655260.233 0  20655261.504 0
   1229466.704 7    958026.873 6  20493593.932 0  20493594.725 0
  -8067862.860 7  -6130268.654 6  20847847.451 0  20847850.313 0
 -10426168.010 7  -7910258.028 7  21947393.797 0  21947395.959 0
 88  2 25  6  7 29.0800000  0  4  6  8 11  9
  -5787131.226 7  -4509452.969 7  20651087.243 0  20651088.683 0
   1280969.835 7    998159.187 7  20503394.493 0  20503394.579 0
  -8107796.627 6  -6161385.873 6  20840249.228 0  20840251.965 0
 -10510776.730 7  -7976186.885 7  21931293.930 0  21931294.836 0
 88  2 25  6  7 59.0800000  0  4  6  8 11  9
  -5808637.243 7  -4526210.906 7  20646996.342 0  20646997.037 0
   1333013.177 7   1038712.446 7  20513297.601 0  20513297.421 0
  -8147195.506 7  -6192086.274 6  20832751.756 0  20832754.310 0
 -10595222.383 7  -8041988.682 7  21915224.086 0  21915224.583 0
 88  2 25  6  8 29.0800000  0  4  6  8 11  9
  -5829719.160 7  -4542638.383 7  20642983.349 0  20642983.723 0
   1385593.654 7   1079684.248 7  20523304.446 0  20523303.087 0
  -8186058.819 6  -6222369.356 6  20825356.523 0  20825358.839 0
 -10679502.053 7  -8107661.144 7  21899186.977 0  21899187.956 0
 88  2 25  6  8 59.0800000  0  4  6  8 11  9
  -5850374.884 7  -4558733.754 7  20639052.204 0  20639053.909 0
   1438708.251 7   1121072.239 7  20533410.945 0  20533411.348 0
  -8224386.155 7  -6252234.799 6  20818064.357 0  20818065.335 0
 -10763613.311 7  -8173202.356 7  21883180.580 0  21883181.706 0
 88  2 25  6  9 29.0800000  0  4  6  8 11  9
  -5870602.285 7  -4574495.368 7  20635203.605 0  20635204.587 0
   1492355.044 7   1162874.925 6  20543618.701 0  20543619.472 0
  -8262176.956 6  -6281682.183 6  20810871.468 0  20810874.065 0
 -10847553.561 7  -8238610.351 7  21867207.468 0  21867207.623 0
 88  2 25  6  9 59.0800000  0  4  6  8 11  9
  -5890399.296 7  -4589921.605 7  20631436.892 0  20631437.114 0
   1546530.998 7   1205089.960 7  20553929.057 0  20553928.939 0
  -8299431.129 7  -6310711.397 7  20803782.174 0  20803783.928 0
 -10931320.259 8  -8303883.093 7  21851267.629 0  21851268.344 0
 88  2 25  6 10 29.0800000  0  4  6  8 11  9
  -5909763.692 7  -4605010.757 6  20627750.644 0  20627752.512 0
   1601233.372 7   1247715.189 7  20564337.574 0  20564339.127 0
  -8336148.328 7  -6339322.183 6  20796795.677 0  20796796.758 0
 -11014911.026 7  -8369018.753 6  21835360.584 0  21835361.625 0
 88  2 25  6 10 59.0800000  0  4  6  8 11  9
  -5928693.480 7  -4619761.237 7  20624149.537 0  20624150.894 0
   1656459.130 7   1290748.238 7  20574846.492 0  20574848.236 0
  -8372327.755 6  -6367513.933 6  20789910.863 0  20789912.399 0
 -11098322.838 7  -8434014.955 7  21819487.853 0  21819488.618 0
 88  2 25  6 11 29.0800000  0  4  6  8 11  9
  -5947186.542 7  -4634171.412 7  20620630.125 0  20620630.246 0
   1712205.324 7   1334186.831 6  20585455.288 0  20585456.864 0
  -8407969.664 7  -6395286.837 7  20783128.844 0  20783130.845 0
 -11181553.619 7  -8498870.115 6  21803649.519 0  21803649.135 0
 88  2 25  6 11 59.0800000  0  4  6  8 11  9
  -5965240.747 8  -4648239.625 6  20617194.489 0  20617195.736 0
   1768469.152 7   1378028.766 7  20596162.463 0  20596162.303 0
  -8443073.484 7  -6422640.452 6  20776449.221 0  20776450.747 0
 -11264600.578 7  -8563582.026 7  21787846.711 0  21787845.781 0
 88  2 25  6 12 29.0800000  0  4  6  8 11  9
  -5982853.951 7  -4661964.210 7  20613843.248 0  20613844.005 0
   1825247.934 7   1422271.970 7  20606967.376 0  20606967.191 0
  -8477638.960 6  -6449574.574 6  20769871.333 0  20769873.438 0
 -11347460.535 7  -8628148.237 7  21772078.996 0  21772078.752 0
 88  2 25  6 12 59.0800000  0  4  6  8 11  9
  -6000024.273 7  -4675343.690 7  20610576.164 0  20610576.511 0
   1882538.622 7   1466914.071 7  20617868.951 0  20617869.602 0
  -8511666.100 7  -6476089.215 6  20763395.937 0  20763398.635 0
 -11430131.584 7  -8692567.224 6  21756345.873 0  21756347.643 0
 88  2 25  6 13 29.0800000  0  4  6  8 11  9
  -6016749.709 7  -4688376.496 7  20607392.027 0  20607393.923 0
   1940338.500 7   1511952.922 7  20628867.043 0  20628867.144 0
  -8545154.554 7  -6502184.124 7  20757023.363 0  20757024.101 0
 -11512611.244 7  -8756837.089 7  21740651.643 0  21740651.952 0
 88  2 25  6 13 59.0800000  0  4  6  8 11  9
  -6033028.108 7  -4701060.981 7  20604295.594 0  20604296.509 0
   1998644.656 7   1557386.296 7  20639962.926 0  20639965.157 0
  -8578104.381 7  -6527859.291 7  20750752.183 0  20750753.911 0
 -11594896.100 7  -8820955.171 7  21724992.007 0  21724993.628 0
 88  2 25  6 14 29.0800000  0  4  6  8 11  9
  -6048857.600 7  -4713395.638 7  20601284.235 0  20601283.704 0
   2057453.885 8   1603211.657 7  20651153.836 0  20651155.162 0
  -8610515.167 7  -6553114.458 6  20744585.803 0  20744588.243 0
 -11676984.377 7  -8884920.089 7  21709371.199 0  21709372.009 0
 88  2 25  6 14 59.0800000  0  4  6  8 11  9
  -6064236.132 7  -4725378.919 7  20598356.117 0  20598357.299 0
   2116763.042 7   1649426.597 7  20662440.458 0  20662441.437 0
  -8642386.863 7  -6577949.523 7  20738521.421 0  20738523.883 0
 -11758872.737 8  -8948729.189 7  21693789.015 0  21693790.991 0
 88  2 25  6 15 29.0800000  0  4  6  8 11  9
  -6079161.577 7  -4737009.138 7  20595516.803 0  20595517.584 0
   2176569.205 7   1696028.787 7  20673820.622 0  20673821.612 0
  -8673719.490 6  -6602364.546 6  20732558.635 0  20732559.978 0
 -11840558.738 7  -9012380.614 7  21678244.166 0  21678245.755 0
 88  2 25  6 15 59.0800000  0  4  6  8 11  9
  -6093632.135 7  -4748284.900 7  20592762.103 0  20592763.557 0
   2236869.563 8   1743016.078 7  20685295.634 0  20685296.243 0
  -8704512.976 7  -6626359.479 6  20726697.871 0  20726699.778 0
 -11922040.021 8  -9075872.537 7  21662738.951 0  21662739.799 0
 88  2 25  6 16 29.0800000  0  4  6  8 11  9
  -6107645.672 7  -4759204.546 6  20590095.938 0  20590097.062 0
   2297661.191 7   1790386.183 7  20696863.309 0  20696865.968 0
  -8734767.215 6  -6649934.198 6  20720940.675 0  20720942.944 0
 -12003313.770 7  -9139202.744 7  21647273.087 0  21647273.459 0
 88  2 25  6 16 59.0800000  0  4  6  8 11  9
  -6121200.468 7  -4769766.728 7  20587515.573 0  20587517.274 0
   2358940.755 7   1838136.488 7  20708525.738 0  20708525.646 0
  -8764482.108 7  -6673088.662 6  20715286.024 0  20715288.617 0
 -12084377.102 8  -9202368.990 7  21631847.296 0  21631848.649 0
 88  2 25  6 17 29.0800000  0  4  6  8 11  9
  -6134294.456 7  -4779969.840 6  20585023.904 0  20585025.863 0
   2420705.803 7   1886265.091 7  20720278.281 0  20720280.132 0
  -8793657.510 7  -6695822.735 6  20709735.651 0  20709735.391 0
 -12165227.505 7  -9265369.304 7  21616461.691 0  21616462.748 0
 88  2 25  6 17 59.0800000  0  4  6  8 11  9
  -6146925.681 7  -4789812.354 7  20582621.458 0  20582621.671 0
   2482953.110 7   1934769.480 6  20732123.823 0  20732123.973 0
  -8822293.649 7  -6718136.603 6  20704284.449 0  20704287.897 0
 -12245862.360 8  -9328201.650 7  21601117.470 0  21601118.572 0
 88  2 25  6 18 29.0800000  0  4  6  8 11  9
  -6159092.168 7  -4799292.743 7  20580305.221 0  20580306.897 0
   2545679.972 7   1983647.562 7  20744059.760 0  20744060.490 0
  -8850390.362 7  -6740030.122 6  20698939.240 0  20698940.225 0
 -12326278.828 7  -9390863.845 7  21585814.666 0  21585816.730 0
 88  2 25  6 18 59.0800000  0  4  6  8 11  9
  -6170792.087 7  -4808409.576 6  20578079.645 0  20578080.584 0
   2608882.972 7   2032896.649 7  20756087.630 0  20756088.436 0
  -8877947.735 7  -6761503.392 7  20693693.805 0  20693696.789 0
 -12406474.163 8  -9453353.714 7  21570555.114 0  21570555.282 0
 88  2 25  6 19 29.0800000  0  4  6  8 11  9
  -6182023.521 7  -4817161.340 7  20575942.292 0  20575943.368 0
   2672559.548 6   2082514.751 7  20768204.581 0  20768205.258 0
  -8904965.784 7  -6782556.396 6  20688552.995 0  20688554.071 0
 -12486445.666 7  -9515669.166 7  21555336.744 0  21555337.333 0
 88  2 25  6 19 59.0800000  0  4  6  8 11  9
  -6192784.592 7  -4825546.610 6  20573895.068 0  20573894.904 0
   2736706.280 7   2132499.233 7  20780412.151 0  20780411.850 0
  -8931444.677 7  -6803189.309 6  20683514.661 0  20683516.293 0
 -12566190.759 7  -9577808.202 7  21540161.619 0  21540162.443 0
 88  2 25  6 20 29.0800000  0  4  6  8 11  9
  -6203073.488 7  -4833563.925 6  20571937.657 0  20571937.064 0
   2801319.901 8   2182847.524 7  20792707.072 0  20792707.750 0
  -8957384.827 6  -6823402.400 6  20678578.189 0  20678579.755 0
 -12645706.520 7  -9639768.539 7  21525029.992 0  21525031.278 0
 88  2 25  6 20 59.0800000  0  4  6  8 11  9
  -6212888.292 7  -4841211.824 7  20570068.744 0  20570070.235 0
   2866397.511 8   2233557.337 7  20805090.725 0  20805091.902 0
  -8982786.130 7  -6843195.615 6  20673744.995 0  20673745.095 0
 -12724990.234 7  -9701548.035 7  21509943.711 0  21509944.042 0
 88  2 25  6 21 29.0800000  0  4  6  8 11  9
  -6222227.210 7  -4848488.904 6  20568291.781 0  20568291.469 0
   2931936.123 7   2284626.386 7  20817563.200 0  20817562.265 0
  -9007648.926 7  -6862569.220 6  20669013.887 0  20669014.567 0
 -12804039.368 7  -9763144.754 6  21494899.932 0  21494900.780 0
 88  2 25  6 21 59.0800000  0  4  6  8 11  9
  -6231088.385 7  -4855393.722 7  20566605.950 0  20566606.678 0
   2997932.631 8   2336052.236 7  20830121.335 0  20830122.055 0
  -9031973.124 7  -6881523.138 6  20664383.828 0  20664385.393 0
 -12882850.892 7  -9824556.326 6  21479903.365 0  21479903.602 0
 88  2 25  6 22 29.0800000  0  4  6  8 11  9
  -6239470.049 7  -4861924.885 7  20565011.268 0  20565010.364 0
   3064383.781 7   2387832.360 7  20842767.297 0  20842766.782 0
  -9055758.805 7  -6900057.422 6  20659858.136 0  20659858.680 0
 -12961422.345 8  -9885780.833 7  21464952.408 0  21464953.231 0
 88  2 25  6 22 59.0800000  0  4  6  8 11  9
  -6247370.312 7  -4868080.930 7  20563507.173 0  20563508.015 0
   3131286.583 7   2439964.408 7  20855496.923 0  20855498.167 0
  -9079006.629 6  -6918172.608 6  20655433.996 0  20655434.312 0
 -13039750.770 7  -9946815.994 7  21450047.078 0  21450047.126 0
 88  2 25  6 23 29.0800000  0  4  6  8 11  9
  -6254787.520 7  -4873860.586 7  20562096.239 0  20562097.100 0
   3198637.799 8   2492445.889 7  20868314.361 0  20868314.509 0
  -9101716.916 7  -6935868.926 6  20651112.929 0  20651114.406 0
 -13117833.409 7 -10007659.593 7  21435187.526 0  21435188.301 0
 88  2 25  6 23 59.0800000  0  4  6  8 11  9
  -6261719.797 7  -4879262.362 7  20560777.209 0  20560777.842 0
   3266434.735 7   2545274.662 6  20881214.912 0  20881215.068 0
  -9123889.653 7  -6953146.374 5  20646892.765 0  20646895.349 0
 -13195667.227 8 -10068309.314 6  21420377.324 0  21420377.784 0
 88  2 25  6 24 29.0800000  0  4  6  8 11  9
  -6268165.431 7  -4884284.932 6  20559551.255 0  20559551.258 0
   3334673.900 7   2598448.046 7  20894200.978 0  20894200.900 0
  -9145525.298 7  -6970005.327 6  20642775.524 0  20642777.305 0
 -13273249.921 7 -10128763.358 6  21405612.378 0  21405613.735 0
 88  2 25  6 24 59.0800000  0  4  6  8 11  9
  -6274122.767 7  -4888927.014 7  20558416.813 0  20558416.340 0
   3403352.129 7   2651963.535 7  20907269.082 0  20907270.624 0
  -9166624.303 7  -6986446.101 6  20638760.850 0  20638763.244 0
 -13350578.418 7 -10189019.330 7  21390898.285 0  21390898.252 0
 88  2 25  6 25 29.0800000  0  4  6  8 11  9
  -6279590.056 6  -4893187.245 6  20557376.087 0  20557377.668 0
   3472466.404 7   2705818.808 7  20920421.188 0  20920422.114 0
  -9187186.859 7  -7002468.869 6  20634847.624 0  20634849.348 0
 -13427649.969 7 -10249075.087 6  21376231.538 0  21376232.485 0
 88  2 25  6 25 59.0800000  0  4  6  8 11  9
  -6284565.490 7  -4897064.225 7  20556428.312 0  20556429.655 0
   3542013.732 7   2760011.535 6  20933656.304 0  20933657.112 0
  -9207213.121 7  -7018073.723 6  20631037.381 0  20631037.960 0
 -13504461.822 7 -10308928.466 6  21361614.618 0  21361614.708 0
 88  2 25  6 26 29.0800000  0  4  6  8 11  9
  -6289047.537 7  -4900556.712 7  20555577.298 0  20555576.559 0
   3611990.700 7   2814539.026 7  20946971.157 0  20946973.822 0
  -9226703.830 6  -7033261.310 5  20627328.737 0  20627328.786 0
 -13581011.286 7 -10368577.408 7  21347048.682 0  21347049.129 0
 88  2 25  6 26 59.0800000  0  4  6  8 11  9
  -6293034.325 7  -4903663.308 6  20554818.201 0  20554818.045 0
   3682394.590 7   2869399.199 7  20960368.995 0  20960370.809 0
  -9245659.067 7  -7048031.604 6  20623721.471 0  20623722.068 0
 -13657295.332 7 -10428019.526 7  21332530.899 0  21332531.028 0
 88  2 25  6 27 29.0800000  0  4  6  8 11  9
  -6296524.424 7  -4906382.875 6  20554154.373 0  20554153.700 0
   3753221.815 7   2924589.237 7  20973847.324 0  20973848.663 0
  -9264079.461 6  -7062385.160 5  20620216.010 0  20620215.185 0
 -13733311.279 8 -10487252.713 7  21318065.304 0  21318066.908 0
 88  2 25  6 27 59.0800000  0  4  6  8 11  9
  -6299516.033 8  -4908714.011 7  20553584.467 0  20553584.313 0
   3824469.185 7   2980106.674 7  20987406.265 0  20987406.657 0
  -9281965.852 8  -7076322.589 6  20616811.509 0  20616813.041 0
 -13809056.388 7 -10546274.884 6  21303651.095 0  21303652.687 0
 88  2 25  6 28 29.0800000  0  4  6  8 11  9
  -6302007.596 8  -4910655.487 7  20553110.234 0  20553111.389 0
   3896133.860 7   3035949.259 6  21001042.919 0  21001043.855 0
  -9299318.285 6  -7089843.980 6  20613510.515 0  20613511.535 0
 -13884527.604 7 -10605083.610 7  21289290.330 0  21289291.025 0
 88  2 25  6 28 59.0800000  0  4  6  8 11  9
  -6303997.438 7  -4912206.029 7  20552732.132 0  20552732.315 0
   3968212.627 7   3092114.538 7  21014760.267 0  21014759.178 0
  -9316137.521 7  -7102949.858 6  20610309.644 0  20610311.875 0
 -13959722.409 7 -10663676.960 7  21274981.873 0  21274982.286 0
 88  2 25  6 29 29.0800000  0  4  6  8 11  9
  -6305484.124 7  -4913364.475 7  20552449.303 0  20552450.354 0
   4040702.133 7   3148599.870 7  21028552.827 0  21028554.082 0
  -9332423.765 7  -7115640.425 6  20607210.684 0  20607211.031 0
 -14034637.598 7 -10722052.428 7  21260724.228 0  21260725.403 0
 88  2 25  6 29 59.0800000  0  4  6  8 11  9
  -6306465.989 7  -4914129.570 7  20552262.254 0  20552262.417 0
   4113599.377 7   3205402.912 6  21042425.392 0  21042426.367 0
  -9348177.639 6  -7127916.178 6  20604213.155 0  20604214.181 0
 -14109270.522 7 -10780207.932 6  21246524.417 0  21246524.611 0
 88  2 25  6 30 29.0800000  0  4  6  8 11  9
  -6306941.413 7  -4914500.040 7  20552171.368 0  20552172.860 0
   4186900.947 7   3262521.020 7  21056374.888 0  21056374.268 0
  -9363400.192 6  -7139777.899 6  20601316.294 0  20601318.701 0
 -14183618.287 7 -10838141.272 6  21232376.442 0  21232375.356 0
 88  2 25  6 30 59.0800000  0  4  6  8 11  9
  -6306909.179 7  -4914474.937 7  20552178.382 0  20552178.688 0
   4260603.132 7   3319951.286 6  21070399.080 0  21070400.154 0
  -9378091.850 7  -7151225.933 6  20598519.833 0  20598520.932 0
 -14257678.141 7 -10895850.256 6  21218282.387 0  21218282.662 0
 88  2 25  6 31 29.0800000  0  4  6  8 11  9
  -6306367.400 7  -4914052.777 7  20552280.264 0  20552281.617 0
   4334703.292 8   3377691.667 7  21084500.564 0  21084501.783 0
  -9392252.936 7  -7162260.536 6  20595825.075 0  20595826.012 0
 -14331447.076 7 -10953332.521 7  21204243.836 0  21204245.013 0
 88  2 25  6 31 59.0800000  0  4  6  8 11  9
  -6305314.636 7  -4913232.441 6  20552481.173 0  20552481.679 0
   4409198.473 8   3435739.866 7  21098675.955 0  21098676.984 0
  -9405884.123 6  -7172882.242 6  20593231.151 0  20593232.975 0
 -14404922.275 7 -11010585.921 7  21190262.313 0  21190263.049 0
 88  2 25  6 32 29.0800000  0  4  6  8 11  9
  -6303749.506 7  -4912012.876 7  20552778.632 0  20552779.854 0
   4484085.230 7   3494093.180 7  21112925.985 0  21112927.086 0
  -9418986.106 6  -7183091.573 6  20590736.282 0  20590741.189 0
 -14478100.990 8 -11067608.295 7  21176337.177 0  21176338.293 0
 88  2 25  6 32 59.0800000  0  4  6  8 11  9
  -6301670.577 7  -4910392.922 7  20553174.317 0  20553175.294 0
   4559360.510 7   3552749.236 7  21127251.015 0  21127251.703 0
  -9431559.732 7  -7192889.188 6  20588344.729 0  20588347.411 0
 -14550980.196 7 -11124397.276 7  21162468.525 0  21162468.806 0
 88  2 25  6 33 29.0800000  0  4  6  8 11  9
  -6299076.344 7  -4908371.451 7  20553668.299 0  20553669.540 0
   4635021.084 8   3611705.543 7  21141649.206 0  21141649.117 0
  -9443605.593 6  -7202275.565 5  20586052.788 0  20586055.678 0
 -14623557.248 7 -11180950.820 7  21148657.716 0  21148658.450 0
 88  2 25  6 33 59.0800000  0  4  6  8 11  9
  -6295965.439 7  -4905947.376 7  20554261.022 0  20554261.615 0
   4711063.391 6   3670959.281 7  21156119.258 0  21156120.114 0
  -9455124.389 7  -7211251.241 6  20583860.893 0  20583863.555 0
 -14695829.211 7 -11237266.634 7  21134904.826 0  21134905.250 0
 88  2 25  6 34 29.0800000  0  4  6  8 11  9
  -6292336.333 7  -4903119.517 7  20554950.271 0  20554951.447 0
   4787484.722 8   3730508.368 7  21170660.743 0  21170663.191 0
  -9466116.992 6  -7219816.890 6  20581769.404 0  20581769.586 0
 -14767793.297 7 -11293342.543 7  21121210.921 0  21121210.850 0
 88  2 25  6 34 59.0800000  0  4  6  8 11  9
  -6288187.674 7  -4899886.794 7  20555740.714 0  20555740.548 0
   4864281.683 7   3790350.145 7  21185274.479 0  21185276.480 0
  -9476584.084 6  -7227973.072 6  20579777.775 0  20579779.135 0
 -14839446.387 7 -11349176.113 7  21107575.749 0  21107575.060 0
 88  2 25  6 35 29.0800000  0  4  6  8 11  9
  -6283518.075 8  -4896248.151 7  20556628.286 0  20556628.805 0
   4941451.036 7   3850482.100 6  21199960.154 0  21199960.745 0
  -9486526.392 6  -7235720.306 6  20577884.119 0  20577886.916 0
 -14910785.931 7 -11404765.363 7  21093999.168 0  21094001.933 0
 88  2 25  6 35 59.0800000  0  4  6  8 11  9
  -6278326.232 7  -4892202.571 7  20557617.313 0  20557618.508 0
   5018989.577 7   3910901.755 7  21214714.459 0  21214715.455 0
  -9495944.602 7  -7243059.174 6  20576092.760 0  20576095.308 0
 -14981808.624 7 -11460107.697 7  21080485.343 0  21080485.917 0
 88  2 25  6 36 29.0800000  0  4  6  8 11  9
  -6272610.720 7  -4887748.913 7  20558704.387 0  20558704.806 0
   5096894.411 7   3971606.806 8  21229540.094 0  21229541.314 0
  -9504839.478 6  -7249990.239 6  20574401.202 0  20574403.101 0
 -15052511.716 7 -11515201.026 7  21067031.137 0  21067030.966 0
 88  2 25  6 36 59.0800000  0  4  6  8 11  9
  -6266370.292 7  -4882886.255 7  20559891.454 0  20559892.976 0
   5175161.802 7   4032594.382 7  21244434.033 0  21244435.361 0
  -9513212.463 7  -7256514.630 5  20572806.792 0  20572810.322 0
 -15122892.386 7 -11570043.110 6  21053637.044 0  21053638.535 0
 88  2 25  6 37 29.0800000  0  4  6  8 11  9
  -6259603.749 7  -4877613.629 7  20561179.681 0  20561180.765 0
   5253788.685 7   4093862.092 7  21259395.532 0  21259396.630 0
  -9521064.060 6  -7262632.751 6  20571313.168 0  20571315.403 0
 -15192947.702 7 -11624631.656 7  21040306.063 0  21040307.222 0
 88  2 25  6 37 59.0800000  0  4  6  8 11  9
  -6252309.659 8  -4871929.933 6  20562567.192 0  20562568.424 0
   5332771.961 7   4155407.487 7  21274426.237 0  21274427.431 0
  -9528395.306 6  -7268345.401 6  20569917.121 0  20569919.616 0
 -15262675.073 7 -11678964.665 7  21027037.750 0  21027037.822 0
 88  2 25  6 38 29.0800000  0  4  6  8 11  9
  -6244486.873 7  -4865834.258 7  20564056.268 0  20564057.623 0
   5412108.450 7   4217228.137 7  21289523.808 0  21289525.146 0
  -9535206.711 6  -7273652.988 7  20568620.444 0  20568623.976 0
 -15332071.311 7 -11733039.654 6  21013831.093 0  21013831.812 0
 88  2 25  6 38 59.0800000  0  4  6  8 11  9
  -6236134.048 7  -4859325.565 7  20565647.052 0  20565646.630 0
   5491794.748 7   4279321.360 7  21304687.442 0  21304687.862 0
  -9541499.533 6  -7278556.477 6  20567424.746 0  20567426.531 0
 -15401133.530 7 -11786854.368 7  21000691.269 0  21000689.586 0
 88  2 25  6 39 29.0800000  0  4  6  8 11  9
  -6227250.054 7  -4852402.967 7  20567336.515 0  20567336.983 0
   5571827.583 7   4341684.602 7  21319917.079 0  21319917.523 0
  -9547274.976 7  -7283056.822 6  20566325.791 0  20566325.874 0
 -15469859.017 7 -11840406.681 7  20987611.265 0  20987611.906 0
 88  2 25  6 39 59.0800000  0  4  6  8 11  9
  -6217833.582 7  -4845065.476 7  20569127.771 0  20569128.580 0
   5652204.094 8   4404315.650 7  21335212.243 0  21335212.511 0
  -9552533.972 7  -7287154.733 6  20565323.086 0  20565327.520 0
 -15538244.839 7 -11893694.333 7  20974598.797 0  20974599.550 0
 88  2 25  6 40 29.0800000  0  4  6  8 11  9
  -6207883.615 7  -4837312.265 8  20571021.194 0  20571022.060 0
   5732920.719 7   4467211.714 7  21350571.807 0  21350571.692 0
  -9557277.160 6  -7290850.721 6  20564421.795 0  20564424.150 0
 -15606287.982 7 -11946714.971 6  20961650.968 0  20961651.569 0
 88  2 25  6 40 59.0800000  0  4  6  8 11  9
  -6197398.879 7  -4829142.347 7  20573017.075 0  20573017.412 0
   5813974.633 7   4530370.610 6  21365996.073 0  21365996.776 0
  -9561505.695 6  -7294145.676 6  20563616.196 0  20563618.543 0
 -15673985.425 7 -11999466.216 7  20948767.592 0  20948768.266 0
 88  2 25  6 41 29.0800000  0  4  6  8 11  9
  -6186378.247 7  -4820554.861 7  20575113.715 0  20575114.584 0
   5895362.409 7   4593789.650 7  21381483.917 0  21381484.216 0
  -9565220.525 6  -7297040.337 6  20562908.791 0  20562913.402 0
 -15741334.570 7 -12051946.057 6  20935952.643 0  20935952.071 0
 88  2 25  6 41 59.0800000  0  4  6  8 11  9
  -6174820.651 7  -4811548.934 7  20577313.563 0  20577314.355 0
   5977081.050 7   4657466.494 6  21397034.554 0  21397035.792 0
  -9568422.940 7  -7299535.715 5  20562300.866 0  20562303.487 0
 -15808332.390 7 -12104152.149 7  20923202.484 0  20923202.009 0
 88  2 25  6 42 29.0800000  0  4  6  8 11  9
  -6162725.012 7  -4802123.773 7  20579615.001 0  20579615.848 0
   6059126.950 7   4721398.374 7  21412646.798 0  21412647.833 0
  -9571113.790 6  -7301632.496 6  20561790.094 0  20561791.014 0
 -15874975.814 7 -12156082.098 6  20910520.800 0  20910522.050 0
 88  2 25  6 42 59.0800000  0  4  6  8 11  9
  -6150090.250 7  -4792278.511 7  20582018.803 0  20582020.629 0
   6141497.018 7   4785582.844 7  21428321.454 0  21428322.345 0
  -9573294.310 6  -7303331.586 6  20561373.346 0  20561375.266 0
 -15941262.377 7 -12207733.971 6  20897906.740 0  20897907.038 0
 88  2 25  6 43 29.0800000  0  4  6  8 11  9
  -6136915.331 7  -4782012.345 7  20584526.437 0  20584527.917 0
   6224187.912 7   4850017.293 7  21444056.389 0  21444058.084 0
  -9574965.688 6  -7304633.939 6  20561055.050 0  20561058.695 0
 -16007188.986 7 -12259105.358 6  20885360.687 0  20885361.426 0
 88  2 25  6 43 59.0800000  0  4  6  8 11  9
  -6123199.162 7  -4771324.421 8  20587136.234 0  20587137.485 0
   6307196.935 7   4914699.643 7  21459853.295 0  21459854.666 0
  -9576128.598 7  -7305540.114 6  20560833.995 0  20560836.604 0
 -16072752.680 7 -12310193.957 6  20872885.676 0  20872884.280 0
 88  2 25  6 44 29.0800000  0  4  6  8 11  9
  -6108940.855 7  -4760214.070 7  20589849.492 0  20589851.203 0
   6390520.434 7   4979627.048 7  21475709.372 0  21475710.097 0
  -9576784.593 7  -7306051.261 6  20560709.844 0  20560711.723 0
 -16137950.707 7 -12360997.619 7  20860477.887 0  20860478.886 0
 88  2 25  6 44 59.0800000  0  4  6  8 11  9
  -6094139.282 6  -4748680.383 6  20592667.461 0  20592667.970 0
   6474155.309 7   5044797.075 7  21491623.421 0  21491624.869 0
  -9576934.754 6  -7306168.267 6  20560680.816 0  20560682.311 0
 -16202779.989 7 -12411513.927 6  20848141.303 0  20848140.974 0
 88  2 25  6 45 29.0800000  0  4  6  8 11  9
  -6078793.683 8  -4736722.778 7  20595586.656 0  20595588.035 0
   6558098.448 7   5110207.314 6  21507598.227 0  21507599.318 0
  -9576580.431 7  -7305892.161 6  20560749.161 0  20560748.607 0
 -16267237.633 7 -12461740.663 7  20835876.084 0  20835875.089 0
 88  2 25  6 45 59.0800000  0  4  6  8 11  9
  -6062902.914 7  -4724340.368 7  20598611.365 0  20598611.487 0
   6642346.701 7   5175855.306 7  21523630.884 0  21523630.666 0
  -9575722.436 6  -7305223.592 6  20560912.255 0  20560914.047 0
 -16331321.207 6 -12511675.910 6  20823680.775 0  20823680.875 0
 88  2 25  6 46 29.0800000  0  4  6  8 11  9
  -6046466.149 7  -4711532.501 7  20601738.785 0  20601739.347 0
   6726897.069 7   5241738.704 7  21539719.963 0  21539720.093 0
  -9574362.187 6  -7304163.655 6  20561170.778 0  20561173.351 0
 -16395027.395 7 -12561317.087 6  20811558.743 0  20811558.518 0
 88  2 25  6 46 59.0800000  0  4  6  8 11  9
  -6029482.479 6  -4698298.488 7  20604969.922 0  20604971.572 0
   6811746.011 8   5307854.771 7  21555866.045 0  21555866.465 0
  -9572501.072 6  -7302713.427 6  20561524.585 0  20561527.251 0
 -16458353.434 8 -12610662.076 7  20799507.531 0  20799508.673 0
 88  2 25  6 47 29.0800000  0  4  6  8 11  9
  -6011951.063 7  -4684637.658 7  20608306.400 0  20608306.678 0
   6896890.399 7   5374201.040 7  21572067.922 0  21572069.123 0
  -9570140.125 6  -7300873.719 6  20561972.392 0  20561975.166 0
 -16521296.384 7 -12659708.529 6  20787529.667 0  20787530.706 0
 88  2 25  6 47 59.0800000  0  4  6  8 11  9
  -5993870.965 7  -4670549.281 7  20611746.279 0  20611748.299 0
   6982326.759 8   5440774.816 6  21588326.131 0  21588327.109 0
  -9567280.739 6  -7298645.621 7  20562518.761 0  20562520.755 0
 -16583853.503 7 -12708454.341 7  20775625.911 0  20775627.062 0
 88  2 25  6 48 29.0800000  0  4  6  8 11  9
  -5975241.409 7  -4656032.745 7  20615292.154 0  20615294.065 0
   7068052.249 8   5507573.908 7  21604639.101 0  21604638.920 0
  -9563924.284 6  -7296030.205 6  20563156.359 0  20563158.590 0
 -16646021.658 7 -12756897.052 7  20763795.339 0  20763796.765 0
 88  2 25  6 48 59.0800000  0  4  6  8 11  9
  -5956061.583 7  -4641087.438 7  20618942.030 0  20618943.371 0
   7154063.607 7   5574595.745 7  21621006.662 0  21621007.339 0
  -9560072.169 6  -7293028.542 6  20563889.027 0  20563891.706 0
 -16707798.269 7 -12805034.672 6  20752039.780 0  20752039.961 0
 88  2 25  6 49 29.0800000  0  4  6  8 11  9
  -5936330.684 7  -4625712.723 7  20622696.623 0  20622696.699 0
   7240357.983 7   5641838.119 7  21637427.662 0  21637429.232 0
  -9555725.380 6  -7289641.438 6  20564715.752 0  20564717.269 0
 -16769180.235 7 -12852864.781 7  20740358.143 0  20740359.700 0
 88  2 25  6 49 59.0800000  0  4  6  8 11  9
  -5916047.915 7  -4609907.971 7  20626554.933 0  20626556.469 0
   7326932.035 7   5709298.421 7  21653902.447 0  21653903.129 0
  -9550885.696 6  -7285870.246 6  20565637.566 0  20565641.116 0
 -16830164.814 7 -12900385.228 7  20728753.980 0  20728754.876 0
 88  2 25  6 50 29.0800000  0  4  6  8 11  9
  -5895212.266 7  -4593672.420 8  20630521.792 0  20630522.393 0
   7413782.599 8   5776974.199 7  21670430.136 0  21670431.410 0
  -9545554.164 7  -7281715.818 6  20566652.406 0  20566652.862 0
 -16890749.064 7 -12947593.738 6  20717225.568 0  20717225.927 0
 88  2 25  6 50 59.0800000  0  4  6  8 11  9
  -5873823.802 7  -4577006.092 7  20634589.610 0  20634592.920 0
   7500906.517 7   5844862.960 7  21687009.097 0  21687009.006 0
  -9539731.986 7  -7277179.039 6  20567761.556 0  20567761.649 0
 -16950930.394 7 -12994488.282 6  20705773.258 0  20705774.733 0
 88  2 25  6 51 29.0800000  0  4  6  8 11  9
  -5851881.352 6  -4559908.088 7  20638765.002 0  20638767.440 0
   7588300.520 7   5912962.177 7  21703639.873 0  21703639.414 0
  -9533420.886 6  -7272261.304 6  20568961.201 0  20568963.410 0
 -17010705.728 7 -13041066.446 6  20694398.818 0  20694397.866 0
 88  2 25  6 51 59.0800000  0  4  6  8 11  9
  -5829384.311 7  -4542377.925 8  20643047.807 0  20643048.599 0
   7675961.706 8   5981269.591 7  21720320.445 0  21720321.884 0
  -9526622.367 6  -7266963.741 7  20570253.955 0  20570257.056 0
 -17070072.205 6 -13087326.046 6  20683102.098 0  20683101.949 0
 88  2 25  6 52 29.0800000  0  4  6  8 11  9
  -5806332.023 7  -4524415.123 7  20647434.380 0  20647436.174 0
   7763886.811 7   6049782.654 7  21737052.878 0  21737053.031 0
  -9519337.380 6  -7261287.123 6  20571640.771 0  20571643.422 0
 -17129027.050 7 -13133264.878 6  20671883.293 0  20671882.702 0
 88  2 25  6 52 59.0800000  0  4  6  8 11  9
  -5782723.808 6  -4506019.113 7  20651927.497 0  20651928.809 0
   7852072.693 7   6118498.932 7  21753834.064 0  21753834.003 0
  -9511567.836 7  -7255232.945 6  20573119.670 0  20573121.619 0
 -17187567.549 7 -13178880.835 7  20660742.303 0  20660743.128 0
 88  2 25  6 53 29.0800000  0  4  6  8 11  9
  -5758559.098 7  -4487189.475 7  20656525.849 0  20656526.155 0
   7940516.030 7   6187415.821 7  21770663.862 0  21770664.245 0
  -9503315.244 7  -7248802.338 6  20574691.348 0  20574693.520 0
 -17245690.668 7 -13224171.589 7  20649682.093 0  20649683.800 0
 88  2 25  6 53 59.0800000  0  4  6  8 11  9
  -5733837.384 7  -4467925.807 7  20661229.514 0  20661231.149 0
   8029213.972 7   6256531.109 7  21787542.903 0  21787543.073 0
  -9494580.993 6  -7241996.436 6  20576353.558 0  20576355.530 0
 -17303393.583 7 -13269134.889 6  20638702.873 0  20638702.526 0
 88  2 25  6 54 29.0800000  0  4  6  8 11  9
  -5708558.050 7  -4448227.636 7  20666039.924 0  20666041.262 0
   8118163.181 7   6325842.163 7  21804468.885 0  21804468.415 0
  -9485366.425 6  -7234816.239 6  20578105.919 0  20578108.136 0
 -17360673.532 6 -13313768.614 6  20627801.339 0  20627802.390 0
 88  2 25  6 54 59.0800000  0  4  6  8 11  9
  -5682720.586 6  -4428094.560 7  20670957.079 0  20670958.817 0
   8207360.831 7   6395346.833 7  21821442.043 0  21821442.634 0
  -9475673.205 6  -7227263.076 7  20579950.400 0  20579952.523 0
 -17417527.731 7 -13358070.602 6  20616982.777 0  20616983.032 0
 88  2 25  6 55 29.0800000  0  4  6  8 11  9
  -5656324.442 7  -4407526.138 7  20675979.467 0  20675980.176 0
   8296803.557 7   6465042.458 7  21838463.041 0  21838462.346 0
  -9465502.855 6  -7219338.134 6  20581885.360 0  20581888.318 0
 -17473953.392 7 -13402038.643 6  20606245.211 0  20606246.371 0
 88  2 25  6 55 59.0800000  0  4  6  8 11  9
  -5629369.286 7  -4386522.143 6  20681109.948 0  20681110.272 0
   8386488.033 7   6534926.458 7  21855529.776 0  21855530.945 0
  -9454856.773 7  -7211042.473 6  20583912.732 0  20583913.288 0
 -17529947.630 7 -13445670.498 6  20595590.066 0  20595590.282 0
 88  2 25  6 56 29.0800000  0  4  6  8 11  9
  -5601854.501 7  -4365082.050 7  20686345.771 0  20686345.894 0
   8476411.443 7   6604996.642 7  21872640.851 0  21872641.639 0
  -9443736.380 7  -7202377.229 6  20586026.860 0  20586030.415 0
 -17585507.568 7 -13488963.956 7  20585017.065 0  20585019.183 0
 88  2 25  6 56 59.0800000  0  4  6  8 11  9
  -5573779.780 7  -4343205.652 7  20691687.424 0  20691688.763 0
   8566570.812 7   6675250.691 7  21889798.006 0  21889799.394 0
  -9432143.589 6  -7193343.883 6  20588233.895 0  20588236.519 0
 -17640630.591 7 -13531916.961 7  20574528.023 0  20574529.000 0
 88  2 25  6 57 29.0800000  0  4  6  8 11  9
  -5545144.580 7  -4320892.523 6  20697136.429 0  20697137.851 0
   8656962.939 7   6745686.114 7  21906999.229 0  21907000.156 0
  -9420080.159 6  -7183943.800 6  20590528.521 0  20590530.681 0
 -17695313.914 7 -13574527.346 7  20564122.107 0  20564122.142 0
 88  2 25  6 57 59.0800000  0  4  6  8 11  9
  -5515948.566 7  -4298142.391 7  20702692.030 0  20702694.323 0
   8747584.623 7   6816300.411 7  21924243.174 0  21924244.834 0
  -9407547.380 6  -7174177.985 6  20592914.561 0  20592916.050 0
 -17749554.708 7 -13616792.890 6  20553799.860 0  20553801.426 0
 88  2 25  6 58 29.0800000  0  4  6  8 11  9
  -5486191.417 7  -4274955.002 6  20708354.352 0  20708356.537 0
   8838433.067 7   6887091.405 7  21941531.626 0  21941531.012 0
  -9394546.960 7  -7164047.802 6  20595387.729 0  20595390.336 0
 -17803350.193 7 -13658711.451 6  20543562.549 0  20543564.012 0
 88  2 25  6 58 59.0800000  0  4  6  8 11  9
  -5455872.781 7  -4251330.102 7  20714124.768 0  20714125.303 0
   8929505.184 7   6958056.687 7  21958861.438 0  21958862.821 0
  -9381080.643 7  -7153554.556 7  20597950.430 0  20597950.813 0
 -17856697.565 7 -13700280.830 6  20533412.000 0  20533411.806 0
 88  2 25  6 59 29.0800000  0  4  6  8 11  9
  -5424992.436 7  -4227267.500 7  20720000.157 0  20720001.851 0
   9020797.861 7   7029193.842 7  21976234.400 0  21976235.869 0
  -9367149.999 6  -7142699.535 6  20600602.445 0  20600604.088 0
 -17909594.197 8 -13741498.997 6  20523346.864 0  20523347.362 0
 88  2 25  6 59 59.0800000  0  4  6  8 11  9
  -5393549.955 7  -4202766.869 7  20725984.546 0  20725985.362 0
   9112307.831 7   7100500.319 7  21993649.194 0  21993648.515 0
  -9352756.593 7  -7131483.869 6  20603340.773 0  20603342.360 0
 -17962037.026 7 -13782363.544 6  20513366.571 0  20513366.484 0
 88  2 25  7  0 29.0800000  0  4  6  8 11  9
  -5361545.047 7  -4177827.997 7  20732073.346 0  20732075.196 0
   9204032.132 7   7171973.813 7  22011101.817 0  22011103.341 0
  -9337902.314 6  -7119909.089 6  20606168.408 0  20606168.959 0
 -18014023.837 7 -13822872.748 7  20503472.673 0  20503473.108 0
 88  2 25  7  0 59.0800000  0  4  6  8 11  9
  -5328977.744 7  -4152450.887 7  20738271.661 0  20738272.971 0
   9295968.134 7   7243612.247 7  22028597.289 0  22028598.116 0
  -9322588.893 6  -7107976.560 6  20609082.442 0  20609083.636 0
 -18065551.398 7 -13863024.094 6  20493665.648 0  20493668.330 0
 88  2 25  7  1 29.0800000  0  4  6  8 11  9
  -5295847.640 7  -4126635.220 7  20744576.554 0  20744577.504 0
   9388112.396 8   7315412.957 7  22046132.586 0  22046132.517 0
  -9306817.688 7  -7095687.298 6  20612082.899 0  20612083.727 0
 -18116617.280 7 -13902815.698 7  20483949.813 0  20483950.758 0
 88  2 25  7  1 59.0800000  0  4  6  8 11  9
  -5262154.512 7  -4100380.849 7  20750987.734 0  20750989.227 0
   9480461.733 8   7387373.488 7  22063705.488 0  22063706.040 0
  -9290590.819 6  -7083042.991 6  20615170.966 0  20615172.136 0
 -18167218.708 7 -13942245.368 6  20474320.694 0  20474321.530 0
 88  2 25  7  2 29.0800000  0  4  6  8 11  9
  -5227898.375 7  -4073687.756 7  20757506.837 0  20757507.338 0
   9573013.394 7   7459491.655 6  22081317.778 0  22081318.033 0
  -9273909.690 6  -7070044.705 6  20618345.244 0  20618347.171 0
 -18217352.958 7 -13981311.018 6  20464780.312 0  20464781.042 0
 88  2 25  7  2 59.0800000  0  4  6  8 11  9
  -5193078.890 7  -4046555.700 6  20764132.310 0  20764134.633 0
   9665764.708 7   7531765.400 7  22098967.336 0  22098968.230 0
  -9256776.111 7  -7056693.862 6  20621605.131 0  20621607.569 0
 -18267017.279 6 -14020010.504 7  20455331.278 0  20455330.056 0
 88  2 25  7  3 29.0800000  0  4  6  8 11  9
  -5157695.989 7  -4018984.617 7  20770864.900 0  20770866.105 0
   9758712.303 7   7604192.102 7  22116655.791 0  22116655.766 0
  -9239191.990 7  -7042991.941 6  20624951.935 0  20624952.856 0
 -18316208.874 7 -14058341.607 6  20445969.572 0  20445970.592 0
 88  2 25  7  3 59.0800000  0  4  6  8 11  9
  -5121749.767 6  -3990974.577 7  20777706.417 0  20777707.796 0
   9851853.021 7   7676769.280 7  22134379.409 0  22134379.519 0
  -9221159.241 7  -7028940.434 6  20628382.537 0  20628385.694 0
 -18364925.518 7 -14096302.622 7  20436699.007 0  20436698.412 0
 88  2 25  7  4 29.0800000  0  4  6  8 11  9
  -5085240.029 7  -3962525.436 7  20784653.792 0  20784653.469 0
   9945184.017 7   7749494.716 7  22152138.985 0  22152138.845 0
  -9202679.429 7  -7014540.581 6  20631900.293 0  20631901.310 0
 -18413164.226 7 -14133891.222 6  20427519.295 0  20427519.827 0
 88  2 25  7  4 59.0800000  0  4  6  8 11  9
  -5048166.781 7  -3933637.200 7  20791708.860 0  20791709.638 0
  10038702.621 7   7822366.353 7  22169935.314 0  22169935.152 0
  -9183754.239 7  -6999793.678 7  20635501.071 0  20635501.835 0
 -18460922.538 7 -14171105.481 6  20418431.272 0  20418432.329 0
 88  2 25  7  5 29.0800000  0  4  6  8 11  9
  -5010529.903 7  -3904309.765 7  20798871.185 0  20798870.704 0
  10132405.598 7   7895381.661 7  22187765.724 0  22187767.522 0
  -9164385.742 7  -6984701.340 6  20639186.837 0  20639188.436 0
 -18508197.558 7 -14207943.165 7  20409435.486 0  20409436.186 0
 88  2 25  7  5 59.0800000  0  4  6  8 11  9
  -4972329.462 7  -3874543.199 7  20806140.888 0  20806141.207 0
  10226289.896 7   7968538.261 7  22205631.003 0  22205632.755 0
  -9144575.912 7  -6969265.103 7  20642955.857 0  20642959.182 0
 -18554986.799 7 -14244402.310 6  20400532.094 0  20400531.164 0
 88  2 25  7  6 29.0800000  0  4  6  8 11  9
  -4933565.547 7  -3844337.560 7  20813515.792 0  20813516.712 0
  10320352.669 7   8041833.913 7  22223530.756 0  22223531.564 0
  -9124326.137 7  -6953486.048 6  20646809.097 0  20646810.500 0
 -18601287.680 7 -14280480.928 6  20391719.978 0  20391720.491 0
 88  2 25  7  6 59.0800000  0  4  6  8 11  9
  -4894238.141 7  -3813692.830 7  20820999.788 0  20821000.852 0
  10414590.975 7   8115266.367 7  22241464.074 0  22241465.590 0
  -9103638.445 7  -6937365.758 6  20650746.058 0  20650747.692 0
 -18647097.538 7 -14316176.914 7  20383004.243 0  20383003.778 0
 88  2 25  7  7 29.0800000  0  4  6  8 11  9
  -4854347.349 7  -3782609.103 7  20828591.423 0  20828590.629 0
  10509001.900 7   8188833.326 8  22259430.679 0  22259431.267 0
  -9082514.865 7  -6920905.832 6  20654766.529 0  20654767.934 0
 -18692413.800 7 -14351488.288 6  20374379.926 0  20374381.120 0
 88  2 25  7  7 59.0800000  0  4  6  8 11  9
  -4813893.397 7  -3751086.556 7  20836287.995 0  20836289.303 0
  10603582.552 7   8262532.542 7  22277428.838 0  22277429.169 0
  -9060957.075 7  -6904107.540 6  20658868.854 0  20658868.938 0
 -18737233.818 7 -14386412.988 6  20365850.500 0  20365852.442 0
 88  2 25  7  8 29.0800000  0  4  6  8 11  9
  -4772876.269 7  -3719125.164 7  20844093.898 0  20844095.861 0
  10698330.060 8   8336361.770 7  22295459.041 0  22295457.797 0
  -9038966.969 7  -6886972.386 7  20663054.127 0  20663054.160 0
 -18781555.196 7 -14420949.115 6  20357417.095 0  20357417.992 0
 88  2 25  7  8 59.0800000  0  4  6  8 11  9
  -4731296.196 7  -3686725.126 7  20852006.993 0  20852008.504 0
  10793241.595 8   8410318.814 7  22313519.379 0  22313519.788 0
  -9016546.686 7  -6869502.039 6  20667319.881 0  20667320.439 0
 -18825375.173 7 -14455094.537 6  20349078.665 0  20349077.069 0
 88  2 25  7  9 29.0800000  0  4  6  8 11  9
  -4689153.467 7  -3653886.639 7  20860026.014 0  20860027.565 0
  10888313.769 7   8484401.026 7  22331610.766 0  22331611.443 0
  -8993698.146 7  -6851697.974 7  20671667.249 0  20671669.610 0
 -18868691.214 7 -14488847.316 7  20340834.785 0  20340836.116 0
 88  2 25  7  9 59.0800000  0  4  6  8 11  9
  -4646448.261 6  -3620609.863 7  20868152.921 0  20868154.849 0
  10983543.970 7   8558606.371 7  22349732.838 0  22349732.661 0
  -8970423.061 7  -6833561.538 6  20676097.261 0  20676097.452 0
 -18911501.005 7 -14522205.598 6  20332689.561 0  20332690.378 0
 88  2 25  7 10 29.0800000  0  4  6  8 11  9
  -4603180.698 7  -3586894.887 7  20876386.464 0  20876387.904 0
  11078929.480 7   8632932.743 7  22367883.999 0  22367885.112 0
  -8946723.105 7  -6815094.041 6  20680606.142 0  20680607.699 0
 -18953801.776 6 -14555167.238 7  20324639.623 0  20324640.176 0
 88  2 25  7 10 59.0800000  0  4  6  8 11  9
  -4559351.081 7  -3552741.953 7  20884726.610 0  20884727.604 0
  11174467.584 7   8707378.025 7  22386064.288 0  22386063.878 0
  -8922600.584 7  -6796297.284 7  20685197.690 0  20685199.387 0
 -18995591.235 7 -14587730.452 6  20316688.104 0  20316687.545 0
 88  2 25  7 11 29.0800000  0  4  6  8 11  9
  -4514959.623 7  -3518151.210 7  20893174.450 0  20893174.914 0
  11270155.293 7   8781939.876 7  22404272.281 0  22404273.025 0
  -8898057.441 7  -6777172.731 7  20689867.667 0  20689868.357 0
 -19036866.749 7 -14619893.195 6  20308833.295 0  20308832.647 0
 88  2 25  7 11 59.0800000  0  4  6  8 11  9
  -4470006.856 7  -3483123.081 7  20901727.830 0  20901729.136 0
  11365989.393 7   8856615.793 7  22422509.044 0  22422510.412 0
  -8873095.747 7  -6757722.063 7  20694617.690 0  20694618.798 0
 -19077625.714 7 -14651653.416 7  20301075.507 0  20301077.856 0
 88  2 25  7 12 29.0800000  0  4  6  8 11  9
  -4424492.952 7  -3447657.715 7  20910390.045 0  20910389.934 0
  11461967.439 7   8931403.889 7  22440773.024 0  22440774.859 0
  -8847717.412 7  -6737946.725 6  20699447.283 0  20699447.715 0
 -19117866.122 8 -14683009.583 7  20293419.081 0  20293420.661 0
 88  2 25  7 12 59.0800000  0  4  6  8 11  9
  -4378418.260 7  -3411755.356 7  20919157.116 0  20919157.884 0
  11558086.631 7   9006301.954 7  22459064.230 0  22459065.371 0
  -8821924.390 7  -6717848.269 7  20704355.422 0  20704358.103 0
 -19157584.976 7 -14713959.345 6  20285860.944 0  20285861.390 0
 88  2 25  7 13 29.0800000  0  4  6  8 11  9
  -4331783.181 7  -3375416.351 7  20928031.113 0  20928032.966 0
  11654344.095 7   9081307.773 7  22477380.978 0  22477382.488 0
  -8795718.435 8  -6697428.047 7  20709342.533 0  20709343.524 0
 -19196780.075 7 -14744500.979 7  20278402.572 0  20278402.989 0
 88  2 25  7 13 59.0800000  0  4  6  8 11  9
  -4284588.164 7  -3338641.017 7  20937012.656 0  20937012.883 0
  11750737.083 7   9156419.195 7  22495723.889 0  22495725.769 0
  -8769101.770 6  -6676687.778 6  20714406.782 0  20714409.019 0
 -19235448.916 7 -14774632.542 6  20271043.134 0  20271044.264 0
 88  2 25  7 14 29.0800000  0  4  6  8 11  9
  -4236833.580 7  -3301429.669 6  20946101.195 0  20946101.775 0
  11847262.911 7   9231634.107 7  22514092.545 0  22514094.314 0
  -8742076.237 7  -6655628.917 6  20719549.227 0  20719551.519 0
 -19273589.217 7 -14804352.259 6  20263785.829 0  20263787.069 0
 88  2 25  7 14 59.0800000  0  4  6  8 11  9
  -4188519.867 7  -3263782.633 7  20955294.140 0  20955296.134 0
  11943918.644 7   9306950.267 7  22532486.247 0  22532486.303 0
  -8714643.753 7  -6634252.953 6  20724770.036 0  20724770.573 0
 -19311198.448 6 -14833658.145 6  20256628.203 0  20256630.267 0
 88  2 25  7 15 29.0800000  0  4  6  8 11  9
  -4139647.476 7  -3225700.262 7  20964593.860 0  20964595.683 0
  12040701.489 7   9382365.467 8  22550903.021 0  22550903.964 0
  -8686806.610 7  -6612561.664 7  20730066.929 0  20730069.079 0
 -19348274.419 7 -14862548.502 6  20249575.209 0  20249574.459 0
 88  2 25  7 15 59.0800000  0  4  6  8 11  9
  -4090217.129 7  -3187183.103 7  20974000.496 0  20974001.280 0
  12137608.670 7   9457877.565 7  22569343.914 0  22569344.817 0
  -8658566.746 7  -6590556.579 6  20735440.564 0  20735443.807 0
 -19384814.478 7 -14891021.282 6  20242620.764 0  20242620.258 0
 88  2 25  7 16 29.0800000  0  4  6  8 11  9
  -4040229.185 7  -3148231.462 8  20983512.713 0  20983513.447 0
  12234637.366 7   9533484.336 7  22587807.003 0  22587808.458 0
  -8629926.310 7  -6568239.356 7  20740890.781 0  20740892.862 0
 -19420816.631 7 -14919074.926 6  20235768.600 0  20235770.435 0
 88  2 25  7 16 59.0800000  0  4  6  8 11  9
  -3989684.219 8  -3108845.788 6  20993131.927 0  20993132.034 0
  12331784.662 7   9609183.514 7  22606293.690 0  22606295.641 0
  -8600887.140 7  -6545611.422 6  20746417.214 0  20746419.118 0
 -19456278.522 7 -14946707.571 6  20229021.098 0  20229020.933 0
 88  2 25  7 17 29.0800000  0  4  6  8 11  9
  -3938582.801 7  -3069026.506 7  21002855.596 0  21002856.666 0
  12429048.397 7   9684973.440 7  22624802.483 0  22624804.079 0
  -8571451.400 7  -6522674.491 7  20752018.705 0  20752020.944 0
 -19491197.697 7 -14973917.310 6  20222376.347 0  20222378.460 0
 88  2 25  7 17 59.0800000  0  4  6  8 11  9
  -3886925.566 7  -3028774.131 7  21012686.075 0  21012686.310 0
  12526425.693 7   9760851.846 8  22643333.082 0  22643333.771 0
  -8541621.042 7  -6499430.033 7  20757695.443 0  20757696.318 0
 -19525571.680 6 -15000702.219 6  20215834.974 0  20215836.086 0
 88  2 25  7 18 29.0800000  0  4  6  8 11  9
  -3834713.257 7  -2988089.224 7  21022621.980 0  21022623.103 0
  12623913.583 7   9836816.437 7  22661885.220 0  22661885.238 0
  -8511398.312 7  -6475879.859 7  20763445.893 0  20763448.133 0
 -19559398.630 7 -15027060.889 6  20209396.639 0  20209399.007 0
 88  2 25  7 18 59.0800000  0  4  6  8 11  9
  -3781946.343 7  -2946972.148 7  21032662.457 0  21032663.753 0
  12721509.766 7   9912865.417 8  22680456.728 0  22680457.469 0
  -8480785.620 7  -6452025.812 7  20769271.995 0  20769273.292 0
 -19592675.954 7 -15052991.250 7  20203065.676 0  20203066.129 0
 88  2 25  7 19 29.0800000  0  4  6  8 11  9
  -3728625.661 7  -2905423.567 7  21042808.853 0  21042810.144 0
  12819211.110 7   9988996.336 7  22699048.693 0  22699048.808 0
  -8449784.733 7  -6427869.264 7  20775171.000 0  20775173.041 0
 -19625401.459 7 -15078491.642 6  20196837.970 0  20196838.940 0
 88  2 25  7 19 59.0800000  0  4  6  8 11  9
  -3674751.801 7  -2863443.941 6  21053059.991 0  21053062.075 0
  12917015.096 7  10065207.222 7  22717659.491 0  22717660.997 0
  -8418397.506 7  -6403411.694 7  20781143.617 0  20781145.710 0
 -19657573.037 6 -15103560.404 6  20190716.609 0  20190715.644 0
 88  2 25  7 20 29.0800000  0  4  6  8 11  9
  -3620325.649 7  -2821033.970 7  21063417.991 0  21063419.200 0
  13014919.529 7  10141496.391 7  22736290.965 0  22736291.434 0
  -8386626.654 7  -6378655.184 7  20787189.102 0  20787192.339 0
 -19689188.229 7 -15128195.622 6  20184699.231 0  20184700.665 0
 88  2 25  7 20 59.0800000  0  4  6  8 11  9
  -3565347.877 7  -2778194.152 6  21073880.559 0  21073880.768 0
  13112921.355 7  10217861.444 7  22754940.557 0  22754940.404 0
  -8354474.050 7  -6353601.186 7  20793307.953 0  20793309.645 0
 -19720245.174 6 -15152395.837 6  20178791.385 0  20178791.665 0
 88  2 25  7 21 29.0800000  0  4  6  8 11  9
  -3509819.264 7  -2734925.113 7  21084446.274 0  21084447.292 0
  13211018.027 7  10294300.393 7  22773607.437 0  22773607.684 0
  -8321941.618 6  -6328251.253 6  20799498.313 0  20799500.832 0
 -19750741.681 6 -15176159.353 6  20172988.077 0  20172988.094 0
 88  2 25  7 21 59.0800000  0  4  6  8 11  9
  -3453740.608 7  -2691227.466 6  21095117.988 0  21095118.016 0
  13309206.903 7  10370811.192 7  22792291.248 0  22792293.047 0
  -8289031.389 7  -6302606.910 7  20805760.353 0  20805762.695 0
 -19780675.438 6 -15199484.349 7  20167292.635 0  20167291.508 0
 88  2 25  7 22 29.0800000  0  4  6  8 11  9
  -3397112.712 7  -2647101.835 7  21105894.213 0  21105893.876 0
  13407484.989 7  10447391.515 7  22810993.097 0  22810994.213 0
  -8255745.788 7  -6276670.074 7  20812094.046 0  20812096.579 0
 -19810044.256 7 -15222369.143 6  20161702.963 0  20161701.763 0
 88  2 25  7 22 59.0800000  0  4  6  8 11  9
  -3339936.342 7  -2602548.834 7  21116773.496 0  21116774.672 0
  13505850.063 7  10524039.637 7  22829711.601 0  22829712.366 0
  -8222086.732 6  -6250442.245 7  20818499.442 0  20818502.364 0
 -19838846.173 6 -15244812.187 6  20156221.831 0  20156221.681 0
 88  2 25  7 23 29.0800000  0  4  6  8 11  9
  -3282212.519 7  -2557569.229 7  21127757.948 0  21127758.314 0
  13604299.201 7  10600753.246 7  22848445.466 0  22848446.943 0
  -8188056.493 7  -6223925.166 7  20824975.588 0  20824977.097 0
 -19867078.852 7 -15266811.671 6  20150850.798 0  20150849.246 0
 88  2 25  7 23 59.0800000  0  4  6  8 11  9
  -3223942.125 7  -2512163.729 6  21138847.209 0  21138848.057 0
  13702829.848 7  10677530.366 7  22867194.815 0  22867195.737 0
  -8153657.454 7  -6197120.717 6  20831521.131 0  20831523.890 0
 -19894740.668 6 -15288366.352 6  20145584.540 0  20145585.732 0
 88  2 25  7 24 29.0800000  0  4  6 13 11  9
  -3165126.038 7  -2466333.017 7  21150039.397 0  21150040.133 0
         -.216 8          .366 7  21405958.524 0          .000 0
  -8118891.558 7  -6170030.411 7  20838136.825 0  20838138.882 0
 -19921829.212 7 -15309474.308 6  20140428.848 0  20140431.839 0
 88  2 25  7 24 59.0800000  0  4  6 13 11  9
  -3105765.212 7  -2420077.833 6  21161334.767 0  21161337.314 0
    -55578.551 7  55646992.101 7  21395403.375 0  21395404.407 0
  -8083761.204 7  -6142656.125 7  20844821.783 0  20844824.830 0
 -19948342.762 7 -15330134.225 6  20135384.629 0  20135385.762 0
 88  2 25  7 25 29.0800000  0  4  6 13 11  9
  -3045860.664 7  -2373398.978 7  21172735.277 0  21172736.007 0
   -110709.168 7  55604033.193 6  21384912.819 0  21384914.974 0
  -8048267.991 6  -6114999.072 7  20851576.368 0  20851580.263 0
 -19974278.898 6 -15350344.173 6  20130449.476 0  20130449.596 0
 88  2 25  7 25 59.0800000  0  4  6 13 11  9
  -2985413.263 7  -2326297.105 6  21184237.581 0  21184239.262 0
   -165392.813 7  55561422.574 6  21374506.650 0  21374508.267 0
  -8012414.242 7  -6087061.077 7  20858398.041 0  20858401.346 0
 -19999635.849 7 -15370102.854 6  20125623.661 0  20125625.295 0
 88  2 25  7 26 29.0800000  0  4  6 13 11  9
  -2924424.146 8  -2278773.119 7  21195843.744 0  21195844.187 0
   -219629.278 7  55519160.402 7  21364184.667 0  21364188.195 0
  -7976202.498 7  -6058844.129 7  20865289.970 0  20865291.955 0
 -20024411.662 7 -15389408.689 5  20120908.203 0  20120910.881 0
 88  2 25  7 26 59.0800000  0  4  6 13 11  9
  -2862894.391 7  -2230827.859 6  21207553.070 0  21207551.889 0
   -273418.749 7  55477246.543 6  21353949.419 0  21353952.508 0
  -7939634.656 7  -6030349.703 7  20872248.100 0  20872250.057 0
 -20048604.266 7 -15408260.081 6  20116305.381 0  20116306.001 0
 88  2 25  7 27 29.0800000  0  4  6 13 11  9
  -2800825.081 7  -2182462.163 6  21219363.367 0  21219363.773 0
   -326760.864 7  55435681.274 6  21343798.933 0  21343801.781 0
  -7902712.975 7  -6001579.576 6  20879274.321 0  20879276.032 0
 -20072211.839 6 -15426655.584 7  20111813.149 0  20111812.825 0
 88  2 25  7 27 59.0800000  0  4  6 13 11  9
  -2738217.067 7  -2133676.712 7  21231276.550 0  21231278.084 0
   -379655.481 7  55394464.712 6  21333733.380 0  21333736.353 0
  -7865439.590 7  -5972535.372 7  20886367.434 0  20886368.646 0
 -20095232.616 7 -15444593.853 6  20107431.685 0  20107432.694 0
 88  2 25  7 28 29.0800000  0  4  6 13 11  9
  -2675071.751 7  -2084472.566 7  21243294.811 0  21243294.728 0
   -432102.271 7  55353597.098 7  21323753.564 0  21323753.998 0
  -7827816.812 7  -5943218.918 7  20893527.275 0  20893529.790 0
 -20117664.436 7 -15462073.205 6  20103163.466 0  20103163.661 0
 88  2 25  7 28 59.0800000  0  4  6 13 11  9
  -2611390.161 6  -2034850.566 7  21255411.896 0  21255412.030 0
   -484101.101 7  55313078.545 6  21313857.623 0  21313859.249 0
  -7789847.145 7  -5913632.171 6  20900752.872 0  20900754.118 0
 -20139505.535 7 -15479092.244 6  20099008.975 0  20099007.554 0
 88  2 25  7 29 29.0800000  0  4  6 13 11  9
  -2547173.380 8  -1984811.525 6  21267632.753 0  21267632.613 0
   -535652.094 8  55272908.955 7  21304048.312 0  21304049.537 0
  -7751532.421 7  -5883776.534 7  20908043.622 0  20908045.362 0
 -20160754.124 7 -15495649.597 6  20094963.780 0  20094965.784 0
 88  2 25  7 29 59.0800000  0  4  6 13 11  9
  -2482422.535 7  -1934356.324 6  21279953.516 0  21279955.718 0
   -586755.309 7  55233088.267 7  21294323.559 0  21294325.181 0
  -7712875.057 7  -5853653.926 6  20915399.498 0  20915401.621 0
 -20181408.383 6 -15511743.824 5  20091033.793 0  20091034.314 0
 88  2 25  7 30 29.0800000  0  4  6 13 11  9
  -2417139.042 7  -1883486.094 7  21292376.672 0  21292377.863 0
   -637410.088 8  55193617.025 6  21284684.760 0  21284685.918 0
  -7673876.952 7  -5823265.778 6  20922821.873 0  20922822.637 0
 -20201466.333 7 -15527373.402 6  20087217.866 0  20087217.115 0
 88  2 25  7 30 59.0800000  0  4  6 13 11  9
  -2351324.067 7  -1832201.694 7  21304900.485 0  21304902.029 0
   -687616.383 7  55154495.255 6  21275130.137 0  21275132.190 0
  -7634540.357 6  -5792613.884 7  20930306.798 0  20930307.020 0
 -20220926.385 6 -15542537.095 6  20083514.147 0  20083513.287 0
 88  2 25  7 31 29.0800000  0  4  6 13 11  9
  -2284978.807 7  -1780504.103 7  21317526.088 0  21317526.706 0
   -737374.445 8  55115722.758 6  21265661.821 0  21265664.434 0
  -7594867.733 7  -5761700.151 7  20937856.454 0  20937857.586 0
 -20239786.808 7 -15557233.520 6  20079925.058 0  20079924.528 0
 88  2 25  7 31 59.0800000  0  4  6 13 11  9
  -2218104.437 7  -1728394.215 7  21330251.141 0  21330252.591 0
   -786684.017 8  55077299.728 6  21256278.763 0  21256279.958 0
  -7554861.047 7  -5730526.119 6  20945468.263 0  20945472.458 0
 -20258045.793 6 -15571461.304 6  20076449.703 0  20076449.270 0
 88  2 25  7 32 29.0800000  0  4  6 13 11  9
  -2150702.616 7  -1675873.319 7  21343077.416 0  21343078.266 0
   -835545.139 7  55039226.149 7  21246981.050 0  21246981.803 0
  -7514522.486 7  -5699093.474 7  20953145.159 0  20953145.968 0
 -20275701.666 6 -15585219.143 6  20073089.942 0  20073091.415 0
 88  2 25  7 32 59.0800000  0  4  6 13 11  9
  -2082774.250 7  -1622942.134 7  21356004.090 0  21356005.638 0
   -883957.946 7  55001501.893 6  21237767.476 0  21237770.619 0
  -7473854.484 7  -5667404.107 7  20960884.369 0  20960884.620 0
 -20292752.715 6 -15598505.678 6  20069845.758 0  20069845.003 0
 88  2 25  7 33 29.0800000  0  4  6 13 11  9
  -2014320.830 7  -1569601.818 7  21369030.980 0  21369031.512 0
   -931922.587 6  54964126.861 6  21228639.579 0  21228642.861 0
  -7432859.086 7  -5635459.648 6  20968684.696 0  20968687.514 0
 -20309197.222 6 -15611319.579 5  20066716.846 0  20066717.172 0
 88  2 25  7 33 59.0800000  0  4  6 13 11  9
  -1945343.728 7  -1515853.428 7  21382156.175 0  21382157.127 0
   -979438.837 7  54927101.231 7  21219597.632 0  21219599.706 0
  -7391538.780 7  -5603262.010 7  20976548.073 0  20976550.656 0
 -20325033.842 6 -15623659.808 5  20063703.435 0  20063703.500 0
 88  2 25  7 34 29.0800000  0  4  6 13 11  9
  -1875844.396 7  -1461698.114 6  21395382.252 0  21395383.933 0
  -1026506.992 7  54890424.768 7  21210642.043 0  21210645.827 0
  -7349895.833 7  -5570812.961 7  20984472.537 0  20984474.263 0
 -20340260.685 6 -15635524.878 6  20060805.460 0  20060804.772 0
 88  2 25  7 34 59.0800000  0  4  6 13 11  9
  -1805824.082 7  -1407136.838 6  21408706.519 0  21408707.695 0
  -1073127.004 8  54854097.497 6  21201769.666 0  21201772.147 0
  -7307932.475 7  -5538114.235 7  20992458.078 0  20992459.897 0
 -20354876.243 6 -15646913.629 6  20058022.754 0  20058024.371 0
 88  2 25  7 35 29.0800000  0  4  6 13 11  9
  -1735284.384 7  -1352170.852 7  21422129.575 0  21422131.517 0
  -1119298.747 6  54818119.529 7  21192983.870 0  21192985.567 0
  -7265650.727 7  -5505167.416 6  21000502.786 0  21000504.766 0
 -20368879.174 7 -15657825.000 6  20055358.787 0  20055358.354 0
 88  2 25  7 35 59.0800000  0  4  6 13 11  9
  -1664226.869 8  -1296801.369 7  21435651.136 0  21435652.227 0
  -1165022.959 7  54782490.287 6  21184283.029 0  21184284.158 0
  -7223053.193 7  -5471974.541 6  21008610.091 0  21008611.787 0
 -20382267.704 6 -15668257.631 6  20052812.319 0  20052812.177 0
 88  2 25  7 36 29.0800000  0  4  6 13 11  9
  -1592652.682 7  -1241029.270 7  21449272.403 0  21449271.807 0
  -1210299.655 7  54747209.754 7  21175667.296 0  21175668.703 0
  -7180142.017 7  -5438537.249 7  21016774.971 0  21016777.901 0
 -20395040.319 6 -15678210.322 6  20050381.544 0  20050381.327 0
 88  2 25  7 36 59.0800000  0  4  6 13 11  9
  -1520563.529 7  -1184855.929 7  21462989.596 0  21462990.359 0
  -1255128.428 7  54712278.252 6  21167135.030 0  21167137.337 0
  -7136919.016 6  -5404856.992 7  21025000.010 0  21025001.954 0
 -20407195.366 6 -15687681.784 5  20048068.667 0  20048069.000 0
 88  2 25  7 37 29.0800000  0  4  6 13 11  9
  -1447960.861 8  -1128282.421 7  21476805.700 0  21476806.406 0
  -1299509.765 7  54677695.418 6  21158690.686 0  21158692.050 0
  -7093387.079 7  -5370936.001 7  21033284.110 0  21033285.678 0
 -20418731.826 6 -15696671.236 6  20045871.931 0  20045873.157 0
 88  2 25  7 37 59.0800000  0  4  6 13 11  9
  -1374846.098 7  -1071309.892 6  21490718.617 0  21490718.836 0
  -1343443.821 7  54643461.119 6  21150330.365 0  21150331.536 0
  -7049548.127 7  -5336775.784 7  21041626.283 0  21041628.343 0
 -20429647.989 6 -15705177.340 6  20043795.247 0  20043794.609 0
 88  2 25  7 38 29.0800000  0  4  6 13 11  9
  -1301220.974 7  -1013939.680 6  21504728.894 0  21504729.855 0
  -1386930.946 7  54609575.065 6  21142054.100 0  21142057.332 0
  -7005404.137 6  -5302377.876 7  21050027.050 0  21050028.166 0
 -20439942.479 6 -15713199.019 5  20041835.367 0  20041836.614 0
 88  2 25  7 38 59.0800000  0  4  6 13 11  9
  -1227087.113 7   -956173.041 7  21518836.503 0  21518837.194 0
  -1429971.206 7  54576037.225 6  21133865.074 0  21133866.741 0
  -6960957.487 7  -5267744.112 7  21058486.187 0  21058486.879 0
 -20449613.898 6 -15720735.213 5  20039995.912 0  20039996.441 0
 88  2 25  7 39 29.0800000  0  4  6 13 11  9
  -1152445.898 8   -898011.061 7  21533040.752 0  21533041.502 0
  -1472564.892 7  54542847.362 7  21125758.583 0  21125761.052 0
  -6916210.473 7  -5232876.308 7  21067000.140 0  21067001.484 0
 -20458661.044 6 -15727784.923 6  20038273.459 0  20038275.395 0
 88  2 25  7 39 59.0800000  0  4  6 13 11  9
  -1077299.328 7   -839455.310 7  21547339.762 0  21547341.342 0
  -1514712.233 7  54510005.296 6  21117738.843 0  21117740.313 0
  -6871165.405 7  -5197776.260 7  21075570.971 0  21075573.452 0
 -20467082.328 6 -15734346.967 6  20036671.226 0  20036672.325 0
 88  2 25  7 40 29.0800000  0  4  6 13 11  9
  -1001648.589 7   -780506.679 7  21561735.416 0  21561736.408 0
  -1556413.932 8  54477510.498 6  21109803.264 0  21109805.263 0
  -6825824.692 7  -5162445.833 7  21084199.780 0  21084202.381 0
 -20474876.528 6 -15740420.360 6  20035188.861 0  20035188.004 0
 88  2 25  7 40 59.0800000  0  4  6 13 11  9
   -925495.557 8   -721166.666 7  21576227.108 0  21576228.012 0
  -1597669.921 7  54445363.005 6  21101952.564 0  21101954.504 0
  -6780190.591 7  -5126886.793 7  21092883.459 0  21092885.251 0
 -20482042.578 6 -15746004.301 5  20033824.711 0  20033824.954 0
 88  2 25  7 41 29.0800000  0  4  6 13 11  9
   -848841.955 7   -661436.595 7  21590813.903 0  21590814.977 0
  -1638480.686 7  54413562.425 6  21094185.354 0  21094187.894 0
  -6734265.257 7  -5091100.824 7  21101623.180 0  21101624.522 0
 -20488579.220 6 -15751097.791 5  20032581.599 0  20032581.024 0
 88  2 25  7 41 59.0800000  0  4  6 13 11  9
   -771689.428 8   -601317.751 7  21605496.024 0  21605495.814 0
  -1678846.083 7  54382108.868 7  21086505.060 0  21086507.957 0
  -6688050.755 7  -5055089.529 7  21110417.753 0  21110419.581 0
 -20494485.007 6 -15755699.714 6  20031457.484 0  20031456.921 0
 88  2 25  7 42 29.0800000  0  4  6 13 11  9
   -694039.776 8   -540811.533 7  21620272.644 0  21620272.649 0
  -1718766.764 7  54351001.875 6  21078908.634 0  21078910.793 0
  -6641549.520 7  -5018854.803 7  21119266.583 0  21119268.237 0
 -20499758.784 7 -15759809.152 6  20030453.401 0  20030454.969 0
 88  2 25  7 42 59.0800000  0  4  6 13 11  9
   -615894.642 8   -479919.224 6  21635142.475 0  21635143.839 0
  -1758242.953 7  54320241.247 7  21071396.102 0  21071398.331 0
  -6594764.004 7  -4982398.553 7  21128170.118 0  21128171.256 0
 -20504399.559 7 -15763425.344 5  20029570.042 0  20029570.134 0
 88  2 25  7 43 29.0800000  0  4  6 13 11  9
   -537255.704 8   -418642.140 7  21650106.514 0  21650107.547 0
  -1797275.047 8  54289826.636 7  21063969.427 0  21063970.705 0
  -6547696.088 7  -4945722.262 7  21137126.092 0  21137128.885 0
 -20508405.877 7 -15766547.159 6  20028808.111 0  20028810.182 0
 88  2 25  7 43 59.0800000  0  4  6 13 11  9
   -458124.866 8   -356981.760 7  21665165.685 0  21665165.702 0
  -1835863.776 8  54259757.516 7  21056625.422 0  21056628.410 0
  -6500348.270 8  -4908827.854 6  21146136.325 0  21146137.157 0
 -20511777.031 6 -15769174.026 7  20028166.722 0  20028166.558 0
 88  2 25  7 44 29.0800000  0  4  6 13 11  9
   -378504.022 7   -294939.532 7  21680316.378 0  21680316.681 0
  -1874009.303 8  54230033.735 6  21049367.196 0  21049369.370 0
  -6452722.699 7  -4871717.012 7  21155198.852 0  21155200.033 0
 -20514511.607 7 -15771304.856 7  20027646.547 0  20027646.333 0
 88  2 25  7 44 59.0800000  0  4  6 13 11  9
   -298394.935 7   -232516.883 7  21695560.733 0  21695561.692 0
  -1911712.234 7  54200654.849 6  21042193.006 0  21042194.143 0
  -6404821.626 7  -4834391.505 7  21164314.760 0  21164315.624 0
 -20516608.896 6 -15772939.112 6  20027247.316 0  20027248.107 0
 88  2 25  7 45 29.0800000  0  4  6 13 11  9
   -217799.423 8   -169715.188 7  21710897.505 0  21710898.764 0
  -1948973.270 7  54171620.292 6  21035102.416 0  21035103.251 0
  -6356647.445 7  -4796853.179 7  21173480.935 0  21173483.398 0
 -20518067.567 6 -15774075.749 6  20026968.483 0  20026970.247 0
 88  2 25  7 45 59.0800000  0  4  6 13 11  9
   -136719.404 8   -106535.958 7  21726326.421 0  21726326.824 0
  -1985792.444 7  54142930.064 6  21028095.316 0  21028097.730 0
  -6308202.215 7  -4759103.638 7  21182700.670 0  21182701.860 0
 -20518886.607 7 -15774713.960 6  20026814.201 0  20026814.670 0
 88  2 25  7 46 29.0800000  0  4  6 13 11  9
    -55157.082 8    -42980.910 7  21741847.263 0  21741848.767 0
  -2022170.803 7  54114583.289 6  21021172.100 0  21021174.762 0
  -6259488.676 7  -4721145.041 7  21191970.159 0  21191972.546 0
 -20519065.583 6 -15774853.434 6  20026780.600 0  20026779.657 0
 88  2 25  7 46 59.0800000  0  4  6 13 11  9
     26886.294 7     20948.978 6  21757459.511 0  21757459.341 0
  -2058108.142 7  54086580.191 7  21014334.201 0  21014334.699 0
  -6210508.394 7  -4682978.578 7  21201289.694 0  21201291.865 0
 -20518602.717 6 -15774492.749 6  20026867.338 0  20026868.037 0
 88  2 25  7 47 29.0800000  0  4  6 13 11  9
    109408.427 8     85251.936 7  21773163.135 0  21773164.039 0
  -2093605.125 7  54058920.215 7  21007578.997 0  21007581.252 0
  -6161263.918 7  -4644606.271 7  21210661.928 0  21210662.589 0
 -20517497.484 6 -15773631.551 5  20027078.080 0  20027078.514 0
 88  2 25  7 47 59.0800000  0  4  6 13 11  9
    192407.493 7    149926.508 7  21788956.594 0  21788957.629 0
  -2128662.884 7  54031602.498 6  21000907.390 0  21000909.317 0
  -6111757.529 7  -4606029.865 6  21220082.457 0  21220084.134 0
 -20515749.246 6 -15772269.296 6  20027410.123 0  20027411.712 0
 88  2 25  7 48 29.0800000  0  4  6 13 11  9
    275881.504 7    214971.184 6  21804841.146 0  21804843.411 0
  -2163281.482 7  54004626.984 6  20994319.692 0  20994321.720 0
  -6061991.446 7  -4567251.088 7  21229552.962 0  21229554.443 0
 -20513356.923 6 -15770405.142 5  20027865.221 0  20027866.296 0
 88  2 25  7 48 59.0800000  0  4  6 13 11  9
    359828.417 7    280384.353 7  21820816.934 0  21820816.493 0
  -2197461.325 8  53977993.362 6  20987816.196 0  20987817.324 0
  -6011967.936 7  -4528271.727 7  21239071.525 0  21239074.601 0
 -20510319.777 6 -15768038.539 5  20028443.341 0  20028445.473 0
 88  2 25  7 49 29.0800000  0  4  6 13 11  9
    444246.259 7    346164.484 7  21836880.637 0  21836881.399 0
  -2231203.006 7  53951701.154 7  20981395.535 0  20981397.014 0
  -5961689.306 8  -4489093.572 7  21248639.902 0  21248641.527 0
 -20506636.852 6 -15765168.727 6  20029144.018 0  20029145.933 0
 88  2 25  7 49 59.0800000  0  4  6 13 11  9
    529133.036 7    412310.017 7  21853034.572 0  21853034.847 0
  -2264507.154 7  53925749.877 7  20975058.267 0  20975058.921 0
  -5911157.577 8  -4449718.191 7  21258256.275 0  21258256.698 0
 -20502307.396 6 -15761795.128 6  20029968.950 0  20029969.150 0
 88  2 25  7 50 29.0800000  0  4  6 13 11  9
    614486.663 7    478819.328 7  21869277.344 0  21869277.462 0
  -2297375.014 7  53900138.591 6  20968802.489 0  20968804.712 0
  -5860375.217 7  -4410147.511 6  21267918.780 0  21267920.714 0
 -20497330.673 6 -15757917.183 6  20030915.195 0  20030918.246 0
 88  2 25  7 50 59.0800000  0  4  6 13 11  9
    700305.171 7    545690.872 7  21885607.312 0  21885608.075 0
  -2329806.529 7  53874867.285 6  20962632.149 0  20962632.787 0
  -5809344.122 7  -4370383.040 7  21277630.212 0  21277631.727 0
 -20491705.994 6 -15753534.312 5  20031985.727 0  20031987.550 0
 88  2 25  7 51 29.0800000  0  4  6 13 11  9
    786586.529 7    612923.093 7  21902025.678 0  21902025.843 0
  -2361803.096 7  53849934.919 6  20956542.268 0  20956544.606 0
  -5758067.062 7  -4330426.879 6  21287387.613 0  21287390.064 0
 -20485432.715 6 -15748646.045 6  20033180.716 0  20033181.403 0
 88  2 25  7 51 59.0800000  0  4  6 13 11  9
    873328.616 8    680514.329 7  21918532.367 0  21918533.130 0
  -2393365.101 7  53825341.175 6  20950536.588 0  20950537.087 0
  -5706546.000 7  -4290280.583 7  21297191.381 0  21297193.779 0
 -20478510.114 6 -15743251.819 6  20034496.822 0  20034499.467 0
 88  2 25  7 52 29.0800000  0  4  6 13 11  9
    960529.302 7    748462.906 7  21935125.997 0  21935127.575 0
  -2424492.789 7  53801085.841 6  20944613.244 0  20944615.304 0
  -5654782.892 7  -4249945.704 6  21307041.277 0  21307043.477 0
 -20470937.481 6 -15737351.075 6  20035939.022 0  20035938.685 0
 88  2 25  7 52 59.0800000  0  4  6 13 11  9
   1048186.456 7    816767.185 7  21951806.142 0  21951807.584 0
  -2455186.819 7  53777168.427 7  20938771.377 0  20938775.050 0
  -5602780.305 7  -4209424.214 7  21316937.887 0  21316939.309 0
 -20462714.558 6 -15730943.611 5  20037503.318 0  20037503.649 0
 88  2 25  7 53 29.0800000  0  4  6 13 11  9
   1136298.043 7    885425.538 7  21968573.171 0  21968574.301 0
  -2485448.155 7  53753588.197 6  20933014.500 0  20933015.527 0
  -5550540.521 7  -4168717.883 7  21326879.052 0  21326880.431 0
 -20453840.400 6 -15724028.682 5  20039193.108 0  20039193.305 0
 88  2 25  7 53 59.0800000  0  4  6 13 11  9
   1224861.767 7    954436.227 7  21985427.480 0  21985427.013 0
  -2515277.674 7  53730344.417 6  20927336.822 0  20927339.524 0
  -5498065.326 7  -4127828.124 7  21336863.595 0  21336864.859 0
 -20444314.723 7 -15716606.094 5  20041004.482 0  20041005.718 0
 88  2 25  7 54 29.0800000  0  4  6 13 11  9
   1313875.642 8   1023797.676 7  22002365.130 0  22002365.894 0
  -2544675.990 7  53707436.657 7  20921743.158 0  20921746.561 0
  -5445357.162 7  -4086756.822 7  21346894.931 0  21346895.483 0
 -20434136.860 6 -15708675.302 5  20042939.685 0  20042940.786 0
 88  2 25  7 54 59.0800000  0  4  6 13 11  9
   1403337.323 7   1093508.074 7  22019389.498 0  22019390.055 0
  -2573643.919 7  53684864.260 7  20916230.186 0  20916233.370 0
  -5392418.165 7  -4045505.652 7  21356968.568 0  21356970.070 0
 -20423306.395 6 -15700235.983 6  20045002.825 0  20045002.850 0
 88  2 25  7 55 29.0800000  0  4  6 13 11  9
   1493244.668 7   1163565.745 7  22036499.057 0  22036499.290 0
  -2602182.054 7  53662626.753 7  20910799.571 0  20910801.357 0
  -5339250.610 7  -4004076.396 6  21367085.994 0  21367086.319 0
 -20411822.956 7 -15691287.852 6  20047187.160 0  20047188.119 0
 88  2 25  7 55 59.0800000  0  4  6 13 11  9
   1583595.536 7   1233968.995 7  22053691.128 0  22053692.163 0
  -2630291.644 7  53640723.206 7  20905451.142 0  20905451.525 0
  -5285856.826 7  -3962470.850 6  21377246.485 0  21377248.869 0
 -20399686.013 6 -15681830.488 5  20049497.586 0  20049498.230 0
 88  2 25  7 56 29.0800000  0  4  6 13 11  9
   1674387.590 7   1304716.038 7  22070969.478 0  22070970.001 0
  -2657973.443 7  53619152.996 6  20900183.095 0  20900185.048 0
  -5232238.826 7  -3920690.586 7  21387449.123 0  21387450.871 0
 -20386895.207 7 -15671863.636 6  20051930.776 0  20051932.221 0
 88  2 25  7 56 59.0800000  0  4  6 13 11  9
   1765618.593 7   1375805.119 7  22088328.794 0  22088331.313 0
  -2685228.035 8  53597915.681 6  20894996.254 0  20894999.408 0
  -5178398.965 8  -3878737.447 7  21397695.197 0  21397697.397 0
 -20373450.153 6 -15661386.978 6  20054489.880 0  20054490.485 0
 88  2 25  7 57 29.0800000  0  4  6 13 11  9
   1857286.296 7   1447234.485 7  22105773.506 0  22105774.380 0
  -2712056.082 7  53577010.707 7  20889890.798 0  20889894.418 0
  -5124339.320 7  -3836613.058 7  21407982.554 0  21407983.640 0
 -20359350.595 6 -15650400.325 6  20057172.633 0  20057173.152 0
 88  2 25  7 57 59.0800000  0  4  6 13 11  9
   1949388.545 7   1519002.465 7  22123299.407 0  22123300.797 0
  -2738458.267 8  53556437.610 6  20884867.875 0  20884869.958 0
  -5070061.818 8  -3794318.898 7  21418310.611 0  21418312.519 0
 -20344596.046 6 -15638903.262 5  20059979.689 0  20059981.374 0
 88  2 25  7 58 29.0800000  0  4  6 13 11  9
   2041922.913 7   1591107.143 7  22140908.070 0  22140909.936 0
  -2764435.672 8  53536195.480 6  20879923.992 0  20879925.297 0
  -5015569.174 7  -3751857.094 7  21428680.402 0  21428681.904 0
 -20329186.505 6 -15626895.839 5  20062913.554 0  20062913.042 0
 88  2 25  7 58 59.0800000  0  4  6 13 11  9
   2134887.050 7   1663546.740 7  22158600.014 0  22158599.744 0
  -2789989.351 7  53516283.535 6  20875060.494 0  20875063.527 0
  -4960863.340 7  -3709229.173 7  21439088.931 0  21439092.317 0
 -20313121.602 6 -15614377.734 7  20065970.777 0  20065970.878 0
 88  2 25  7 59 29.0800000  0  4  6 13 11  9
   2228278.609 8   1736319.374 7  22176371.018 0  22176371.626 0
  -2815119.919 7  53496701.290 6  20870278.035 0  20870279.795 0
  -4905946.100 7  -3666436.519 7  21449540.423 0  21449542.836 0
 -20296401.394 6 -15601349.018 5  20069151.829 0  20069151.455 0
 88  2 25  7 59 59.0800000  0  4  6 13 11  9
   2322095.361 8   1809423.328 7  22194223.406 0  22194224.051 0
  -2839828.818 8  53477447.606 7  20865576.759 0  20865578.709 0
  -4850819.751 7  -3623480.928 7  21460030.474 0  21460032.709 0
 -20279025.222 6 -15587809.147 6  20072458.461 0  20072458.009 0
 88  2 25  8  0 29.0800000  0  4  6 13 11  9
   2416334.944 7   1882856.760 7  22212157.235 0  22212158.640 0
  -2864116.573 7  53458522.107 6  20860955.307 0  20860956.967 0
  -4795486.889 7  -3580364.399 7  21470561.149 0  21470562.193 0
 -20260993.057 6 -15573758.127 5  20075889.443 0  20075889.389 0
 88  2 25  8  0 59.0800000  0  4  6 13 11  9
   2510994.923 7   1956617.762 7  22230170.522 0  22230170.447 0
  -2887984.663 7  53439923.611 6  20856413.506 0  20856414.941 0
  -4739948.448 7  -3446654.751 1  21481128.933 0  21481238.824 0
 -20440993.557 6 -15559196.600 1          .000 0  20079442.947 0
 88  2 25  8  1 29.0800000  0  4  6 13 11  9
   2606073.073 8   2030704.622 8  22248262.896 0  22248264.319 0
  -2911433.539 7  53421651.775 6  20851950.926 0  20851952.027 0
  -4684208.420 7  -3403220.689 7  21491735.495 0  21491737.726 0
 -20343490.537 1 -15331196.600 1  20083128.929 0          .000 0
 88  2 25  8  1 59.0800000  0  4  6 13 11  9
   2701566.809 7   2105115.310 6  22266435.334 0  22266436.115 0
  -2934464.418 7  53403705.648 6  20847568.494 0  20847571.373 0
  -4628267.883 8  -3359630.668 6  21502381.057 0  21502382.324 0
 -20323490.761 6 -15438030.159 6  20086932.339 0  20086934.431 0
 88  2 25  8  2 29.0800000  0  4  6 13 11  9
   2797473.809 8   2179848.031 6  22284685.202 0  22284686.813 0
  -2957078.253 7  53386084.487 7  20843265.978 0  20843266.712 0
  -4572129.106 8  -3315886.163 7  21513063.629 0  21513065.412 0
 -20302834.310 6 -15421934.237 6  20090864.172 0  20090864.877 0
 88  2 25  8  2 59.0800000  0  4  6 13 11  9
   2893791.634 7   2254900.887 6  22303012.858 0  22303014.305 0
  -2979276.059 8  53368787.510 6  20839040.776 0  20839042.470 0
  -4515794.175 7  -3271988.816 7  21523783.742 0  21523785.302 0
 -20281521.614 6 -15405326.956 6  20094919.010 0  20094919.072 0
 88  2 25  8  3 29.0800000  0  4  6 13 11  9
   2990517.880 8   2330271.979 7  22321420.656 0  22321421.747 0
  -3001058.728 7  53351814.013 7  20834896.178 0  20834898.017 0
  -4459265.349 7  -3227940.387 6  21534541.449 0  21534543.163 0
 -20259552.844 6 -15388208.447 6  20099099.461 0  20099099.211 0
 88  2 25  8  3 59.0800000  0  4  6 13 11  9
   3087650.047 8   2405959.368 6  22339904.314 0  22339904.608 0
  -3022427.430 7  53335163.083 6  20830830.479 0  20830831.341 0
  -4402544.659 8  -3183742.462 7  21545334.670 0  21545336.694 0
 -20236928.297 6 -15370578.919 5  20103405.285 0  20103404.882 0
 88  2 25  8  4 29.0800000  0  4  6 13 11  9
   3185185.695 7   2481961.170 6  22358464.016 0  22358464.525 0
  -3043382.772 7  53318834.263 6  20826842.622 0  20826844.744 0
  -4345634.333 8  -3139396.732 6  21556164.833 0  21556165.989 0
 -20213647.688 6 -15352438.205 5  20107835.455 0  20107834.984 0
 88  2 25  8  4 59.0800000  0  4  6 13 11  9
   3283122.185 8   2558275.305 7  22377101.110 0  22377100.826 0
  -3063926.259 7  53302826.354 7  20822932.938 0  20822935.019 0
  -4288536.612 7  -3094905.014 6  21567029.968 0  21567031.254 0
 -20189711.274 6 -15333786.448 5  20112389.424 0  20112390.971 0
 88  2 25  8  5 29.0800000  0  4  6 13 11  9
   3381457.140 7   2634899.931 7  22395812.670 0  22395814.218 0
  -3084058.327 7  53287139.051 6  20819101.711 0  20819102.844 0
  -4231253.331 7  -3050268.688 7  21577930.510 0  21577930.958 0
 -20165119.232 6 -15314623.830 6  20117069.964 0  20117072.005 0
 88  2 25  8  5 59.0800000  0  4  6 13 11  9
   3480188.156 8   2711833.184 6  22414600.541 0  22414602.947 0
  -3103780.404 7  53271771.209 6  20815348.710 0  20815349.374 0
  -4173786.652 7  -3005489.470 6  21588866.758 0  21588867.658 0
 -20139871.630 6 -15294950.384 5  20121873.167 0  20121874.433 0
 88  2 25  8  6 29.0800000  0  4  6 13 11  9
   3579312.657 8   2789073.050 6  22433464.771 0  22433464.022 0
  -3123093.827 8  53256721.793 6  20811673.925 0  20811675.660 0
  -4116138.687 8  -2960568.983 7  21599836.249 0  21599836.793 0
 -20113968.782 6 -15274766.372 6  20126803.127 0  20126804.015 0
 88  2 25  8  6 59.0800000  0  4  6 13 11  9
   3678828.010 8   2866617.474 6  22452402.574 0  22452403.600 0
  -3141999.857 7  53241989.824 6  20808076.582 0  20808077.846 0
  -4058311.826 7  -2915509.104 7  21610839.849 0  21610842.507 0
 -20087411.038 6 -15254072.025 6  20131857.771 0  20131859.650 0
 88  2 25  8  7 29.0800000  0  4  6 13 11  9
   3778731.793 8   2944464.567 7  22471412.330 0  22471413.197 0
  -3160499.406 7  53227574.594 7  20804555.391 0  20804555.841 0
  -4000307.861 7  -2870311.216 7  21621878.243 0  21621880.145 0
 -20060198.548 6 -15232867.487 6  20137035.589 0  20137035.707 0
 88  2 25  8  7 59.0800000  0  4  6 13 11  9
   3879021.402 7   3022612.300 7  22490497.030 0  22490497.481 0
  -3178593.642 7  53213475.209 6  20801111.556 0  20801114.081 0
  -3942128.722 7  -2824976.823 6  21632950.180 0  21632951.262 0
 -20032331.685 6 -15211153.070 5  20142338.039 0  20142338.446 0
 88  2 25  8  8 29.0800000  0  4  6 13 11  9
   3979694.260 7   3101058.672 7  22509654.664 0  22509654.837 0
  -3196283.419 7  53199690.986 7  20797746.007 0  20797746.813 0
  -3883776.652 8  -2779507.684 6  21644053.287 0  21644054.438 0
 -20003810.950 6 -15188929.129 5  20147765.170 0  20147766.860 0
 88  2 25  8  8 59.0800000  0  4  6 13 11  9
   4080747.811 8   3179801.699 7  22528884.423 0  22528884.857 0
  -3213569.729 7  53186221.138 6  20794457.127 0  20794457.959 0
  -3825253.628 7  -2733905.332 6  21655188.919 0  21655190.681 0
 -19974636.655 6 -15166195.908 5  20153314.970 0  20153316.699 0
 88  2 25  8  9 29.0800000  0  4  6 13 11  9
   4182179.418 7   3258839.326 7  22548186.416 0  22548186.826 0
  -3230454.255 7  53173064.375 7  20791243.885 0  20791245.260 0
  -3766561.644 7  -2688171.324 6  21666357.927 0  21666359.206 0
 -19944808.764 6 -15142953.395 5  20158994.278 0  20158993.098 0
 88  2 25  8  9 59.0800000  0  4  6 13 11  9
   4283986.576 7   3338169.558 7  22567558.996 0  22567559.550 0
  -3246938.002 7  53160219.899 7  20788107.109 0  20788108.887 0
  -3707702.858 7  -2642307.339 7  21677558.937 0  21677559.068 0
 -19914328.218 6 -15119202.338 5  20164792.101 0  20164793.007 0
 88  2 25  8 10 29.0800000  0  4  6 13 11  9
   4386166.567 7   3417790.317 6  22587002.205 0  22587004.091 0
  -3263022.203 7  53147686.768 6  20785046.418 0  20785047.927 0
  -3648679.300 7  -2596314.944 6  21688790.992 0  21688791.936 0
 -19883195.428 6 -15094943.031 6  20170717.308 0  20170718.019 0
 88  2 25  8 10 59.0800000  0  4  6 13 11  9
   4488716.774 7   3497699.556 7  22606517.154 0  22606519.032 0
  -3278708.019 7  53135464.076 6  20782061.249 0  20782061.999 0
  -3589492.837 7  -2550195.626 7  21700054.437 0  21700054.581 0
 -19851410.653 6 -15070175.694 5  20176764.879 0  20176765.524 0
 88  2 25  8 11 29.0800000  0  4  6 13 11  9
   4591634.617 8   3577895.268 7  22626102.442 0  22626103.660 0
  -3293996.896 8  53123550.664 6  20779152.348 0  20779153.255 0
  -3530145.774 8  -2503951.174 7  21711347.061 0  21711348.278 0
 -19818974.434 7 -15044900.708 5  20182938.542 0  20182938.171 0
 88  2 25  8 11 59.0800000  0  4  6 13 11  9
   4694917.459 7   3658375.394 7  22645758.122 0  22645758.381 0
  -3308889.238 7  53111946.245 6  20776318.573 0  20776319.608 0
  -3470640.115 7  -2457583.136 7  21722669.267 0  21722673.625 0
 -19785887.600 6 -15019118.753 5  20189235.406 0  20189235.725 0
 88  2 25  8 12 29.0800000  0  4  3 13 11  9
          .229 7         -.106 7  24060609.365 0          .000 0
  -3323386.915 8  53100649.360 6  20773558.894 0  20773561.772 0
  -3410977.447 8  -2411092.742 7  21734023.599 0  21734025.564 0
 -19752150.410 6 -14992830.050 6  20195654.710 0  20195655.304 0
 88  2 25  8 12 59.0800000  0  4  3 13 11  9
    -78378.397 8  84593008.963 7  24045730.707 0  24045732.388 0
  -3337491.265 7  53089658.970 6  20770875.549 0  20770877.111 0
  -3351159.918 8  -2364481.669 7  21745406.845 0  21745409.206 0
 -19717763.603 7 -14966035.149 6  20202198.930 0  20202197.942 0
 88  2 25  8 13 29.0800000  0  4  3 13 11  9
   -156530.390 6  84532111.318 6  24030861.829 0  24030862.476 0
  -3351203.451 4  53078974.171 4  20768264.709 0  20768265.691 0
  -3291189.620 8  -2317751.570 7  21756818.668 0  21756819.349 0
 -19682727.793 6 -14938734.532 5  20208866.179 0  20208864.600 0
 88  2 25  8 13 59.0800000  0  4  3 13 11  9
   -234455.850 7  84471390.213 6  24016031.307 0  24016031.888 0
  -3364524.586 4  53068594.081 4  20765731.839 0  20765731.611 0
  -3231068.760 7  -2270904.150 7  21768259.454 0  21768260.177 0
 -19647043.696 6 -14910928.751 5  20215655.937 0  20215656.625 0
 88  2 25  8 14 29.0800000  0  4  3 13 11  9
   -312154.336 6  84410845.948 7  24001245.693 0  24001247.717 0
  -3377456.463 8  53058517.297 6  20763269.081 0  20763270.462 0
  -3170799.369 7  -2223940.992 7  21779727.942 0  21779730.655 0
 -19610712.170 1 -14882618.460 1  20222569.832 0  20222573.156 0
 88  2 25  8 14 59.0800000  0  4  3 13 11  9
   -389625.672 7  84350478.662 6  23986502.786 0  23986504.598 0
  -3390000.000 8  53048743.137 6  20760882.035 0  20760884.994 0
 -67160923.433 4  -1995940.992 7          .000 0          .000 0
 -19573733.938 6 -14853804.258 6  20229606.454 0  20229606.631 0
 88  2 25  8 15 29.0800000  0  4  3 13 11  9
   -466869.595 6  84290288.594 6  23971801.737 0  23971806.211 0
  -3402156.848 7  53039270.281 7  20758570.000 0  20758571.857 0
 -67100350.621 8  -1767940.992 7  21802720.572 0          .000 0
 -19536109.700 6 -14824486.687 6  20236766.141 0  20236767.509 0
 88  2 25  8 15 59.0800000  0  4  3 13 11  9
   -543885.221 6  84230276.407 7  23957146.605 0  23957150.594 0
  -3413928.372 7  53030097.664 6  20756330.962 0  20756330.708 0
 -67039646.761 7  85377017.093 7  21814301.553 0  21814301.893 0
 -19497840.089 6 -14794666.225 6  20244048.232 0  20244049.429 0
 88  2 25  8 16 29.0800000  0  4  3 13 11  9
   -620672.311 6  84170442.290 7  23942535.317 0  23942538.068 0
  -3425315.017 8  53021224.955 6  20754162.346 0  20754164.922 0
 -66978801.659 7  85424428.863 6  21825880.286 0  21825882.075 0
 -19458926.009 7 -14764343.564 6  20251453.309 0  20251454.321 0
 88  2 25  8 16 59.0800000  0  4  3 13 11  9
   -697231.033 6  84110786.177 7  23927966.849 0  23927969.478 0
  -3436318.594 8  53012650.753 7  20752069.655 0  20752069.977 0
 -66917817.735 8  85471948.795 7  21837484.244 0  21837485.868 0
 -19419368.447 7 -14733519.505 6  20258982.075 0  20258982.158 0
 88  2 25  8 17 29.0800000  0  4  3 13 11  9
   -773560.830 6  84051308.435 7  23913443.091 0  23913443.953 0
  -3446940.258 7  53004374.147 6  20750048.231 0  20750049.204 0
 -66856696.851 7  85519575.463 6  21849115.270 0  21849116.719 0
 -19379168.386 6 -14702194.784 6  20266631.097 0  20266632.138 0
 88  2 25  8 17 59.0800000  0  4  3 13 11  9
   -849661.040 6  83992009.574 7  23898961.951 0  23898963.322 0
  -3457181.569 7  52996393.911 6  20748098.929 0  20748101.200 0
 -66795440.875 7  85567307.377 7  21860771.559 0  21860773.985 0
 -19338326.500 6 -14670369.947 6  20274403.407 0  20274403.859 0
 88  2 25  8 18 29.0800000  0  4  3 13 11  9
   -925531.559 7  83932889.690 7  23884525.314 0  23884524.403 0
  -3467043.481 8  52988709.324 6  20746221.666 0  20746223.193 0
 -66734051.504 7  85615143.260 6  21872453.809 0  21872455.523 0
 -19296843.668 7 -14638045.658 6  20282297.801 0  20282296.465 0
 88  2 25  8 18 59.0800000  0  4  3 13 11  9
  -1001171.955 7  83873949.120 7  23870129.308 0  23870130.721 0
  -3476527.471 7  52981319.207 7  20744417.112 0  20744419.842 0
 -66672530.802 8  85663081.468 7  21884159.694 0  21884163.196 0
 -19254721.071 7 -14605222.861 6  20290312.537 0  20290313.819 0
 88  2 25  8 19 29.0800000  0  4  3 13 11  9
  -1076581.776 6  83815188.211 7  23855779.936 0  23855781.162 0
  -3485635.893 7  52974221.730 7  20742683.797 0  20742684.923 0
 -66610880.823 7  85711120.416 6  21895892.562 0  21895894.408 0
 -19211959.581 7 -14571902.220 6  20298451.118 0  20298449.711 0
 88  2 25  8 19 59.0800000  0  4  3 13 11  9
  -1151761.179 7  83756606.849 6  23841473.405 0  23841476.134 0
  -3494369.611 7  52967416.251 6  20741022.267 0  20741025.143 0
 -66549103.364 8  85759258.701 7  21907649.184 0  21907649.374 0
 -19168560.324 7 -14538084.628 6  20306708.695 0  20306710.178 0
 88  2 25  8 20 29.0800000  0  4  3 13 11  9
  -1226709.160 7  83698205.808 7  23827211.276 0  23827213.297 0
  -3502729.959 7  52960901.721 7  20739430.479 0  20739432.712 0
 -66487199.851 8  85807495.206 6  21919428.866 0  21919429.192 0
 -19124524.311 7 -14503770.849 5  20315087.671 0  20315089.097 0
 88  2 25  8 20 59.0800000  0  4  3 13 11  9
  -1301426.024 7  83639984.859 6  23812993.669 0  23812994.653 0
  -3510718.238 7  52954677.106 6  20737910.489 0  20737911.373 0
 -66425172.736 8  85855828.013 7  21931232.185 0  21931232.471 0
 -19079852.559 6 -14468961.711 6  20323588.847 0  20323590.017 0
 88  2 25  8 21 29.0800000  0  4  3 13 11  9
  -1375911.568 7  83581944.208 7  23798819.384 0  23798820.489 0
  -3518335.465 7  52948741.613 7  20736461.042 0  20736462.602 0
 -66363023.536 7  85904255.960 6  21943058.744 0  21943059.698 0
 -19034546.324 7 -14433658.149 6  20332210.550 0  20332211.475 0
 88  2 25  8 21 59.0800000  0  4  3 13 11  9
  -1450165.624 7  83524083.898 7  23784688.119 0  23784690.377 0
  -3525583.477 7  52943093.801 7  20735080.459 0  20735083.822 0
 -66300754.653 8  85952777.163 6  21954906.986 0  21954909.205 0
 -18988606.627 7 -14397861.003 6  20340953.309 0  20340954.506 0
 88  2 25  8 22 29.0800000  0  4  3 13 11  9
  -1524187.907 7  83466404.193 7  23770603.431 0  23770605.259 0
  -3532464.203 7  52937732.222 6  20733773.050 0  20733774.166 0
 -66238367.262 7  86001390.715 7  21966779.878 0  21966781.266 0
 -18942034.657 7 -14361571.157 6  20349814.948 0  20349815.415 0
 88  2 25  8 22 59.0800000  0  4  3 13 11  9
  -1597977.547 7  83408905.768 7  23756561.269 0  23756564.707 0
  -3538978.519 7  52932656.116 7  20732532.796 0  20732536.188 0
 -66175863.700 7  86050094.801 7  21978673.568 0  21978675.317 0
 -18894831.676 7 -14324789.610 6  20358797.629 0  20358798.668 0
 88  2 25  8 23 29.0800000  0  4  3 13 11  9
  -1671534.472 7  83351588.691 6  23742562.787 0  23742566.225 0
  -3545128.092 7  52927864.252 6  20731362.511 0  20731365.749 0
 -66113245.599 8  86098888.125 7  21990589.708 0  21990590.241 0
 -18846998.898 7 -14287517.332 6  20367899.291 0  20367900.860 0
 88  2 25  8 23 59.0800000  0  4  3 13 11  9
  -1744858.789 7  83294452.861 6  23728611.289 0  23728612.415 0
  -3550914.287 7  52923355.558 6  20730261.190 0  20730263.190 0
 -66050514.650 7  86147769.381 7  22002526.064 0  22002529.502 0
 -18798537.783 7 -14249755.425 6  20377121.593 0  20377121.932 0
 88  2 25  8 24 29.0800000  0  4  3 13 11  9
  -1817949.919 7  83237498.744 6  23714701.294 0  23714702.807 0
  -3556338.204 7  52919129.127 6  20729230.402 0  20729231.244 0
 -65987672.607 8  86196737.211 6  22014484.557 0  22014485.530 0
 -18749449.050 6 -14211504.474 6  20386463.892 0  20386464.202 0
 88  2 25  8 24 59.0800000  0  4  3 13 11  9
  -1890808.032 7  83180726.193 7  23700837.848 0  23700839.769 0
  -3561401.683 8  52915183.579 6  20728266.263 0  20728268.095 0
 -65924721.477 7  86245790.050 6  22026464.105 0  22026466.598 0
 -18699734.597 7 -14172765.932 7  20395922.712 0  20395924.295 0
 88  2 25  8 25 29.0800000  0  4  3 13 11  9
  -1963433.038 7  83124135.285 7  23687016.241 0  23687018.748 0
  -3566106.061 7  52911517.823 6  20727371.075 0  20727372.825 0
 -65861662.732 7  86294926.735 7  22038464.412 0  22038465.199 0
 -18649395.564 7 -14133540.718 6  20405503.273 0  20405504.327 0
 88  2 25  8 25 59.0800000  0  4  3 13 11  9
  -2035824.267 7  83067726.524 6  23673241.918 0  23673244.727 0
  -3570452.844 7  52908130.737 6  20726543.296 0  20726545.024 0
 -65798498.474 7  86344145.622 7  22050484.059 0  22050484.992 0
 -18598433.280 7 -14093829.862 6  20415200.641 0  20415202.010 0
 88  2 25  8 26 29.0800000  0  4  3 13 11  9
  -2107981.809 7  83011499.879 7  23659510.188 0  23659512.410 0
  -3574443.709 8  52905020.971 6  20725784.383 0  20725785.352 0
 -65735230.426 7  86393445.400 6  22062524.542 0  22062524.621 0
 -18546849.211 7 -14053634.502 6  20425016.216 0  20425017.285 0
 88  2 25  8 26 59.0800000  0  4  3 13 11  9
  -2179906.101 7  82955454.980 7  23645823.917 0  23645825.187 0
  -3578080.359 8  52902187.235 6  20725092.608 0  20725094.132 0
 -65671860.523 7  86442824.549 6  22074582.637 0  22074585.034 0
 -18494644.931 7 -14012955.846 6  20434950.659 0  20434950.726 0
 88  2 25  8 27 29.0800000  0  4  3 13 11  9
  -2251596.230 6  82899592.547 6  23632180.883 0  23632183.784 0
  -3581363.796 6  52899628.730 6  20724468.119 0  20724468.377 0
 -65608390.280 7  86492281.868 7  22086660.783 0  22086661.885 0
 -18441821.732 7 -13971794.906 6  20445000.906 0  20445003.963 0
 88  2 25  8 27 59.0800000  0  4  3 13 11  9
  -2323052.362 6  82843912.429 6  23618584.553 0  23618585.215 0
  -3584295.982 7  52897343.896 6  20723908.905 0  20723910.479 0
 -65544821.492 7  86541815.999 7  22098756.644 0  22098759.012 0
 -18388380.906 7 -13930152.716 6  20455171.493 0  20455173.934 0
 88  2 25  8 28 29.0800000  0  4  3 13 11  9
  -2394274.228 7  82788414.883 7  23605031.730 0  23605032.849 0
  -3586878.436 7  52895331.604 6  20723417.891 0  20723419.559 0
 -65481155.870 7  86591425.583 7  22110871.547 0  22110873.081 0
 -18334324.310 7 -13888030.706 7  20465458.556 0  20465460.040 0
 88  2 25  8 28 59.0800000  0  4  3 13 11  9
  -2465261.878 7  82733099.816 6  23591522.336 0  23591524.557 0
  -3589112.915 8  52893590.474 6  20722992.594 0  20722993.467 0
 -65417395.492 7  86641108.990 7  22123004.804 0  22123006.464 0
 -18279653.126 7 -13845429.792 6  20475861.697 0  20475863.108 0
 88  2 25  8 29 29.0800000  0  4  3 13 11  9
  -2536015.137 7  82677967.408 7  23578058.488 0  23578060.430 0
  -3591000.184 7  52892119.876 6  20722633.540 0  20722634.477 0
 -65353541.741 7  86690865.161 6  22135156.978 0  22135157.565 0
 -18224369.318 6 -13802351.518 6  20486382.415 0  20486383.569 0
 88  2 25  8 29 59.0800000  0  4  3 13 11  9
  -2606534.057 7  82623017.605 7  23564638.640 0  23564641.770 0
  -3592542.219 7  52890918.289 6  20722340.036 0  20722341.175 0
 -65289596.591 7  86740692.546 7  22147324.588 0  22147326.771 0
 -18168474.367 7 -13758797.007 6  20497018.795 0  20497019.964 0
 88  2 25  8 30 29.0800000  0  4  3 13 11  9
  -2676818.344 7  82568250.640 7  23551264.718 0  23551265.444 0
  -3593740.457 8  52889984.615 6  20722112.413 0  20722113.915 0
 -65225561.452 7  86790590.058 6  22159510.594 0  22159511.678 0
 -18111969.886 6 -13714767.547 7  20507772.567 0  20507772.262 0
 88  2 25  8 30 59.0800000  0  4  3 13 11  9
  -2746867.866 7  82513666.599 6  23537933.938 0  23537936.667 0
  -3594596.608 7  52889317.482 6  20721949.041 0  20721950.000 0
 -65161438.028 7  86840556.347 7  22171710.876 0  22171714.167 0
 -18054857.281 7 -13670264.238 6  20518639.626 0  20518642.096 0
 88  2 25  8 31 29.0800000  0  4  3 13 11  9
  -2816682.823 6  82459265.334 7  23524649.069 0  23524651.456 0
  -3595112.556 7  52888915.462 6  20721849.617 0  20721851.026 0
 -65097227.743 7  86890590.331 7  22183931.244 0  22183931.888 0
 -17997138.465 7 -13625288.535 6  20529622.918 0  20529621.711 0
 88  2 25  8 31 59.0800000  0  4  3 13 11  9
  -2886263.102 7  82405046.942 7  23511408.294 0  23511410.451 0
  -3595289.793 7  52888777.381 6  20721817.732 0  20721818.419 0
 -65032932.992 7  86940690.147 7  22196166.440 0  22196167.828 0
 -17938815.159 7 -13579841.810 6  20540721.370 0  20540723.039 0
 88  2 25  8 32 29.0800000  0  4  3 13 11  9
  -2955608.501 7  82351011.546 7  23498212.064 0  23498215.329 0
  -3595129.894 7  52888901.965 6  20721848.579 0  20721849.759 0
 -64968554.864 7  86990854.929 7  22208417.982 0  22208417.567 0
 -17879889.641 7 -13533925.833 6  20551934.367 0  20551936.838 0
 88  2 25  8 32 59.0800000  0  4  3 13 11  9
  -3024718.996 7  82297159.220 6  23485061.801 0  23485063.214 0
  -3594634.047 7  52889288.353 6  20721941.810 0  20721942.007 0
 -64904095.283 7  87041083.160 7  22220683.131 0  22220685.205 0
 -17820362.636 7 -13487541.167 6  20563262.396 0  20563263.736 0
 88  2 25  8 33 29.0800000  0  4  3 13 11  9
  -3093594.643 7  82243489.887 7  23471953.293 0  23471956.673 0
  -3593804.151 7  52889935.023 7  20722099.905 0  20722101.704 0
 -64839555.807 8  87091373.651 7  22232965.036 0  22232966.671 0
 -17760236.247 7 -13440689.435 6  20574703.554 0  20574705.709 0
 88  2 25  8 33 59.0800000  0  4  3 13 11  9
  -3162235.254 7  82190003.704 7  23458892.535 0  23458894.685 0
  -3592641.406 7  52890841.062 6  20722320.792 0  20722321.608 0
 -64774937.938 8  87141725.245 7  22245260.778 0  22245262.685 0
 -17699512.311 7 -13393372.102 7  20586259.314 0  20586259.723 0
 88  2 25  8 34 29.0800000  0  4  3 13 11  9
  -3230641.083 7  82136700.461 7  23445875.713 0  23445877.934 0
  -3591147.945 7  52892004.819 5  20722605.549 0  20722605.645 0
 -64710243.294 8  87192136.660 7  22257572.035 0  22257573.315 0
 -17638192.752 7 -13345590.623 6  20597928.788 0  20597928.812 0
 88  2 25  8 34 59.0800000  0  4  3 13 11  9
  -3298812.012 7  82083580.253 7  23432903.264 0  23432904.827 0
  -3589325.418 7  52893424.961 6  20722952.603 0  20722953.934 0
 -64645473.336 7  87242606.750 6  22269898.395 0  22269899.546 0
 -17576279.394 7 -13297346.447 6  20609709.961 0  20609710.257 0
 88  2 25  8 35 29.0800000  0  4  3 13 11  9
  -3366748.043 7  82030643.086 7  23419975.259 0  23419977.760 0
  -3587174.998 7  52895100.616 6  20723361.567 0  20723362.064 0
 -64580630.008 8  87293134.023 7  22282236.628 0  22282237.970 0
 -17513774.335 7 -13248641.201 6  20621604.090 0  20621604.113 0
 88  2 25  8 35 59.0800000  0  4  3 13 11  9
  -3434449.138 7  81977888.973 7  23407091.956 0  23407093.727 0
  -3584698.287 8  52897030.535 7  20723831.992 0  20723833.884 0
 -64515714.806 7  87343717.289 7  22294589.514 0  22294591.217 0
 -17450679.071 7 -13199476.072 5  20633611.261 0  20633611.529 0
 88  2 25  8 36 29.0800000  0  4  3 13 11  9
  -3501915.661 7  81925317.641 7  23394254.521 0  23394255.248 0
  -3581897.551 7  52899212.936 6  20724365.521 0  20724366.236 0
 -64450729.511 8  87394355.183 6  22306955.765 0  22306958.118 0
 -17386995.706 7 -13149852.682 6  20645730.159 0  20645730.641 0
 88  2 25  8 36 59.0800000  0  4  3 13 11  9
  -3569147.353 6  81872929.316 6  23381458.640 0  23381461.241 0
  -3578773.847 7  52901646.997 6  20724959.749 0  20724961.034 0
 -64385675.532 8  87445046.597 6  22319336.210 0  22319336.278 0
 -17322726.182 7 -13099772.541 5  20657959.954 0  20657959.648 0
 88  2 25  8 37 29.0800000  0  4  3 13 11  9
  -3636144.404 7  81820723.842 7  23368710.009 0  23368712.717 0
  -3575329.135 7  52904331.196 6  20725616.751 0  20725617.060 0
 -64320554.521 8  87495790.246 6  22331727.402 0  22331728.550 0
 -17257872.266 7 -13049237.018 6  20670300.129 0  20670301.641 0
 88  2 25  8 37 59.0800000  0  4  3 13 11  9
  -3702907.170 6  81768700.907 7  23356005.957 0  23356008.200 0
  -3571565.355 7  52907264.017 6  20726332.261 0  20726333.495 0
 -64255367.812 7  87546585.092 7  22344131.357 0  22344134.147 0
 -17192436.331 7 -12998247.987 6  20682752.245 0  20682753.327 0
 88  2 25  8 38 29.0800000  0  4  3 13 11  9
  -3769435.034 6  81716861.027 6  23343348.031 0  23343348.593 0
  -3567483.445 7  52910444.738 6  20727108.639 0  20727109.429 0
 -64190117.136 7  87597429.769 7  22356548.094 0  22356549.997 0
 -17126420.329 7 -12946806.931 6  20695315.201 0  20695316.656 0
 88  2 25  8 38 59.0800000  0  4  3 13 11  9
  -3835728.457 7  81665203.790 7  23330731.008 0  23330733.237 0
  -3563085.140 7  52913871.999 6  20727944.545 0  20727946.971 0
 -64124804.181 7  87648322.991 6  22368978.196 0  22368978.618 0
 -17059826.297 7 -12894915.491 6  20707988.108 0  20707988.618 0
 88  2 25  8 39 29.0800000  0  4  3 13 11  9
  -3901787.587 7  81613729.161 6  23318160.282 0  23318161.931 0
  -3558372.301 7  52917544.331 6  20728843.073 0  20728843.241 0
 -64059430.034 7  87699263.873 7  22381417.474 0  22381419.144 0
 -16992655.959 7 -12842574.956 5  20720769.950 0  20720769.530 0
 88  2 25  8 39 59.0800000  0  4  3 13 11  9
  -3967612.198 6  81562437.246 6  23305634.924 0  23305637.160 0
  -3553346.086 7  52921460.879 6  20729797.857 0  20729800.730 0
 -63993996.298 8  87750251.205 7  22393868.556 0  22393870.466 0
 -16924911.779 7 -12789787.302 7  20733660.658 0  20733663.057 0
 88  2 25  8 40 29.0800000  0  4  3 13 11  9
  -4033202.482 7  81511327.957 7  23293154.446 0  23293153.491 0
  -3548008.398 7  52925620.120 6  20730813.931 0  20730814.858 0
 -63928504.368 7  87801283.872 7  22406331.412 0  22406333.394 0
 -16856595.959 7 -12736554.200 6  20746661.460 0  20746661.956 0
 88  2 25  8 40 59.0800000  0  4  3 13 11  9
  -4098558.839 7  81460400.911 6  23280715.429 0  23280718.695 0
  -3542361.491 7  52930020.301 7  20731889.031 0  20731891.088 0
 -63862955.885 8  87852360.616 7  22418804.917 0  22418805.643 0
 -16787710.349 7 -12682877.108 6  20759769.180 0  20759769.919 0
 88  2 25  8 41 29.0800000  0  4  3 13 11  9
  -4163681.322 7  81409656.137 6  23268323.633 0  23268326.248 0
  -3536406.612 7  52934660.472 6  20733022.176 0  20733024.472 0
 -63797352.371 7  87903480.238 6  22431288.832 0  22431290.743 0
 -16718257.293 7 -12628757.856 6  20772985.507 0  20772986.175 0
 88  2 25  8 41 59.0800000  0  4  3 13 11  9
  -4228569.876 6  81359093.651 7  23255975.759 0  23255977.272 0
  -3530145.707 8  52939539.102 6  20734214.077 0  20734214.983 0
 -63731695.107 7  87954641.744 7  22443784.012 0  22443785.014 0
 -16648238.889 7 -12574198.059 6  20786309.483 0  20786310.637 0
 88  2 25  8 42 29.0800000  0  4  3 13 11  9
  -4293224.844 7  81308713.159 6  23243672.723 0  23243673.585 0
  -3523580.259 8  52944655.047 6  20735462.937 0  20735464.873 0
 -63665985.945 7  88005843.678 7  22456286.959 0  22456288.994 0
 -16577657.266 7 -12519199.405 6  20799741.049 0  20799742.704 0
 88  2 25  8 42 59.0800000  0  4  3 13 11  9
  -4357646.158 7  81258514.733 7  23231413.737 0  23231416.009 0
  -3516712.023 7  52950006.933 6  20736771.283 0  20736771.054 0
 -63600226.189 7  88057085.052 7  22468800.166 0  22468802.709 0
 -16506514.815 7 -12463763.736 6  20813279.305 0  20813280.057 0
 88  2 25  8 43 29.0800000  0  4  3 13 11  9
  -4421834.321 7  81208497.970 7  23219199.045 0  23219202.082 0
  -3509542.752 7  52955593.390 6  20738134.588 0  20738134.613 0
 -63534417.222 7  88108364.754 7  22481324.976 0  22481325.591 0
 -16434813.830 7 -12407892.857 6  20826923.762 0  20826925.074 0
 88  2 25  8 43 59.0800000  0  4  3 13 11  9
  -4485789.338 6  81158662.893 7  23207028.613 0  23207030.691 0
  -3502073.935 8  52961413.235 6  20739556.431 0  20739556.767 0
 -63468560.334 7  88159681.809 7  22493855.564 0  22493857.396 0
 -16362556.545 7 -12351588.487 6  20840674.252 0  20840675.492 0
 88  2 25  8 44 29.0800000  0  4  3 13 11  9
  -4549511.436 6  81109009.332 7  23194902.509 0  23194903.786 0
  -3494306.727 7  52967465.618 6  20741034.523 0  20741035.386 0
 -63402656.868 7  88211035.156 7  22506396.802 0  22506399.510 0
 -16289745.179 8 -12294852.350 6  20854530.543 0  20854532.027 0
 88  2 25  8 44 59.0800000  0  4  3 13 11  9
  -4613000.661 7  81059537.210 6  23182821.515 0  23182823.358 0
  -3486243.633 7  52973748.564 7  20742568.240 0  20742568.247 0
 -63336708.373 8  88262423.593 7  22518946.454 0  22518948.300 0
 -16216382.156 7 -12237686.363 6  20868489.804 0  20868490.214 0
 88  2 25  8 45 29.0800000  0  4  3 13 11  9
  -4676257.193 7  81010246.433 7  23170784.823 0  23170785.227 0
  -3477886.248 7  52980260.828 6  20744158.231 0  20744159.522 0
 -63270716.083 7  88313846.162 7  22531504.590 0  22531507.123 0
 -16142469.733 7 -12180092.280 6  20882554.652 0  20882555.577 0
 88  2 25  8 45 59.0800000  0  4  3 13 11  9
  -4739281.261 7  80961136.788 6  23158791.380 0  23158792.342 0
  -3469236.103 7  52987001.192 6  20745803.599 0  20745805.197 0
 -63204681.678 7  88365301.530 7  22544070.011 0  22544071.646 0
 -16068010.327 7 -12122071.963 6  20896723.943 0  20896725.140 0
 88  2 25  8 46 29.0800000  0  4  3 13 11  9
  -4802073.034 7  80912208.133 6  23146841.001 0  23146843.838 0
  -3460294.869 7  52993968.401 6  20747505.351 0  20747507.164 0
 -63138606.319 7  88416788.821 6  22556644.435 0  22556646.210 0
 -15993006.153 7 -12063627.159 6  20910997.118 0  20910997.786 0
 88  2 25  8 46 59.0800000  0  4  3 13 11  9
  -4864632.894 7  80863460.217 6  23134936.711 0  23134938.346 0
  -3451064.131 7  53001161.189 6  20749262.956 0  20749264.226 0
 -63072491.366 7  88468306.962 7  22569226.662 0  22569228.146 0
 -15917459.833 7 -12004759.915 7  20925372.776 0  20925374.059 0
 88  2 25  8 47 29.0800000  0  4  3 13 11  9
  -4926961.182 7  80814892.750 7  23123075.772 0  23123077.449 0
  -3441545.501 7  53008578.308 6  20751073.827 0  20751075.072 0
 -63006338.396 8  88519854.748 6  22581814.476 0  22581815.263 0
 -15841373.714 8 -11945472.028 6  20939851.946 0  20939853.444 0
 88  2 25  8 47 59.0800000  0  4  3 13 11  9
  -4989058.132 7  80766505.524 7  23111259.491 0  23111261.462 0
  -3431741.313 7  53016217.928 6  20752939.909 0  20752941.644 0
 -62940148.311 7  88571431.429 7  22594409.921 0  22594411.362 0
 -15764750.282 8 -11885765.472 6  20954432.340 0  20954433.423 0
 88  2 25  8 48 29.0800000  0  4  3 13 11  9
  -5050923.585 7  80718298.673 6  23099487.261 0  23099489.382 0
  -3421652.969 7  53024078.990 6  20754858.575 0  20754859.942 0
 -62873922.181 7  88623036.205 7  22607013.085 0  22607013.776 0
 -15687591.608 7 -11825641.833 6  20969115.446 0  20969116.027 0
 88  2 25  8 48 59.0800000  0  4  3 13 11  9
  -5112558.234 6  80670271.675 6  23087759.569 0  23087761.011 0
  -3411281.783 8  53032160.436 6  20756832.510 0  20756833.766 0
 -62807661.958 7  88674667.551 7  22619621.197 0  22619622.256 0
 -15609900.389 8 -11765103.234 6  20983899.717 0  20983900.942 0
 88  2 25  8 49 29.0800000  0  4  3 13 11  9
  -5173962.328 7  80622424.343 7  23076074.489 0  23076075.108 0
  -3400629.418 7  53040460.995 6  20758859.818 0  20758862.147 0
 -62741368.997 7  88726324.396 7  22632236.027 0  22632237.443 0
 -15531679.421 8 -11704151.820 6  20998785.583 0  20998784.076 0
 88  2 25  8 49 59.0800000  0  4  3 13 11  9
  -5235135.891 7  80574756.646 7  23064433.725 0  23064434.802 0
  -3389697.882 7  53048979.080 6  20760940.318 0  20760941.419 0
 -62675044.391 7  88778005.899 7  22644856.992 0  22644858.398 0
 -15452931.068 8 -11642789.476 6  21013770.198 0  21013770.923 0
 88  2 25  8 50 29.0800000  0  4  3 13 11  9
  -5296079.382 7  80527268.226 7  23052835.038 0  23052837.523 0
  -3378489.504 7  53057712.895 6  20763072.040 0  20763073.918 0
 -62608689.452 7  88829711.042 7  22657484.871 0  22657485.827 0
 -15373657.876 7 -11581018.158 6  21028855.463 0  21028855.329 0
 88  2 25  8 50 59.0800000  0  4  3 13 11  9
  -5356793.071 7  80479958.862 7  23041281.516 0  23041284.604 0
  -3367005.476 7  53066661.484 6  20765258.814 0  20765258.466 0
 -62542305.705 7  88881438.629 6  22670116.501 0  22670119.323 0
 -15293862.457 7 -11518839.915 6  21044039.304 0  21044040.702 0
 88  2 25  8 51 29.0800000  0  4  3 13 11  9
  -5417276.873 7  80432828.635 7  23029772.010 0  23029773.717 0
  -3355247.477 7  53075823.551 6  20767495.215 0  20767496.331 0
 -62475894.289 7  88933187.789 7  22682754.265 0  22682756.636 0
 -15213547.270 7 -11456256.669 7  21059321.707 0  21059324.779 0
 88  2 25  8 51 59.0800000  0  4  3 13 11  9
  -5477531.117 7  80385877.302 7  23018306.798 0  23018308.311 0
  -3343217.017 7  53085197.954 6  20769784.929 0  20769785.214 0
 -62409456.128 7  88984957.789 6  22695398.264 0  22695397.985 0
 -15132715.056 7 -11393270.536 6  21074703.816 0  21074705.815 0
 88  2 25  8 52 29.0800000  0  4  3 13 11  9
  -5537556.507 7  80339104.275 6  23006883.699 0  23006885.612 0
  -3330915.794 8  53094783.340 6  20772125.919 0  20772127.150 0
 -62342992.653 7  89036747.509 7  22708044.617 0  22708046.230 0
 -15051368.113 7 -11329883.303 6  21090183.787 0  21090186.013 0
 88  2 25  8 52 59.0800000  0  4  3 13 11  9
  -5597353.379 7  80292509.319 6  22995504.542 0  22995506.141 0
  -3318345.706 7  53104578.214 6  20774516.985 0  20774519.106 0
 -62276504.973 7  89088556.086 6  22720696.930 0  22720699.395 0
 -14969509.310 8 -11266097.230 6  21105761.402 0  21105761.884 0
 88  2 25  8 53 29.0800000  0  4  3 13 11  9
  -5656922.039 6  80246092.208 7  22984169.801 0  22984170.857 0
  -3305508.468 7  53114581.262 6  20776960.351 0  20776959.875 0
 -62209994.561 7  89140382.384 7  22733352.927 0  22733355.675 0
 -14887141.423 8 -11201914.466 7  21121435.633 0  21121435.772 0
 88  2 25  8 53 59.0800000  0  4  3 13 11  9
  -5716262.619 7  80199852.810 6  22972877.345 0  22972878.872 0
  -3292405.827 7  53124791.097 6  20779455.334 0  20779453.731 0
 -62143462.742 7  89192225.349 6  22746014.488 0  22746016.033 0
 -14804266.917 7 -11137336.924 6  21137206.638 0  21137207.334 0
 88  2 25  8 54 29.0800000  0  4  3 13 11  9
  -5775375.795 7  80153790.615 6  22961628.438 0  22961630.187 0
  -3279039.431 8  53135206.473 6  20781998.575 0  20781999.361 0
 -62076910.293 7  89244084.398 7  22758678.148 0  22758680.059 0
 -14720888.580 7 -11072366.798 6  21153072.312 0  21153072.823 0
 88  2 25  8 54 59.0800000  0  4  3 13 11  9
  -5834262.063 7  80107905.228 6  22950422.830 0  22950424.823 0
  -3265411.216 7  53145825.854 6  20784590.742 0  20784593.575 0
 -62010338.599 7  89295958.437 7  22771346.355 0  22771348.540 0
 -14637009.050 7 -11007006.144 7  21169034.960 0  21169035.528 0
 88  2 25  8 55 29.0800000  0  4  3 13 11  9
  -5892921.066 7  80062196.927 6  22939260.423 0  22939262.208 0
  -3251522.692 7  53156648.100 6  20787234.258 0  20787233.850 0
 -61943748.891 7  89347846.518 7  22784018.339 0  22784020.954 0
 -14552631.071 7 -10941257.070 6  21185091.047 0  21185091.214 0
 88  2 25  8 55 59.0800000  0  4  3 13 11  9
  -5951353.848 7  80016664.918 6  22928141.894 0  22928142.621 0
  -3237375.158 7  53167672.150 6  20789926.295 0  20789928.024 0
 -61877142.379 7  89399747.699 7  22796693.429 0  22796695.246 0
 -14467757.434 7 -10875121.776 6  21201241.989 0  21201242.885 0
 88  2 25  8 56 29.0800000  0  4  3 13 11  9
  -6009560.397 7  79971309.178 6  22917064.253 0  22917065.817 0
  -3222970.894 7  53178896.255 6  20792667.572 0  20792667.651 0
 -61810519.904 7  89451661.314 7  22809370.879 0  22809372.432 0
 -14382391.130 7 -10808602.573 6  21217487.701 0  21217487.282 0
 88  2 25  8 56 59.0800000  0  4  3 13 11  9
  -6067541.191 7  79926129.389 7  22906030.657 0  22906031.984 0
  -3208311.771 7  53190318.952 6  20795454.906 0  20795457.943 0
 -61743882.557 8  89503586.513 7  22822052.187 0  22822053.754 0
 -14296534.535 7 -10741701.337 6  21233825.135 0  21233824.973 0
 88  2 25  8 57 29.0800000  0  4  3 13 11  9
  -6125296.408 7  79881125.340 7  22895041.097 0  22895042.231 0
  -3193398.814 7  53201939.446 6  20798294.676 0  20798295.720 0
 -61677231.698 7  89555522.242 7  22834733.608 0  22834736.581 0
 -14210190.546 8 -10674420.306 6  21250256.236 0  21250256.733 0
 88  2 25  8 57 59.0800000  0  4  3 13 11  9
  -6182827.028 7  79836296.313 6  22884093.513 0  22884093.832 0
  -3178233.967 8  53213756.213 5  20801179.856 0  20801180.472 0
 -61610568.736 7  89607467.403 7  22847420.617 0  22847422.323 0
 -14123361.901 7 -10606761.625 7  21266779.104 0  21266778.955 0
 88  2 25  8 58 29.0800000  0  4  3 13 11  9
  -6240133.219 7  79791642.174 6  22873188.134 0  22873189.813 0
  -3162819.295 7  53225767.645 5  20804113.769 0  20804114.395 0
 -61543894.427 7  89659421.395 7  22860107.247 0  22860109.604 0
 -14036051.504 8 -10538727.550 6  21283393.463 0  21283393.187 0
 88  2 25  8 58 59.0800000  0  4  3 13 11  9
  -6297215.515 7  79747162.463 7  22862326.184 0  22862327.261 0
  -3147155.989 7  53237972.823 6  20807094.492 0  20807095.207 0
 -61477209.892 8  89711383.385 7  22872798.005 0  22872799.519 0
 -13948262.196 8 -10470320.320 6  21300099.430 0  21300099.254 0
 88  2 25  8 59 29.0800000  0  4  3 13 11  9
  -6354074.264 7  79702856.971 6  22851505.222 0  22851506.492 0
  -3131245.749 7  53250370.417 6  20810121.433 0  20810122.839 0
 -61410516.127 7  89763352.557 7  22885490.291 0  22885490.394 0
 -13859996.802 8 -10401542.100 7  21316895.460 0  21316896.070 0
 88  2 25  8 59 59.0800000  0  4  3 13 11  9
  -6410709.634 6  79658725.563 6  22840727.881 0  22840728.994 0
  -3115090.152 7  53262959.203 6  20813197.172 0  20813196.789 0
 -61343814.669 7  89815327.702 7  22898181.579 0  22898184.716 0
 -13771258.369 7 -10332395.268 7  21333781.866 0  21333781.890 0
 88  2 25  9  0 29.0800000  0  4  3 13 11  9
  -6467122.413 7  79614767.604 6  22829992.410 0  22829994.918 0
  -3098691.433 7  53275737.430 6  20816317.417 0  20816317.674 0
 -61277106.385 7  89867308.186 7  22910875.649 0  22910877.273 0
 -13682049.500 7 -10262881.868 7  21350757.776 0  21350758.544 0
 88  2 25  9  0 59.0800000  0  4  3 13 11  9
  -6523312.712 6  79570982.995 7  22819298.864 0  22819300.750 0
  -3082051.282 7  53288703.799 6  20819483.922 0  20819484.137 0
 -61210391.774 7  89919293.598 7  22923572.295 0  22923573.866 0
 -13592373.099 8 -10193004.172 6  21367821.301 0  21367823.514 0
 88  2 25  9  1 29.0800000  0  4  3 13 11  9
  -6579280.887 6  79527371.457 6  22808649.055 0  22808650.604 0
  -3065171.227 7  53301857.082 7  20822695.009 0  20822696.483 0
 -61143672.295 8  89971282.802 7  22936266.864 0  22936270.766 0
 -13502232.129 8 -10122764.461 6  21384975.132 0  21384975.628 0
 88  2 25  9  1 59.0800000  0  4  3 13 11  9
  -6635027.611 7  79483932.478 6  22798041.314 0  22798044.402 0
  -3048053.177 8  53315195.829 6  20825952.833 0  20825954.708 0
 -61076948.794 8  90023275.138 7  22948964.927 0  22948966.397 0
 -13411629.563 8 -10052165.077 6  21402216.878 0  21402218.032 0
 88  2 25  9  2 29.0800000  0  4  3 13 11  9
  -6690553.374 7  79440665.696 6  22787475.700 0  22787476.204 0
  -3030698.505 7  53328718.967 6  20829255.605 0  20829256.202 0
 -61010222.653 6  90075269.547 7  22961662.685 0  22961664.088 0
 -13320568.304 7  -9981208.250 7  21419545.410 0  21419545.977 0
 88  2 25  9  2 59.0800000  0  4  3 13 11  9
  -6745858.751 7  79397570.637 6  22776950.867 0  22776953.639 0
  -3013108.685 8  53342425.297 6  20832601.344 0  20832604.264 0
 -60943494.738 7  90127265.314 7  22974360.849 0  22974362.981 0
 -13229051.030 7  -9909896.105 6  21436960.927 0  21436961.294 0
 88  2 25  9  3 29.0800000  0  4  3 13 11  9
  -6800944.077 6  79354647.053 6  22766468.038 0  22766471.440 0
  -2995285.599 7  53356313.434 6  20835993.234 0  20835995.388 0
 -60876766.018 7  90179261.718 7  22987058.364 0  22987060.035 0
 -13137081.195 7  -9838231.301 6  21454461.698 0  21454462.523 0
 88  2 25  9  3 59.0800000  0  4  3 13 11  9
  -6855809.881 6  79311894.516 6  22756026.648 0  22756029.951 0
  -2977231.216 8  53370381.800 7  20839429.588 0  20839431.708 0
 -60810037.373 7  90231258.064 7  22999756.607 0  22999757.744 0
 -13044661.543 8  -9766215.998 6  21472048.926 0  21472049.608 0
 88  2 25  9  4 29.0800000  0  4  3 13 11  9
  -6910456.869 6  79269312.481 6  22745629.690 0  22745631.983 0
  -2958946.731 8  53384629.456 6  20842909.410 0  20842908.480 0
 -60743309.786 7  90283253.588 7  23012454.551 0  23012456.311 0
 -12951794.765 8  -9693852.274 7  21489720.005 0  21489720.229 0
 88  2 25  9  4 59.0800000  0  4  3 13 11  9
  -6964884.934 6  79226901.021 6  22735271.330 0  22735273.408 0
  -2940434.525 8  53399054.561 6  20846432.208 0  20846433.503 0
 -60676583.999 7  90335247.689 7  23025151.702 0  23025153.859 0
 -12858484.246 8  -9621142.800 6  21507476.768 0  21507477.593 0
 88  2 25  9  5 29.0800000  0  4  3 13 11  9
  -7019094.920 7  79184659.526 7  22724955.483 0  22724957.296 0
  -2921695.668 8  53413656.271 6  20849997.694 0  20849998.245 0
 -60609861.056 7  90387239.581 7  23037848.845 0  23037849.357 0
 -12764733.042 8  -9548089.912 7  21525317.568 0  21525318.178 0
 88  2 25  9  5 59.0800000  0  4  3 13 11  9
  -7073087.525 6  79142587.384 6  22714681.225 0  22714683.625 0
  -2902731.899 8  53428433.233 6  20853606.343 0  20853607.090 0
 -60543141.976 7  90439228.488 7  23050544.633 0  23050546.815 0
 -12670544.152 8  -9474695.980 6  21543241.248 0  21543240.985 0
 88  2 25  9  6 29.0800000  0  4  3 13 11  9
  -7126863.041 7  79100684.418 6  22704447.612 0  22704450.177 0
  -2883545.466 7  53443383.701 6  20857257.587 0  20857257.666 0
 -60476428.065 7  90491213.345 7  23063239.971 0  23063241.258 0
 -12575920.468 8  -9400963.247 6  21561247.520 0  21561247.787 0
 88  2 25  9  6 59.0800000  0  4  3 13 11  9
  -7180422.024 6  79058950.169 7  22694256.691 0  22694258.312 0
  -2864137.599 7  53458506.721 7  20860951.015 0  20860951.680 0
 -60409719.853 7  90543193.771 7  23075934.056 0  23075935.244 0
 -12480865.062 7  -9326894.115 7  21579335.540 0  21579335.922 0
 88  2 25  9  7 29.0800000  0  4  3 13 11  9
  -7233764.924 7  79017384.297 7  22684105.908 0  22684106.827 0
  -2844509.483 7  53473801.345 6  20864684.609 0  20864686.884 0
 -60343018.177 7  90595169.094 7  23088627.193 0  23088628.756 0
 -12385381.009 8  -9252490.954 6  21597505.853 0  21597506.163 0
 88  2 25  9  7 59.0800000  0  4  3 13 11  9
  -7286892.515 7  78975986.210 6  22673997.036 0  22673997.826 0
  -2824662.949 7  53489266.187 6  20868462.325 0  20868464.056 0
 -60276323.977 8  90647138.603 7  23101318.459 0  23101320.573 0
 -12289471.353 8  -9177756.167 7  21615756.255 0  21615757.595 0
 88  2 25  9  8 29.0800000  0  4  3 13 11  9
  -7339805.567 7  78934755.275 7  22663926.784 0  22663927.245 0
  -2804599.563 7  53504899.988 6  20872280.063 0  20872282.596 0
 -60209638.110 7  90699101.631 7  23114008.401 0  23114010.143 0
 -12193139.194 7  -9102692.158 6  21634087.460 0  21634088.814 0
 88  2 25  9  8 59.0800000  0  4  3 13 11  9
  -7392504.010 7  78893691.571 6  22653898.702 0  22653899.764 0
  -2784321.304 7  53520701.242 6  20876138.422 0  20876141.506 0
 -60142961.736 7  90751057.227 7  23126696.247 0  23126699.252 0
 -12096387.563 8  -9027301.278 7  21652498.954 0  21652499.736 0
 88  2 25  9  9 29.0800000  0  4  3 13 11  9
  -7444988.728 7  78852794.402 6  22643911.944 0  22643913.121 0
  -2763829.693 7  53536668.743 6  20880039.168 0  20880039.502 0
 -60076295.302 7  90803005.104 7  23139382.141 0  23139385.088 0
 -11999219.640 8  -8951586.021 6  21670989.750 0  21670989.330 0
 88  2 25  9  9 59.0800000  0  4  3 13 11  9
  -7497260.209 7  78812063.403 7  22633963.636 0  22633965.234 0
  -2743126.637 7  53552800.997 7  20883978.550 0  20883980.064 0
 -60009639.919 8  90854944.365 7  23152068.076 0  23152067.880 0
 -11901638.318 7  -8875548.643 7  21689558.573 0  21689559.084 0
 88  2 25  9 10 29.0800000  0  4  3 13 11  9
  -7549319.037 7  78771498.103 6  22624058.011 0  22624059.897 0
  -2722214.027 8  53569096.543 6  20887958.523 0  20887958.330 0
 -59942996.353 7  90906874.420 7  23164748.511 0  23164750.282 0
 -11803647.050 8  -8799191.817 7  21708205.869 0  21708206.708 0
 88  2 25  9 10 59.0800000  0  4  3 13 11  9
  -7601165.322 7  78731098.430 7  22614191.186 0  22614193.694 0
  -2701093.026 7  53585554.460 6  20891977.645 0  20891978.962 0
 -59876365.457 7  90958794.580 7  23177428.190 0  23177429.717 0
 -11705248.777 8  -8722517.839 7  21726930.391 0  21726930.142 0
 88  2 25  9 11 29.0800000  0  4  3 13 11  9
  -7652800.066 7  78690863.604 6  22604366.023 0  22604367.013 0
  -2679764.741 7  53602173.905 6  20896035.178 0  20896036.752 0
 -59809748.046 7  91010704.253 7  23190104.782 0  23190107.383 0
 -11606446.791 7  -8645529.309 7  21745731.109 0  21745731.963 0
 88  2 25  9 11 59.0800000  0  4  3 13 11  9
  -7704223.792 7  78650793.199 7  22594580.359 0  22594581.557 0
  -2658231.168 7  53618953.323 7  20900132.526 0  20900134.171 0
 -59743144.808 7  91062602.880 7  23202779.768 0  23202781.846 0
 -11507244.120 8  -8568228.532 6  21764609.727 0  21764608.935 0
 88  2 25  9 12 29.0800000  0  4  3 13 11  9
  -7755437.153 7  78610886.715 7  22584835.785 0  22584835.903 0
  -2636493.814 7  53635891.513 5  20904269.663 0  20904271.674 0
 -59676556.468 7  91114489.901 7  23215451.227 0  23215452.221 0
 -11407643.758 8  -8490617.860 7  21783562.452 0  21783563.234 0
 88  2 25  9 12 59.0800000  0  4  3 13 11  9
  -7806441.001 7  78571143.479 7  22575129.896 0  22575129.993 0
  -2614554.526 8  53652987.071 6  20908444.181 0  20908446.045 0
 -59609983.962 7  91166364.572 7  23228117.724 0  23228119.842 0
 -11307649.247 8  -8412700.068 6  21802591.688 0  21802592.256 0
 88  2 25  9 13 29.0800000  0  4  3 13 11  9
  -7857235.347 7  78531563.495 7  22565463.364 0  22565465.221 0
  -2592415.045 7  53670238.616 6  20912658.606 0  20912658.957 0
 -59543428.101 7  91218226.291 7  23240783.938 0  23240786.106 0
 -11207263.512 8  -8334477.423 7  21821693.487 0  21821695.657 0
 88  2 25  9 13 59.0800000  0  4  3 13 11  9
  -7907820.795 7  78492146.292 6  22555837.570 0  22555838.675 0
  -2570077.069 8  53687644.827 7  20916908.100 0  20916909.785 0
 -59476889.535 7  91270074.520 7  23253447.097 0  23253447.831 0
 -11106489.715 7  -8255952.384 6  21840870.409 0  21840870.518 0
 88  2 25  9 14 29.0800000  0  4  3 13 11  9
  -7958198.079 7  78452891.278 7  22546249.638 0  22546251.480 0
  -2547541.655 7  53705204.889 6  20921196.947 0  20921198.739 0
 -59410368.736 7  91321908.897 7  23266104.525 0  23266106.243 0
 -11005331.342 8  -8177127.692 6  21860120.092 0  21860120.674 0
 88  2 25  9 14 59.0800000  0  4  3 13 11  9
  -8008367.856 8  78413797.980 6  22536702.952 0  22536705.153 0
  -2524811.075 7  53722917.027 6  20925521.829 0  20925524.332 0
 -59343866.798 7  91373728.579 7  23278758.989 0  23278760.652 0
 -10903791.669 8  -8098005.871 6  21879442.753 0  21879443.005 0
 88  2 25  9 15 29.0800000  0  4  3 13 11  9
  -8058330.659 7  78374865.953 7  22527195.911 0  22527197.853 0
  -2501886.462 7  53740780.377 6  20929885.814 0  20929885.328 0
 -59277384.502 6  91425532.953 7  23291410.675 0  23291412.854 0
 -10801873.726 7  -8018589.311 6  21898837.575 0  21898837.798 0
 88  2 25  9 15 59.0800000  0  4  3 13 11  9
  -8108087.522 7  78336094.385 7  22517728.005 0  22517728.423 0
  -2478769.582 7  53758793.534 6  20934283.229 0  20934284.953 0
 -59210922.316 7  91477321.650 7  23304057.616 0  23304059.990 0
 -10699580.653 7  -7938880.408 7  21918303.528 0  21918303.938 0
 88  2 25  9 16 29.0800000  0  4  3 13 11  9
  -8157639.177 7  78297482.736 6  22508297.589 0  22508298.773 0
  -2455461.785 7  53776955.459 6  20938719.293 0  20938720.201 0
 -59144481.083 6  91529094.030 7  23316700.734 0  23316702.999 0
 -10596915.537 8  -7858881.628 7  21937840.053 0  21937839.905 0
 88  2 25  9 16 59.0800000  0  4  3 13 11  9
  -8206985.911 7  78259030.769 6  22498907.525 0  22498908.917 0
  -2431965.223 7  53795264.467 7  20943190.143 0  20943191.635 0
 -59078061.511 7  91580849.531 6  23329340.999 0  23329342.098 0
 -10493881.951 8  -7778595.731 6  21957446.136 0  21957445.245 0
 88  2 25  9 17 29.0800000  0  4  3 13 11  9
  -8256127.861 7  78220738.371 6  22489556.081 0  22489558.317 0
  -2408280.794 8  53813719.860 5  20947697.581 0  20947697.542 0
 -59011663.905 6  91632587.925 7  23341974.914 0  23341976.817 0
 -10390482.788 8  -7698024.963 6  21977122.263 0  21977122.587 0
 88  2 25  9 17 59.0800000  0  4  3 13 11  9
  -8305066.159 7  78182604.655 6  22480243.258 0  22480245.143 0
  -2384410.217 7  53832320.303 6  20952238.399 0  20952240.954 0
 -58945289.342 7  91684308.343 7  23354606.146 0  23354607.917 0
 -10286721.783 7  -7617172.239 6  21996867.302 0  21996867.325 0
 88  2 25  9 18 29.0800000  0  4  3 13 11  9
  -8353801.871 7  78144628.796 6  22470968.325 0  22470970.840 0
  -2360354.774 7  53851064.828 6  20956816.715 0  20956818.410 0
 -58878938.504 7  91736010.302 7  23367230.166 0  23367233.590 0
 -10182602.173 7  -7536040.107 6  22016679.852 0  22016680.892 0
 88  2 25  9 18 59.0800000  0  4  3 13 11  9
  -8402335.289 7  78106810.580 6  22461733.803 0  22461735.294 0
  -2336115.929 7  53869952.230 6  20961429.475 0  20961431.150 0
 -58812611.825 7  91787693.419 7  23379852.570 0  23379855.231 0
 -10078127.174 8  -7454631.007 6  22036562.045 0  22036562.026 0
 88  2 25  9 19 29.0800000  0  4  3 13 11  9
  -8450666.815 7  78069149.685 6  22452536.769 0  22452537.439 0
  -2311695.719 7  53888980.972 6  20966075.148 0  20966078.056 0
 -58746310.198 7  91839357.027 7  23392470.412 0  23392472.200 0
  -9973299.710 7  -7372947.282 7  22056508.500 0  22056509.897 0
 88  2 25  9 19 59.0800000  0  4  3 13 11  9
  -8498797.429 7  78031645.311 7  22443377.956 0  22443379.906 0
  -2287095.593 7  53908149.903 6  20970758.668 0  20970758.815 0
 -58680034.143 7  91891000.706 7  23405082.123 0  23405083.385 0
  -9868123.220 7  -7290991.569 6  22076523.813 0  22076524.508 0
 88  2 25  9 20 29.0800000  0  4  3 13 11  9
  -8546727.613 7  77994297.148 7  22434256.597 0  22434257.359 0
  -2262316.943 7  53927457.963 6  20975473.149 0  20975473.893 0
 -58613784.315 7  91942623.943 6  23417689.909 0  23417691.962 0
  -9762600.925 7  -7208766.425 7  22096604.130 0  22096605.084 0
 88  2 25  9 20 59.0800000  0  4  3 13 11  9
  -8594458.352 7  77957104.367 7  22425174.188 0  22425175.952 0
  -2237361.118 8  53946904.053 7  20980221.572 0  20980223.368 0
 -58547561.084 7  91994226.468 7  23430292.186 0  23430292.261 0
  -9656736.437 7  -7126274.617 7  22116750.056 0  22116749.593 0
 88  2 25  9 21 29.0800000  0  4  3 13 11  9
  -8641989.763 7  77920066.948 7  22416128.418 0  22416129.666 0
  -2212229.994 7  53966486.769 6  20985005.203 0  20985005.643 0
 -58481365.276 8  92045807.613 7  23442887.674 0  23442888.754 0
  -9550532.722 7  -7043518.475 7  22136958.756 0  22136960.382 0
 88  2 25  9 21 59.0800000  0  4  3 13 11  9
  -8689322.593 7  77883184.253 7  22407121.453 0  22407122.487 0
  -2186924.990 7  53986204.935 6  20989820.514 0  20989821.392 0
 -58415197.474 7  92097366.931 7  23455478.861 0  23455480.403 0
  -9443993.414 7  -6960500.860 7  22157232.735 0  22157234.275 0
 88  2 25  9 22 29.0800000  0  4  3 13 11  9
  -8736457.980 7  77846455.406 7  22398153.009 0  22398154.244 0
  -2161447.786 8  54006057.312 6  20994668.032 0  20994668.233 0
 -58349058.070 7  92148904.132 7  23468066.178 0  23468065.863 0
  -9337121.745 7  -6877224.247 7  22177569.545 0  22177571.071 0
 88  2 25  9 22 59.0800000  0  4  3 13 11  9
  -8783396.292 7  77809880.105 6  22389221.126 0  22389219.920 0
  -2135799.680 8  54026042.852 7  20999549.431 0  20999550.239 0
 -58282947.827 7  92200418.608 7  23480646.269 0  23480645.998 0
  -9229921.005 7  -6793691.205 6  22197969.115 0  22197970.627 0
 88  2 25  9 23 29.0800000  0  4  3 13 11  9
  -8830138.265 6  77773457.834 6  22380324.614 0  22380326.041 0
  -2109981.990 8  54046160.531 7  21004461.762 0  21004461.562 0
 -58216867.204 7  92251909.995 6  23493220.250 0  23493221.133 0
  -9122394.376 8  -6709904.225 7  22218431.932 0  22218431.942 0
 88  2 25  9 23 59.0800000  0  4  3 13 11  9
  -8876684.374 6  77737188.151 6  22371467.732 0  22371469.331 0
  -2083996.439 7  54066409.003 6  21009406.200 0  21009407.784 0
 -58150816.516 7  92303378.058 7  23505788.439 0  23505791.530 0
  -9014545.323 8  -6625866.010 7  22238954.648 0  22238954.929 0
 88  2 25  9 24 29.0800000  0  4  3 13 11  9
  -8923035.375 7  77701070.501 6  22362647.066 0  22362648.866 0
  -2057844.743 7  54086786.966 6  21014382.453 0  21014383.380 0
 -58084796.616 7  92354822.133 7  23518352.446 0  23518354.439 0
  -8906377.047 7  -6541579.037 6  22259539.150 0  22259539.589 0
 88  2 25  9 24 59.0800000  0  4  3 13 11  9
  -8969192.170 7  77665104.174 7  22353864.706 0  22353865.111 0
  -2031528.270 7  54107293.317 6  21019390.864 0  21019392.857 0
 -58018807.750 7  92406242.026 7  23530909.253 0  23530911.943 0
  -8797893.304 7  -6457046.280 7  22280181.419 0  22280183.346 0
 88  2 25  9 25 29.0800000  0  4  3 13 11  9
  -9015155.338 7  77629288.732 6  22345117.905 0  22345119.383 0
  -2005047.926 7  54127927.348 6  21024429.052 0  21024432.232 0
 -57952850.554 7  92457637.248 7  23543461.012 0  23543461.774 0
  -8689096.860 8  -6372269.819 7  22300886.133 0  22300886.028 0
 88  2 25  9 25 59.0800000  0  4  3 13 11  9
  -9060925.886 7  77593623.400 6  22336408.036 0  22336409.227 0
  -1978405.674 8  54148687.555 6  21029498.537 0  21029501.484 0
 -57886925.642 7  92509007.305 7  23556006.099 0  23556006.979 0
  -8579991.526 7  -6287252.685 7  22321647.654 0  22321647.521 0
 88  2 25  9 26 29.0800000  0  4  3 13 11  9
  -9106504.256 7  77558107.828 6  22327735.985 0  22327735.938 0
  -1951602.968 7  54169572.783 6  21034599.492 0  21034600.211 0
 -57821033.302 7  92560351.989 6  23568545.090 0  23568545.852 0
  -8470580.323 7  -6201997.212 6  22342467.672 0  22342467.395 0
 88  2 25  9 26 59.0800000  0  4  3 13 11  9
  -9151890.922 7  77522741.593 6  22319098.392 0  22319098.266 0
  -1924641.000 7  54190582.113 7  21039729.796 0  21039731.702 0
 -57755174.176 7  92611670.785 6  23581078.279 0  23581078.669 0
  -8360866.809 7  -6116506.169 7  22363345.170 0  22363347.025 0
 88  2 25  9 27 29.0800000  0  4  3 13 11  9
  -9197086.699 7  77487524.127 6  22310498.059 0  22310496.846 0
  -1897521.245 7  54211714.390 6  21044891.403 0  21044894.000 0
 -57689348.694 7  92662963.377 7  23593603.955 0  23593605.616 0
  -8250854.565 8  -6030782.349 7  22384279.975 0  22384281.431 0
 88  2 25  9 27 59.0800000  0  4  3 13 11  9
  -9242092.628 7  77452454.583 6  22301933.442 0  22301935.863 0
  -1870245.452 8  54232968.261 7  21050082.088 0  21050082.746 0
 -57623556.950 7  92714229.655 6  23606124.173 0  23606125.310 0
  -8140546.598 8  -5944828.083 6  22405271.059 0  22405271.784 0
 88  2 25  9 28 29.0800000  0  4  3 13 11  9
  -9286908.886 7  77417532.854 6  22293405.392 0  22293405.853 0
  -1842814.753 7  54254342.834 6  21055302.127 0  21055303.304 0
 -57557799.858 6  92765468.950 7  23618637.047 0  23618638.718 0
  -8029946.442 7  -5858646.163 6  22426317.691 0  22426318.373 0
 88  2 25  9 28 59.0800000  0  4  3 13 11  9
  -9331536.646 7  77382757.987 6  22284912.814 0  22284913.856 0
  -1815230.619 7  54275836.959 6  21060551.458 0  21060551.623 0
 -57492077.509 6  92816681.154 7  23631142.655 0  23631145.073 0
  -7919057.334 7  -5772239.065 6  22447418.856 0  22447417.821 0
 88  2 25  9 29 29.0800000  0  4  3 13 11  9
  -9375976.575 8  77348129.488 6  22276455.410 0  22276456.937 0
  -1787494.440 7  54297449.562 6  21065828.108 0  21065831.024 0
 -57426390.578 6  92867865.754 7  23643642.027 0  23643644.707 0
  -7807882.681 7  -5685609.476 7  22468574.138 0  22468574.534 0
 88  2 25  9 29 59.0800000  0  4  3 13 11  9
  -9420229.430 7  77313646.751 6  22268035.187 0  22268035.047 0
  -1759607.604 8  54319179.573 7  21071135.946 0  21071135.799 0
 -57360739.457 6  92919022.456 7  23656134.070 0  23656137.826 0
  -7696425.910 7  -5598760.047 6  22489783.652 0  22489784.763 0
 88  2 25  9 30 29.0800000  0  4  3 13 11  9
  -9464295.917 8  77279309.239 6  22259649.141 0  22259650.876 0
  -1731571.366 7  54341025.990 6  21076470.552 0  21076472.022 0
 -57295124.349 6  92970151.085 7  23668622.471 0  23668623.623 0
  -7584690.475 7  -5511693.489 7  22511047.297 0  22511047.164 0
 88  2 25  9 30 59.0800000  0  4  3 13 11  9
  -9508176.664 7  77245116.497 5  22251298.290 0  22251300.962 0
  -1703387.226 7  54362987.659 6  21081833.522 0  21081834.800 0
 -57229545.752 6  93021251.275 7  23681101.150 0  23681103.560 0
  -7472679.520 8  -5424412.228 6  22532362.341 0  22532362.708 0
 88  2 25  9 31 29.0800000  0  4  3 13 11  9
  -9551872.632 8  77211067.689 6  22242983.640 0  22242984.917 0
  -1675056.851 7  54385063.282 7  21087225.509 0  21087227.208 0
 -57164004.286 7  93072322.537 7  23693574.054 0  23693575.889 0
  -7360397.014 7  -5336919.367 7  22553728.612 0  22553729.194 0
 88  2 25  9 31 59.0800000  0  4  3 13 11  9
  -9595384.361 7  77177162.457 6  22234703.633 0  22234705.268 0
  -1646581.461 8  54407251.885 6  21092643.280 0  21092646.328 0
 -57098500.068 7  93123364.773 7  23706038.612 0  23706039.982 0
  -7247846.251 7  -5249217.487 7  22575146.157 0  22575147.775 0
 88  2 25  9 32 29.0800000  0  4  3 13 11  9
  -9638712.381 7  77143400.380 6  22226458.483 0  22226458.494 0
  -1617962.112 7  54429552.698 6  21098089.358 0  21098090.560 0
 -57033033.509 7  93174377.666 7  23718496.392 0  23718497.715 0
  -7135030.105 7  -5161308.820 7  22596613.994 0  22596615.524 0
 88  2 25  9 32 59.0800000  0  4  3 13 11  9
  -9681857.583 7  77109780.756 6  22218248.906 0  22218249.868 0
  -1589200.386 7  54451964.440 6  21103562.338 0  21103563.970 0
 -56967604.965 7  93225360.937 7  23730947.531 0  23730948.287 0
  -7021952.147 8  -5073196.112 7  22618131.961 0  22618132.818 0
 88  2 25  9 33 29.0800000  0  4  3 13 11  9
  -9724820.608 7  77076303.088 7  22210072.626 0  22210072.923 0
  -1560297.075 7  54474486.501 6  21109062.391 0  21109063.751 0
 -56902214.551 7  93276314.497 7  23743390.963 0  23743392.336 0
  -6908616.004 7  -4984882.261 6  22639698.878 0  22639700.136 0
 88  2 25  9 33 59.0800000  0  4  3 13 11  9
  -9767602.292 8  77042966.739 6  22201931.826 0  22201932.273 0
  -1531254.308 7  54497117.233 6  21114590.261 0  21114591.076 0
 -56836862.863 8  93327237.881 7  23755826.234 0  23755828.280 0
  -6795024.603 7  -4896369.485 7  22661315.206 0  22661316.310 0
 88  2 25  9 34 29.0800000  0  4  3 13 11  9
  -9810203.280 7  77009771.187 6  22193825.847 0  22193826.745 0
  -1502073.279 7  54519855.689 7  21120142.227 0  21120143.758 0
 -56771550.238 8  93378130.849 7  23768255.052 0  23768257.320 0
  -6681181.890 7  -4807660.900 7  22682977.810 0  22682980.488 0
 88  2 25  9 34 59.0800000  0  4  3 13 11  9
  -9852624.579 8  76976715.651 6  22185752.909 0  22185753.184 0
  -1472754.965 8  54542701.133 6  21125722.039 0  21125723.313 0
 -56706277.015 7  93428993.119 6  23780676.668 0  23780677.630 0
  -6567091.012 7  -4718758.910 6  22704689.168 0  22704688.938 0
 88  2 25  9 35 29.0800000  0  4  3 13 11  9
  -9894866.881 7  76943799.593 7  22177714.055 0  22177716.047 0
  -1443300.694 7  54565652.504 6  21131326.921 0  21131328.724 0
 -56641043.552 7  93479824.385 7  23793090.024 0  23793091.162 0
  -6452755.646 7  -4629666.410 6  22726446.524 0  22726447.416 0
 88  2 25  9 35 59.0800000  0  4  3 13 11  9
  -9936930.689 7  76911022.589 7  22169709.542 0  22169710.741 0
  -1413712.528 8  54588708.238 6  21136957.531 0  21136959.005 0
 -56575849.683 8  93530624.800 7  23805495.461 0  23805497.968 0
  -6338178.896 7  -4540385.823 6  22748249.769 0  22748250.662 0
 88  2 25  9 36 29.0800000  0  4  3 13 11  9
  -9978817.052 7  76878383.892 6  22161737.726 0  22161739.998 0
  -1383990.975 7  54611867.900 7  21142613.468 0  21142613.182 0
 -56510696.031 8  93581393.876 6  23817894.169 0  23817896.262 0
  -6223364.229 7  -4450919.886 6  22770097.100 0  22770100.426 0
 88  2 25  9 36 59.0800000  0  4  3 13 11  9
 -10020526.439 7  76845883.114 7  22153800.897 0  22153801.952 0
  -1354137.327 7  54635130.477 7  21148292.958 0  21148294.389 0
 -56445582.760 8  93632131.523 6  23830284.988 0  23830285.375 0
  -6108315.099 8  -4361271.212 7  22791992.453 0  22791992.145 0
 88  2 25  9 37 29.0800000  0  4  3 13 11  9
 -10062059.771 7  76813519.488 6  22145898.910 0  22145900.173 0
  -1324153.446 7  54658494.541 6  21153999.349 0  21154001.782 0
 -56380510.108 7  93682837.469 6  23842667.823 0  23842669.465 0
  -5993035.104 7  -4271442.647 6  22813929.200 0  22813930.375 0
 88  2 25  9 37 59.0800000  0  4  3 13 11  9
 -10103417.706 7  76781292.562 7  22138028.246 0  22138029.423 0
  -1294040.019 8  54681959.551 7  21159729.980 0  21159731.325 0
 -56315478.709 7  93733511.319 7  23855043.286 0  23855044.120 0
  -5877527.327 8  -4181436.589 7  22835909.421 0  22835909.713 0
 88  2 25  9 38 29.0800000  0  4  3 13 11  9
 -10144600.686 7  76749201.933 7  22130191.016 0  22130192.314 0
  -1263798.469 8  54705524.396 7  21165485.509 0  21165485.581 0
 -56250488.386 7  93784153.110 6  23867409.876 0  23867411.648 0
  -5761795.213 7  -4091255.711 6  22857931.854 0  22857932.286 0
 88  2 25  9 38 59.0800000  0  4  3 13 11  9
 -10185610.118 7  76717246.569 6  22122386.646 0  22122388.874 0
  -1233429.956 7  54729188.181 7  21171263.990 0  21171265.407 0
 -56185539.168 7  93834762.918 6  23879769.445 0  23879771.190 0
  -5645842.528 7  -4000902.983 6  22879996.561 0  22879998.187 0
 88  2 25  9 39 29.0800000  0  4  3 13 11  9
 -10226446.633 7  76685425.929 6  22114615.839 0  22114618.211 0
  -1202936.215 7  54752949.525 6  21177065.795 0  21177068.843 0
 -56120631.715 7  93885340.136 6  23892120.392 0  23892122.982 0
  -5529672.610 7  -3910380.970 6  22902104.295 0  22902103.881 0
 88  2 25  9 39 59.0800000  0  4  3 13 11  9
 -10267110.761 7  76653739.619 6  22106877.213 0  22106879.270 0
  -1172318.488 8  54776807.508 6  21182893.299 0  21182893.887 0
 -56055766.139 6  93935884.743 6  23904462.342 0  23904465.158 0
  -5413288.627 7  -3819692.155 7  22924250.796 0  22924250.294 0
 88  2 25  9 40 29.0800000  0  4  3 13 11  9
 -10307603.266 7  76622187.036 6  22099171.284 0  22099174.220 0
  -1141577.547 7  54800761.495 6  21188742.840 0  21188744.171 0
 -55990942.593 6  93986396.575 6  23916799.481 0  23916801.920 0
  -5296694.227 8  -3728839.387 7  22946438.651 0  22946438.610 0
 88  2 25  9 40 59.0800000  0  4  3 13 11  9
 -10347925.104 7  76590767.432 7  22091500.154 0  22091501.553 0
  -1110714.242 8  54824810.815 6  21194615.676 0  21194616.377 0
 -55926161.324 6  94036875.480 7  23929125.398 0  23929129.429 0
  -5179892.337 7  -3637824.933 6  22968664.578 0  22968664.520 0
 88  2 25  9 41 29.0800000  0  4  3 13 11  9
 -10388076.793 7  76559480.418 6  22083859.989 0  22083860.923 0
  -1079730.163 7  54848954.263 6  21200511.120 0  21200512.694 0
 -55861422.352 6  94087321.406 6  23941446.045 0  23941447.043 0
  -5062886.965 7  -3546651.933 6  22990929.424 0  22990930.775 0
 88  2 25  9 41 59.0800000  0  4  3 13 11  9
 -10428059.116 8  76528325.390 7  22076251.162 0  22076252.425 0
  -1048626.480 7  54873190.916 7  21206430.346 0  21206431.978 0
 -55796726.158 6  94137734.008 6  23953757.813 0  23953759.133 0
  -4945681.533 8  -3455323.020 6  23013233.680 0  23013235.912 0
 88  2 25  9 42 29.0800000  0  4  3 13 11  9
 -10467873.081 7  76497301.537 7  22068674.173 0  22068676.144 0
  -1017404.824 7  54897519.477 7  21212371.552 0  21212373.355 0
 -55732073.026 7  94188113.077 6  23966061.057 0  23966063.454 0
  -4828279.061 7  -3363840.575 7  23035574.207 0  23035575.386 0
 88  2 25  9 42 59.0800000  0  4  3 13 11  9
 -10507519.626 7  76466408.155 7  22061129.923 0  22061131.837 0
   -986066.064 8  54921939.291 7  21218335.709 0  21218336.968 0
 -55667462.609 7  94238458.835 6  23978355.526 0  23978357.354 0
  -4710683.068 7  -3272207.327 6  23057952.646 0  23057953.274 0
 88  2 25  9 43 29.0800000  0  4  3 13 11  9
 -10546999.052 7  76435644.985 6  22053615.730 0  22053618.616 0
   -954611.004 8  54946449.731 7  21224321.101 0  21224322.975 0
 -55602895.030 7  94288771.242 7  23990642.765 0  23990644.593 0
  -4592897.003 7  -3180425.996 7  23080365.012 0  23080367.154 0
 88  2 25  9 43 59.0800000  0  4  3 13 11  9
 -10586312.483 7  76405011.164 7  22046134.591 0  22046136.390 0
   -923041.465 8  54971049.360 7  21230328.929 0  21230330.517 0
 -55538370.729 7  94339049.900 7  24002921.483 0  24002922.249 0
  -4474924.276 7  -3088499.218 7  23102815.318 0  23102816.594 0
 88  2 25  9 44 29.0800000  0  4  3 13 11  9
 -10625460.448 7  76374506.268 7  22038685.690 0  22038687.676 0
   -891358.320 7  54995737.543 6  21236358.651 0  21236357.964 0
 -55473889.784 8  94389294.795 7  24015191.780 0  24015193.154 0
  -4356768.533 7  -2996429.790 6  23125299.202 0  23125299.823 0
 88  2 25  9 44 59.0800000  0  4  3 13 11  9
 -10664443.439 7  76344129.934 6  22031267.383 0  22031268.674 0
   -859562.578 7  55020513.444 7  21242409.150 0  21242409.178 0
 -55409452.127 8  94439505.948 7  24027454.947 0  24027455.716 0
  -4238432.887 7  -2904220.218 6  23147816.594 0  23147820.112 0
 88  2 25  9 45 29.0800000  0  4  3 13 11  9
 -10703262.514 7  76313881.333 6  22023880.878 0  22023881.897 0
   -827655.377 7  55045376.187 7  21248479.567 0  21248480.926 0
 -55345058.008 7  94489683.163 7  24039707.690 0  24039709.500 0
  -4119920.787 7  -2811873.122 6  23170369.472 0  23170371.675 0
 88  2 25  9 45 59.0800000  0  4  3 13 11  9
 -10741917.963 7  76283760.222 6  22016525.187 0  22016526.228 0
   -795637.809 7  55070324.939 6  21254572.564 0  21254574.467 0
 -55280707.510 7  94539826.413 6  24051953.418 0  24051955.103 0
  -4001235.714 7  -2719391.237 6  23192956.578 0  23192955.901 0
 88  2 25  9 46 29.0800000  0  4  3 13 11  9
 -10780410.751 7  76253765.853 7  22009199.066 0  22009201.796 0
   -763511.005 8  55095358.816 6  21260686.280 0  21260687.197 0
 -55216400.809 8  94589935.517 7  24064190.375 0  24064192.886 0
  -3882380.956 7  -2626777.133 6  23215572.769 0  23215573.164 0
 88  2 25  9 46 59.0800000  0  4  3 13 11  9
 -10818741.856 7  76223897.487 7  22001906.072 0  22001907.564 0
   -731276.246 8  55120476.817 6  21266819.887 0  21266820.803 0
 -55152137.815 8  94640010.560 7  24076419.443 0  24076420.846 0
  -3763360.153 8  -2534033.666 7  23238221.329 0  23238222.637 0
 88  2 25  9 47 29.0800000  0  4  3 13 11  9
 -10856912.288 7  76194154.307 6  21994642.496 0  21994642.193 0
   -698934.991 7  55145677.804 6  21272974.671 0  21272976.518 0
 -55087918.808 8  94690051.340 7  24088639.164 0  24088640.642 0
  -3644176.361 7  -2441163.180 6  23260901.849 0  23260902.248 0
 88  2 25  9 47 59.0800000  0  4  3 13 11  9
 -10894922.572 7  76164535.911 7  21987408.827 0  21987410.227 0
   -666487.809 7  55170961.317 6  21279149.975 0  21279150.275 0
 -55023743.719 8  94740057.895 7  24100851.237 0  24100853.931 0
  -3524833.227 7  -2348168.524 7  23283612.058 0  23283612.843 0
 88  2 25  9 48 29.0800000  0  4  3 13 12  9
 -10932773.576 6  76135041.657 6  21980207.158 0  21980207.578 0
   -633935.586 7  55196326.701 7  21285343.999 0  21285344.489 0
         -.021 5          .395 7  20979277.589 0          .000 0
  -3405334.209 7  -2255052.440 2  23306352.630 0  23306352.986 0
 88  2 25  9 48 59.0800000  0  4  3 13 12  9
 -10970465.942 7  76105670.971 6  21973034.461 0  21973035.141 0
   -601279.812 7  55221772.755 7  21291557.435 0  21291560.093 0
     47705.998 6  32810101.720 5  20988382.239 0  20988383.720 0
  -3285682.684 2  -2161817.472 1  23329119.789 0  23329121.256 0
 88  2 25  9 49 29.0800000  0  4  3 13 12  9
 -11008000.476 7  76076423.313 6  21965891.051 0  21965890.999 0
   -568520.975 7  55247299.116 7  21297791.996 0  21297792.875 0
     95996.642 6  32847730.772 6  20997571.884 0  20997574.254 0
  -3165881.734 1  -2068466.089 1  23351918.088 0  23351921.829 0
 88  2 25  9 49 59.0800000  0  4  3 13 12  9
 -11045377.806 7  76047298.122 6  21958777.819 0  21958778.292 0
   -535660.740 8  55272904.493 7  21304043.887 0  21304045.449 0
    144869.644 5  32885813.601 6  21006871.845 0  21006872.961 0
  -3045934.794 5  -1975000.928 2  23374744.741 0  23374740.871 0
 88  2 25  9 50 29.0800000  0  4  3 13 12  9
 -11082598.842 7  76018294.730 7  21951696.165 0  21951696.456 0
   -502700.263 7  55298587.978 6  21310316.858 0  21310316.902 0
    194322.804 8  32924348.521 7  21016282.379 0  21016283.653 0
  -2925845.633 7  -1881424.987 7  23397596.079 0  23397596.659 0
 88  2 25  9 50 59.0800000  0  4  3 13 12  9
 -11119664.224 7  75989412.623 7  21944642.852 0  21944644.224 0
   -469640.409 7  55324348.903 7  21316607.826 0  21316609.945 0
    244354.424 7  32963334.176 7  21025802.048 0  21025805.611 0
  -2805617.510 6  -1787740.776 7  23420473.588 0  23420473.248 0
 88  2 25  9 51 29.0800000  0  4  3 13 12  9
 -11156574.810 7  75960651.145 6  21937618.978 0  21937618.983 0
   -436481.948 7  55350186.656 6  21322917.689 0  21322919.271 0
    294962.930 7  33002769.361 6  21035434.276 0  21035434.350 0
  -2685253.606 6  -1693950.723 7  23443378.215 0  23443379.260 0
 88  2 25  9 51 59.0800000  0  4  3 13 12  9
 -11193331.500 7  75932009.561 6  21930624.388 0  21930625.452 0
   -403225.932 7  55376100.438 6  21329247.089 0  21329247.521 0
    346145.879 7  33042652.167 6  21045173.450 0  21045175.411 0
  -2564757.528 6  -1600057.705 6  23466307.170 0  23466309.200 0
 88  2 25  9 52 29.0800000  0  4  3 13 12  9
 -11229934.794 7  75903487.544 6  21923658.467 0  21923659.266 0
   -369873.678 7  55402089.207 6  21335593.713 0  21335594.038 0
    397901.097 8  33082980.897 7  21055023.507 0  21055023.798 0
  -2444132.323 7  -1506064.049 6  23489262.253 0  23489262.185 0
 88  2 25  9 52 59.0800000  0  4  3 13 12  9
 -11266385.066 7  75875084.748 6  21916721.755 0  21916723.139 0
   -336425.310 7  55428152.874 6  21341957.224 0  21341959.573 0
    450226.534 7  33123753.946 7  21064979.608 0  21064981.446 0
  -2323381.504 6  -1411972.505 6  23512240.690 0  23512241.412 0
 88  2 25  9 53 29.0800000  0  4  3 13 12  9
 -11302683.110 7  75846800.558 6  21909815.161 0  21909816.092 0
   -302883.054 7  55454289.702 7  21348340.995 0  21348340.557 0
    503120.348 7  33164969.886 7  21075045.174 0  21075045.896 0
  -2202508.707 7  -1317785.885 6  23535242.153 0  23535242.519 0
 88  2 25  9 53 59.0800000  0  4  3 13 12  9
 -11338829.825 7  75818634.295 7  21902935.457 0  21902937.030 0
   -269247.245 7  55480499.425 7  21354742.080 0  21354742.394 0
    556580.182 8  33206626.888 7  21085218.436 0  21085218.013 0
  -2081517.006 7  -1223506.656 7  23558266.034 0  23558267.059 0
 88  2 25  9 54 29.0800000  0  4  3 13 12  9
 -11374826.285 6  75790585.138 6  21896086.770 0  21896087.722 0
   -235518.352 7  55506781.677 6  21361161.011 0  21361161.570 0
    610604.088 8  33248723.419 6  21095498.754 0  21095499.534 0
  -1960409.968 7  -1129137.524 7  23581312.343 0  23581313.802 0
 88  2 25  9 54 59.0800000  0  4  3 13 12  9
 -11410673.278 7  75762652.448 6  21889264.938 0  21889265.374 0
   -201697.891 7  55533135.275 6  21367596.079 0  21367597.187 0
    665189.785 8  33291257.725 7  21105885.207 0  21105887.342 0
  -1839190.808 7  -1034681.019 6  23604379.667 0  23604379.117 0
 88  2 25  9 55 29.0800000  0  4  3 13 12  9
 -11446371.307 7  75734835.799 5  21882472.434 0  21882471.974 0
   -167786.657 7  55559559.613 6  21374049.231 0  21374050.921 0
    720335.125 7  33334228.099 7  21116379.492 0  21116381.100 0
  -1717862.635 7   -940139.595 6  23627466.424 0  23627468.014 0
 88  2 25  9 55 59.0800000  0  4  3 13 12  9
 -11481921.417 7  75707134.412 6  21875707.019 0  21875708.330 0
   -133785.245 7  55586054.230 7  21380519.013 0  21380520.729 0
    776037.986 8  33377632.911 7  21126979.378 0  21126980.912 0
  -1596429.411 6   -845516.304 6  23650575.654 0  23650575.917 0
 88  2 25  9 56 29.0800000  0  4  3 13 12  9
 -11517324.249 7  75679547.809 6  21868970.143 0  21868971.043 0
    -99695.285 7  55612617.834 7  21387006.429 0  21387006.968 0
    832295.974 7  33421470.281 7  21137685.137 0  21137686.843 0
  -1474894.194 7   -750813.525 6  23673702.104 0  23673704.656 0
 88  2 25  9 56 59.0800000  0  4  3 13 12  9
 -11552580.071 7  75652075.750 7  21862260.855 0  21862261.929 0
    -65517.920 7  55639249.546 6  21393510.007 0  21393511.167 0
    889106.751 8  33465738.407 7  21148495.901 0  21148497.752 0
  -1353260.081 7   -656033.705 7  23696848.967 0  23696849.801 0
 88  2 25  9 57 29.0800000  0  4  3 13 12  9
 -11587690.030 7  75624717.367 6  21855579.540 0  21855579.823 0
    -31253.226 7  55665949.308 7  21400030.002 0  21400031.660 0
    946468.264 8  33510435.675 6  21159410.923 0  21159413.568 0
  -1231530.634 6   -561179.598 6  23720013.225 0  23720015.149 0
 88  2 25  9 57 59.0800000  0  4  3 13 12  9
 -11622654.653 8  75597472.208 6  21848926.767 0  21848926.298 0
      3097.903 8  55692716.423 6  21406566.966 0  21406567.964 0
   1004378.218 7  33555560.303 7  21170430.726 0  21170432.477 0
  -1109709.363 7   -466253.960 6  23743194.197 0  23743196.150 0
 88  2 25  9 58 29.0800000  0  4  3 13 12  9
 -11657474.923 8  75570339.511 6  21842300.328 0  21842300.875 0
     37534.047 8  55719549.766 6  21413120.661 0  21413121.064 0
   1062834.582 5  33601110.682 5  21181554.246 0  21181556.978 0
   -987799.412 6   -371259.227 6  23766392.676 0  23766393.913 0
 88  2 25  9 58 59.0800000  0  4  3 13 12  9
 -11692151.207 7  75543319.045 6  21835701.768 0  21835702.445 0
     72054.568 7  55746448.873 7  21419689.589 0  21419690.879 0
   1121834.222 8  33647084.423 6  21192782.256 0  21192782.860 0
   -865803.899 6   -276197.815 6  23789607.107 0  23789610.660 0
 88  2 25  9 59 29.0800000  0  4  3 13 12  9
 -11726684.535 7  75516409.977 6  21829129.823 0  21829131.778 0
    106658.529 7  55773413.010 7  21426275.195 0  21426275.352 0
   1181375.056 8  33693479.881 6  21204112.446 0  21204113.061 0
   -743726.350 6   -181072.461 7  23812839.190 0  23812840.583 0
 88  2 25  9 59 59.0800000  0  4  3 13 12  9
 -11761075.562 7  75489611.800 7  21822585.644 0  21822587.071 0
    141345.479 7  55800441.787 7  21432874.387 0  21432875.955 0
   1241454.760 7  33740295.213 6  21215545.623 0  21215546.563 0
   -621570.160 2    -85885.786 1  23836086.262 0  23836081.454 0
 88  2 25 10  0 29.0800000  0  4  3 13 12  9
 -11795324.814 8  75462924.084 7  21816067.078 0  21816068.567 0
    176113.988 7  55827534.136 7  21439491.850 0  21439491.641 0
   1302070.790 7  33787528.484 7  21227081.265 0  21227081.534 0
   -499338.437 1      9359.706 1  23859349.335 0  23859344.477 0
 88  2 25 10  0 59.0800000  0  4  3 13 12  9
 -11829432.933 7  75436346.325 6  21809577.479 0  21809577.977 0
    210963.860 8  55854689.887 6  21446123.133 0  21446124.050 0
   1363220.955 6  33835177.945 6  21238717.282 0  21238718.465 0
   -377034.644 4    104661.325 1  23882620.426 0  23882621.591 0
 88  2 25 10  1 29.0800000  0  4  3 13 12  9
 -11863400.911 7  75409877.795 6  21803113.979 0  21803114.770 0
    245893.988 8  55881908.166 6  21452769.964 0  21452770.841 0
   1424902.713 7  33883241.622 6  21250454.056 0  21250456.648 0
   -254661.977 4    200016.639 1  23905906.268 0  23905908.662 0
 88  2 25 10  1 59.0800000  0  4  3 13 12  9
 -11897229.422 7  75383517.907 6  21796677.437 0  21796677.446 0
    280903.386 7  55909188.217 6  21459432.942 0  21459432.350 0
   1487113.457 6  33931717.518 5  21262291.073 0  21262294.185 0
   -132223.680 1    295423.107 2  23929204.237 0  23929203.146 0
 88  2 25 10  2 29.0800000  0  4  3 13 12  9
 -11930919.043 7  75357266.271 6  21790266.318 0  21790267.801 0
    315991.747 7  55936529.788 6  21466108.901 0  21466110.297 0
   1549850.937 6  33980603.850 6  21274231.097 0  21274234.163 0
     -9723.595 5    390877.703 3  23952515.759 0  23952515.758 0
 88  2 25 10  2 59.0800000  0  4  3 13 12  9
 -11964470.512 7  75331122.279 7  21783880.174 0  21783881.051 0
    351158.013 7  55963932.072 7  21472800.945 0  21472803.055 0
   1613112.443 7  34029898.515 6  21286269.682 0  21286271.698 0
    112835.471 1    486378.298 2  23975839.213 0  23975837.282 0
 88  2 25 10  3 29.0800000  0  4  3 13 12  9
 -11997884.546 7  75305085.389 6  21777521.322 0  21777523.415 0
    386401.599 8  55991394.595 7  21479507.782 0  21479509.320 0
   1676895.260 7  34079599.409 6  21298407.790 0  21298408.620 0
    235450.477 3    581922.435 3  23999166.563 0  23999170.855 0
 88  2 25 10  3 59.0800000  0  4  3 13 12  9
 -12031161.969 7  75279154.929 6  21771188.750 0  21771191.922 0
    421721.084 8  56018916.270 6  21486227.363 0  21486229.370 0
   1741197.110 7  34129704.719 7  21310642.791 0  21310644.802 0
    358117.983 2    677507.513 2  24022513.599 0  24022514.975 0
 88  2 25 10  4 29.0800000  0  4  3 13 12  9
 -12064303.300 7  75253330.522 7  21764883.951 0  21764884.889 0
    457116.237 8  56046496.915 7  21492963.562 0  21492965.208 0
   1806015.650 4  34180212.668 4  21322976.387 0  21322979.046 0
    480834.502 1    773130.783 1  24045863.055 0  24045865.018 0
 88  2 25 10  4 59.0800000  0  4  3 13 12  9
 -12097309.049 7  75227611.779 6  21758602.157 0  21758603.107 0
    492586.560 7  56074136.131 7  21499713.523 0  21499715.416 0
   1871348.046 7  34231120.987 7  21335410.360 0  21335411.826 0
    603596.732 6    868789.664 6  24069224.908 0  24069226.502 0
 88  2 25 10  5 29.0800000  0  4  3 13 12  9
 -12130179.910 7  75201998.113 7  21752347.575 0  21752348.428 0
    528130.854 7  56101832.979 7  21506478.308 0  21506478.949 0
   1937191.468 7  34282427.547 7  21347938.898 0  21347942.130 0
    726401.607 6    964481.740 6  24092593.660 0  24092595.879 0
 88  2 25 10  5 59.0800000  0  4  3 13 12  9
 -12162916.867 7  75176488.819 7  21746115.985 0  21746119.127 0
    563748.454 7  56129586.957 7  21513256.613 0  21513257.505 0
   2003543.054 7  34334130.055 7  21360565.765 0  21360567.690 0
    849245.969 6   1060204.626 6  24115972.037 0  24115973.196 0
 88  2 25 10  6 29.0800000  0  4  3 13 12  9
 -12195520.702 7  75151083.239 6  21739912.990 0  21739914.312 0
    599438.806 7  56157397.623 7  21520047.269 0  21520049.568 0
   2070400.764 8  34386226.946 6  21373288.304 0  21373289.673 0
    972126.163 6   1155955.429 6  24139355.756 0  24139355.814 0
 88  2 25 10  6 59.0800000  0  4  3 13 12  9
 -12227992.172 7  75125780.817 6  21733733.588 0  21733734.046 0
    635200.980 7  56185264.249 7  21526851.834 0  21526853.268 0
   2137761.804 7  34438716.071 6  21386108.034 0  21386108.500 0
   1095039.306 6   1251731.888 7  24162743.320 0  24162745.796 0
 88  2 25 10  7 29.0800000  0  4  3 13 12  9
 -12260331.464 7  75100581.366 6  21727578.655 0  21727581.336 0
    671034.362 8  56213186.355 6  21533671.640 0  21533672.864 0
   2205623.067 7  34491594.942 8  21399020.135 0  21399022.400 0
   1217982.058 7   1347531.413 6  24186138.973 0  24186141.597 0
 88  2 25 10  7 59.0800000  0  4  3 13 12  9
 -12292539.115 7  75075484.505 6  21721450.491 0  21721452.194 0
    706937.809 7  56241163.070 7  21540503.106 0  21540505.210 0
   2273982.232 7  34544861.802 7  21412029.361 0  21412029.730 0
   1340951.004 6   1443351.363 7  24209539.902 0  24209540.932 0
 88  2 25 10  8 29.0800000  0  4  3 13 12  9
 -12324616.030 6  75050489.529 7  21715346.957 0  21715347.361 0
    742911.412 8  56269194.448 7  21547349.192 0  21547349.213 0
   2342836.492 8  34598514.471 7  21425131.754 0  21425132.397 0
   1463943.052 6   1539189.310 6  24232945.115 0  24232946.124 0
 88  2 25 10  8 59.0800000  0  4  3 13 12  9
 -12356563.298 7  75025595.563 6  21709268.080 0  21709269.494 0
    778954.216 7  56297279.752 7  21554207.448 0  21554209.016 0
   2412182.798 8  34652550.534 7  21438327.750 0  21438329.844 0
   1586955.086 7   1635042.845 7  24256352.167 0  24256355.242 0
 88  2 25 10  9 29.0800000  0  4  3 13 12  9
 -12388381.074 7  75000802.484 6  21703213.008 0  21703213.217 0
    815065.633 7  56325418.518 6  21561079.757 0  21561080.571 0
   2482018.968 7  34706968.305 7  21451617.227 0  21451618.929 0
   1709983.823 7   1730909.387 7  24279764.666 0  24279765.983 0
 88  2 25 10  9 59.0800000  0  4  3 13 12  9
 -12420070.203 7  74976109.665 6  21697183.807 0  21697184.466 0
    851245.114 7  56353610.323 7  21567963.652 0  21567966.529 0
   2552341.939 7  34761765.401 7  21464999.347 0  21465001.051 0
   1833026.018 7   1826786.415 7  24303179.132 0  24303180.336 0
 88  2 25 10 10 29.0800000  0  4  3 13 12  9
 -12451631.253 7  74951516.651 7  21691177.610 0  21691178.299 0
    887492.023 7  56381854.681 7  21574861.812 0  21574863.238 0
   2623148.787 7  34816939.556 7  21478472.752 0  21478475.783 0
   1956078.525 7   1922671.477 7  24326595.275 0  24326596.326 0
 88  2 25 10 10 59.0800000  0  4  3 13 12  9
 -12483064.749 7  74927023.034 6  21685195.703 0  21685196.934 0
    923805.963 7  56410151.253 6  21581772.599 0  21581774.483 0
   2694436.382 7  34872488.321 7  21492039.016 0  21492040.401 0
   2079138.042 7   2018562.001 6  24350013.242 0  24350014.090 0
 88  2 25 10 11 29.0800000  0  4  3 13 12  9
 -12514371.504 8  74902628.162 6  21679238.335 0  21679237.716 0
    960186.056 8  56438499.383 7  21588695.615 0  21588695.785 0
   2766202.078 7  34928409.616 6  21505696.236 0  21505697.524 0
   2202201.576 7   2114455.654 6  24373430.344 0  24373431.774 0
 88  2 25 10 11 59.0800000  0  4  3 13 12  9
 -12545552.196 7  74878331.516 6  21673305.337 0  21673305.887 0
    996631.401 8  56466898.340 6  21595629.634 0  21595631.889 0
   2838443.740 8  34984701.799 7  21519442.843 0  21519444.093 0
   2325265.691 7   2210349.778 7  24396848.882 0  24396849.555 0
 88  2 25 10 12 29.0800000  0  4  3 13 12  9
 -12576607.581 7  74854132.530 6  21667395.113 0  21667395.683 0
   1033141.170 8  56495347.522 7  21602577.970 0  21602579.064 0
   2911157.889 7  35041362.146 6  21533279.238 0  21533281.499 0
   2448327.399 7   2306241.998 6  24420268.044 0  24420267.573 0
 88  2 25 10 12 59.0800000  0  4  3 13 12  9
 -12607538.064 7  74830030.868 7  21661509.483 0  21661509.958 0
   1069715.453 7  56523846.957 7  21609537.271 0  21609538.760 0
   2984341.616 7  35098388.414 7  21547206.077 0  21547208.567 0
   2571383.513 6   2402129.889 6  24443683.383 0  24443683.897 0
 88  2 25 10 13 29.0800000  0  4  3 13 12  9
 -12638344.296 7  74806026.013 7  21655646.547 0  21655648.283 0
   1106353.415 7  56552396.020 7  21616509.799 0  21616511.961 0
   3057991.714 7  35155778.076 6  21561220.078 0  21561222.893 0
   2694430.778 6   2498010.890 6  24467099.598 0  24467099.648 0
 88  2 25 10 13 59.0800000  0  4  3 13 12  9
 -12669026.429 7  74782117.861 7  21649808.311 0  21649809.106 0
   1143054.332 7  56580994.138 7  21623493.425 0  21623495.475 0
   3132106.160 7  35213529.561 6  21575323.567 0  21575326.718 0
   2817466.035 6   2593882.496 6  24490511.440 0  24490512.560 0
 88  2 25 10 14 29.0800000  0  4  3 13 12  9
 -12699585.710 7  74758305.438 6  21643992.854 0  21643995.131 0
   1179818.360 7  56609641.454 7  21630489.255 0  21630490.201 0
   3206681.587 7  35271640.266 7  21589515.421 0  21589517.403 0
   2940486.304 5   2689742.416 6  24513920.635 0  24513922.446 0
 88  2 25 10 14 59.0800000  0  4  3 13 12  9
 -12730022.762 6  74734588.281 7  21638200.567 0  21638201.875 0
   1216644.927 7  56638337.455 7  21637497.125 0  21637498.968 0
   3281714.881 8  35330107.768 7  21603793.625 0  21603796.818 0
   3063488.220 6   2785588.050 6  24537327.628 0  24537329.067 0
 88  2 25 10 15 29.0800000  0  4  3 13 12  9
 -12760338.216 7  74710965.856 7  21632432.552 0  21632432.907 0
   1253532.522 7  56667081.037 7  21644516.767 0  21644518.451 0
   3357202.631 8  35388929.360 6  21618159.067 0  21618161.716 0
   3186468.591 6   2881416.932 6  24560731.287 0  24560732.761 0
 88  2 25 10 15 59.0800000  0  4  3 13 12  9
 -12790532.474 7  74687437.867 6  21626685.909 0  21626687.169 0
   1290481.053 7  56695872.094 6  21651547.934 0  21651548.544 0
   3433142.534 8  35448103.297 7  21632609.623 0  21632611.739 0
   3309424.644 6   2977226.828 6  24584128.373 0  24584129.108 0
 88  2 25 10 16 29.0800000  0  4  3 13 12  9
 -12820606.055 7  74664003.908 6  21620963.599 0  21620963.905 0
   1327490.142 7  56724710.357 7  21658591.586 0  21658592.082 0
   3509531.723 7  35507627.330 7  21647146.657 0  21647148.228 0
   3432352.986 6   3073015.162 6  24607521.055 0  24607520.893 0
 88  2 25 10 16 59.0800000  0  4  3 13 12  9
 -12850559.201 7  74640663.808 7  21615261.931 0  21615265.075 0
   1364559.482 7  56753595.568 7  21665644.403 0  21665645.931 0
   3586367.001 7  35567498.956 6  21661767.619 0  21661770.651 0
   3555250.455 7   3168779.431 6  24630906.346 0  24630907.812 0
 88  2 25 10 17 29.0800000  0  4  3 13 12  9
 -12880392.749 7  74617416.890 6  21609584.928 0  21609586.951 0
   1401688.414 7  56782527.194 7  21672710.192 0  21672711.225 0
   3663645.557 8  35627715.992 6  21676472.984 0  21676475.664 0
   3678114.184 7   3264517.391 7  24654287.566 0  24654288.543 0
 88  2 25 10 17 59.0800000  0  4  3 13 12  9
 -12910107.432 7  74594262.605 7  21603931.284 0  21603932.739 0
   1438876.266 8  56811504.724 6  21679786.696 0  21679788.546 0
   3741363.738 7  35688275.605 6  21691262.669 0  21691264.179 0
   3800940.925 7   3360226.570 7  24677660.668 0  24677661.779 0
 88  2 25 10 18 29.0800000  0  4  3 13 12  9
 -12939703.917 7  74571200.422 6  21598300.515 0  21598300.746 0
   1476122.944 7  56840528.114 7  21686873.694 0  21686875.502 0
   3819518.662 8  35749175.539 7  21706135.010 0  21706137.034 0
   3923727.704 8   3455904.595 6  24701026.769 0  24701026.809 0
 88  2 25 10 18 59.0800000  0  4  3 13 12  9
 -12969182.686 7  74548229.939 6  21592691.116 0  21592691.870 0
   1513427.568 7  56869596.651 7  21693972.654 0  21693974.776 0
   3898107.206 7  35810413.338 7  21721090.329 0  21721091.828 0
   4046471.283 8   3551548.940 6  24724383.882 0  24724384.911 0
 88  2 25 10 19 29.0800000  0  4  3 13 12  9
 -12998544.272 7  74525350.800 6  21587102.594 0  21587104.081 0
   1550789.745 7  56898710.028 6  21701083.367 0  21701085.226 0
   3977126.844 8  35871987.083 7  21736127.479 0  21736128.210 0
   4169168.434 7   3647157.105 7  24747732.910 0  24747732.876 0
 88  2 25 10 19 59.0800000  0  4  3 13 12  9
 -13027789.712 7  74502562.131 6  21581538.367 0  21581539.077 0
   1588209.646 7  56927868.380 7  21708203.169 0  21708205.288 0
   4056573.855 7  35933893.822 7  21751245.209 0  21751246.675 0
   4291816.454 7   3742727.006 7  24771071.523 0  24771073.042 0
 88  2 25 10 20 29.0800000  0  4  3 13 12  9
 -13056918.358 8  74479864.492 7  21575994.526 0  21575995.451 0
   1625686.758 7  56957071.329 7  21715335.942 0  21715337.429 0
   4136445.426 7  35996131.393 7  21766444.256 0  21766445.476 0
   4414412.242 7   3838256.176 7  24794400.796 0  24794401.502 0
 88  2 25 10 20 59.0800000  0  4  3 13 12  9
 -13085931.133 7  74457257.150 6  21570473.696 0  21570474.920 0
   1663220.138 8  56986318.128 6  21722478.419 0  21722478.831 0
   4216738.287 8  36058697.244 7  21781724.378 0  21781725.183 0
   4536952.525 7   3933742.091 7  24817718.686 0  24817720.121 0
 88  2 25 10 21 29.0800000  0  4  3 13 12  9
 -13114829.220 8  74434739.161 7  21564975.497 0  21564975.321 0
   1700809.643 7  57015608.641 7  21729630.664 0  21729633.332 0
   4297449.132 7  36121588.801 7  21797082.566 0  21797084.759 0
   4659434.515 6   4029182.572 7  24841026.533 0  24841027.852 0
 88  2 25 10 21 59.0800000  0  4  3 13 12  9
 -13143612.300 7  74412310.776 7  21559496.626 0  21559497.856 0
   1738454.725 7  57044942.473 7  21736793.335 0  21736795.284 0
   4378575.354 7  36184804.025 7  21812520.198 0  21812521.604 0
   4781854.971 5   4124575.124 7  24864321.811 0  24864323.586 0
 88  2 25 10 22 29.0800000  0  4  3 13 12  9
 -13172281.395 7  74389971.230 6  21554041.253 0  21554043.045 0
   1776155.146 7  57074319.422 7  21743969.269 0  21743970.160 0
   4460113.624 8  36248340.310 7  21828036.068 0  21828038.492 0
   4904210.611 5   4219917.177 7  24887606.727 0  24887607.472 0
 88  2 25 10 22 59.0800000  0  4  3 13 12  9
 -13200837.149 6  74367720.011 6  21548607.839 0  21548609.089 0
   1813910.085 7  57103738.868 7  21751153.958 0  21751153.268 0
   4542060.301 7  36312194.836 7  21843629.435 0  21843631.560 0
   5026498.697 4   4315206.504 7  24910875.311 0  24910878.164 0
 88  2 25 10 23 29.0800000  0  4  3 13 12  9
 -13229280.180 7  74345556.617 7  21543194.971 0  21543196.850 0
   1851719.629 7  57133200.845 6  21758347.447 0  21758348.579 0
   4624412.646 7  36376365.477 6  21859301.749 0  21859303.925 0
   5148716.356 5   4410440.941 6  24934133.017 0  24934135.698 0
 88  2 25 10 23 59.0800000  0  4  3 13 12  9
 -13257610.871 7  74323480.760 6  21537804.731 0  21537805.939 0
   1889583.599 8  57162705.238 6  21765554.256 0  21765554.840 0
   4707167.481 8  36440849.739 7  21875048.838 0  21875051.234 0
   5270860.250 7   4505618.004 5  24957377.649 0  24957378.464 0
 88  2 25 10 24 29.0800000  0  3  3 13 12
 -13285829.566 7  74301492.182 7  21532434.763 0  21532435.668 0
   1927501.477 7  57192251.628 7  21772769.683 0  21772769.517 0
   4790321.500 7  36505645.068 7  21890872.950 0  21890874.415 0
 88  2 25 10 24 59.0800000  0  3  3 13 12
 -13313936.977 7  74279590.302 6  21527085.204 0  21527086.219 0
   1965472.405 8  57221839.349 7  21779994.557 0  21779995.854 0
   4873871.730 7  36570749.115 7  21906772.598 0  21906774.914 0
 88  2 25 10 25 29.0800000  0  3  3 13 12
 -13341933.188 7  74257775.067 6  21521757.930 0  21521758.611 0
   2003496.563 8  57251468.569 7  21787230.650 0  21787231.411 0
   4957814.475 7  36636159.029 6  21922745.601 0  21922747.960 0
 88  2 25 10 25 59.0800000  0  3  3 13 12
 -13369818.980 7  74236045.896 7  21516451.328 0  21516452.414 0
   2041573.642 8  57281139.022 7  21794476.627 0  21794476.430 0
   5042146.628 7  36701872.380 7  21938793.843 0  21938794.889 0
 88  2 25 10 26 29.0800000  0  3  3 13 12
 -13397594.493 7  74214402.638 6  21511166.190 0  21511167.194 0
   2079703.530 8  57310850.628 6  21801731.995 0  21801733.193 0
   5126865.210 7  36767886.830 6  21954914.799 0  21954916.616 0
 88  2 25 10 26 59.0800000  0  3  3 13 12
 -13425260.887 7  74192844.410 6  21505901.055 0  21505902.169 0
   2117885.759 7  57340603.018 7  21808998.426 0  21808998.795 0
   5211966.773 7  36834199.721 7  21971108.857 0  21971111.819 0
 88  2 25 10 27 29.0800000  0  3  3 13 12
 -13452818.289 7  74171371.126 6  21500656.382 0  21500658.384 0
   2156120.063 7  57370395.987 6  21816273.771 0  21816274.939 0
   5297448.188 7  36900808.602 6  21987376.491 0  21987377.842 0
 88  2 25 10 27 59.0800000  0  3  3 13 12
 -13480266.822 7  74149982.655 6  21495433.213 0  21495435.182 0
   2194406.101 7  57400229.259 6  21823559.791 0  21823560.831 0
   5383305.998 7  36967710.765 6  22003713.743 0  22003715.942 0
 88  2 25 10 28 29.0800000  0  3  3 13 12
 -13507607.219 7  74128678.455 6  21490231.363 0  21490231.695 0
   2232743.357 7  57430102.456 7  21830854.915 0  21830854.895 0
   5469536.928 7  37034903.699 6  22020123.466 0  22020125.528 0
 88  2 25 10 28 59.0800000  0  3  3 13 12
 -13534839.784 7  74107458.278 6  21485049.204 0  21485049.408 0
   2271132.018 8  57460015.683 6  21838160.362 0  21838160.808 0
   5556137.910 8  37102384.971 7  22036603.124 0  22036603.897 0
 88  2 25 10 29 29.0800000  0  3  3 13 12
 -13561964.770 7  74086321.932 6  21479887.295 0  21479887.618 0
   2309571.670 7  57489968.654 7  21845474.002 0  21845475.645 0
   5643105.502 8  37170151.923 6  22053151.614 0  22053154.778 0
 88  2 25 10 29 59.0800000  0  3  3 13 12
 -13588982.794 7  74065268.920 6  21474746.383 0  21474747.404 0
   2348061.717 8  57519960.917 7  21852799.238 0  21852800.216 0
   5730436.461 7  37238202.009 7  22069771.250 0  22069771.561 0
 88  2 25 10 30 29.0800000  0  3  3 13 12
 -13615894.576 7  74044298.725 6  21469625.354 0  21469626.887 0
   2386602.697 7  57549992.832 6  21860134.230 0  21860135.011 0
   5818127.039 7  37306532.310 6  22086457.629 0  22086459.471 0
 88  2 25 10 30 59.0800000  0  3  3 13 12
 -13642700.095 7  74023411.311 6  21464524.124 0  21464526.827 0
   2425193.598 7  57580063.659 7  21867476.062 0  21867477.773 0
   5906174.306 8  37375140.566 6  22103211.963 0  22103215.139 0
 88  2 25 10 31 29.0800000  0  3  3 13 12
 -13669399.762 7  74002606.374 6  21459442.160 0  21459443.360 0
   2463834.600 7  57610173.532 7  21874829.249 0  21874830.443 0
   5994575.083 8  37444024.270 7  22120034.563 0  22120036.812 0
 88  2 25 10 31 59.0800000  0  3  3 13 12
 -13695993.995 7  73981883.609 5  21454382.762 0  21454383.218 0
   2502525.649 7  57640322.406 7  21882192.742 0  21882194.428 0
   6083325.619 7  37513180.533 7  22136923.362 0  22136926.302 0
 88  2 25 10 32 29.0800000  0  3  3 13 12
 -13722483.432 7  73961242.498 6  21449341.766 0  21449341.173 0
   2541266.403 6  57670509.997 6  21889565.104 0  21889566.369 0
   6172422.911 8  37582606.970 7  22153878.684 0  22153880.610 0
 88  2 25 10 32 59.0800000  0  3  3 13 12
 -13748868.461 7  73940682.729 6  21444320.651 0  21444322.034 0
   2580056.659 7  57700736.187 6  21896945.766 0  21896947.073 0
   6261863.610 7  37652301.022 6  22170897.836 0  22170898.567 0
 88  2 25 10 33 29.0800000  0  3  3 13 12
 -13775149.367 7  73920204.122 7  21439319.533 0  21439320.513 0
   2618896.730 7  57731001.174 7  21904336.884 0  21904338.321 0
   6351644.334 7  37722260.009 6  22187982.574 0  22187984.200 0
 88  2 25 10 33 59.0800000  0  3  3 13 12
 -13801326.562 8  73899806.322 6  21434339.074 0  21434338.209 0
   2657786.049 8  57761304.519 6  21911737.879 0  21911739.453 0
   6441761.314 7  37792481.011 7  22205131.368 0  22205134.003 0
 88  2 25 10 34 29.0800000  0  3  3 13 12
 -13827400.565 7  73879488.929 6  21429376.970 0  21429378.203 0
   2696724.334 7  57791646.041 7  21919146.930 0  21919149.205 0
   6532211.374 7  37862961.562 7  22222344.127 0  22222346.413 0
 88  2 25 10 34 59.0800000  0  3  3 13 12
 -13853371.005 7  73859252.215 6  21424435.595 0  21424435.213 0
   2735712.088 8  57822026.112 7  21926567.276 0  21926567.319 0
   6622991.387 7  37933699.215 7  22239619.117 0  22239620.973 0
 88  2 25 10 35 29.0800000  0  3  3 13 12
 -13879238.632 7  73839095.637 7  21419512.241 0  21419512.396 0
   2774748.727 7  57852444.275 7  21933993.927 0  21933996.337 0
   6714097.699 8  38004691.143 7  22256955.208 0  22256957.781 0
 88  2 25 10 35 59.0800000  0  3  3 13 12
 -13905003.716 7  73819018.927 6  21414609.006 0  21414610.216 0
   2813834.118 7  57882900.427 7  21941432.134 0  21941433.677 0
   6805526.970 7  38075934.707 7  22274353.590 0  22274356.875 0
 88  2 25 10 36 29.0800000  0  3  3 13 12
 -13930666.759 7  73799021.760 6  21409725.459 0  21409726.015 0
   2852968.041 7  57913394.383 7  21948879.296 0  21948881.342 0
   6897275.465 7  38147427.025 7  22291812.711 0  22291815.616 0
 88  2 25 10 36 59.0800000  0  3  3 13 12
 -13956228.196 7  73779103.780 6  21404862.489 0  21404863.041 0
   2892150.462 8  57943926.142 7  21956336.114 0  21956337.296 0
   6989340.101 7  38219165.708 6  22309334.338 0  22309334.880 0
 88  2 25 10 37 29.0800000  0  3  3 13 12
 -13981688.182 7  73759264.825 7  21400016.681 0  21400016.476 0
   2931381.309 7  57974495.631 6  21963801.669 0  21963802.957 0
   7081717.636 7  38291148.199 7  22326910.903 0  22326913.627 0
 88  2 25 10 37 59.0800000  0  3  3 13 12
 -14007046.847 7  73739504.848 6  21395190.134 0  21395191.391 0
   2970660.394 7  58005102.703 6  21971275.128 0  21971277.340 0
   7174404.174 7  38363371.478 6  22344549.089 0  22344551.039 0
 88  2 25 10 38 29.0800000  0  3  3 13 12
 -14032304.656 7  73719823.439 7  21390385.059 0  21390386.593 0
   3009987.870 7  58035747.483 7  21978758.100 0  21978761.586 0
   7267396.679 7  38435833.174 6  22362244.457 0  22362247.673 0
 88  2 25 10 38 59.0800000  0  3  3 13 12
 -14057461.877 7  73700220.415 6  21385596.526 0  21385596.940 0
   3049364.250 7  58066430.381 7  21986250.977 0  21986253.907 0
   7360691.627 7  38508530.522 6  22379999.242 0  22379999.045 0
 88  2 25 10 39 29.0800000  0  3  3 13 12
 -14082518.730 8  73680695.598 7  21380829.542 0  21380830.061 0
   3088788.828 7  58097150.826 7  21993754.337 0  21993755.341 0
   7454285.112 8  38581460.534 6  22397809.640 0  22397810.055 0
 88  2 25 10 39 59.0800000  0  3  3 13 12
 -14107475.535 7  73661248.760 6  21376080.845 0  21376080.788 0
   3128261.434 7  58127908.697 7  22001265.543 0  22001267.896 0
   7548173.933 8  38654620.648 7  22415676.204 0  22415677.253 0
 88  2 25 10 40 29.0800000  0  3  3 13 12
 -14132332.400 7  73641879.762 6  21371349.836 0  21371351.370 0
   3167782.761 7  58158704.529 6  22008786.137 0  22008788.664 0
   7642355.157 7  38728008.605 7  22433596.515 0  22433598.138 0
 88  2 25 10 40 59.0800000  0  3  3 13 12
 -14157089.441 7  73622588.576 7  21366637.857 0  21366639.415 0
   3207352.003 7  58189537.707 6  22016316.106 0  22016319.272 0
   7736824.922 7  38801621.398 6  22451573.758 0  22451576.069 0
 88  2 25 10 41 29.0800000  0  3  3 13 12
 -14181747.272 8  73603374.687 6  21361946.463 0  21361948.613 0
   3246969.687 8  58220408.640 6  22023854.947 0  22023857.417 0
   7831579.718 7  38875456.283 6  22469604.188 0  22469607.063 0
 88  2 25 10 41 59.0800000  0  3  3 13 12
 -14206306.362 7  73584237.752 6  21357272.824 0  21357274.325 0
   3286635.613 7  58251317.139 7  22031403.512 0  22031403.799 0
   7926616.489 7  38949510.909 7  22487689.829 0  22487690.182 0
 88  2 25 10 42 29.0800000  0  3  3 13 12
 -14230766.470 7  73565177.923 7  21352619.055 0  21352619.516 0
   3326349.732 7  58282263.207 6  22038960.995 0  22038962.103 0
   8021931.598 8  39023782.425 6  22505827.873 0  22505829.890 0
 88  2 25 10 42 59.0800000  0  3  3 13 12
 -14255128.404 7  73546194.602 6  21347982.217 0  21347984.324 0
   3366112.081 7  58313246.860 6  22046526.829 0  22046529.124 0
   8117521.322 7  39098267.929 7  22524018.006 0  22524020.354 0
 88  2 25 10 43 29.0800000  0  3  3 13 12
 -14279392.058 7  73527287.878 6  21343364.908 0  21343365.627 0
   3405922.606 7  58344268.051 7  22054103.157 0  22054103.787 0
   8213382.101 7  39172964.647 7  22542259.901 0  22542261.838 0
 88  2 25 10 43 59.0800000  0  3  3 13 12
 -14303557.458 7  73508457.680 6  21338766.830 0  21338767.158 0
   3445781.688 7  58375327.069 6  22061688.188 0  22061690.509 0
   8309510.592 8  39247869.962 6  22560552.714 0  22560555.124 0
 88  2 25 10 44 29.0800000  0  3  3 13 12
 -14327624.734 7  73489703.974 6  21334186.991 0  21334188.026 0
   3485689.289 7  58406423.907 7  22069283.064 0  22069283.413 0
   8405903.124 7  39322981.015 7  22578895.748 0  22578896.815 0
 88  2 25 10 44 59.0800000  0  3  3 13 12
 -14351594.107 7  73471026.524 6  21329626.662 0  21329626.585 0
   3525645.205 7  58437558.386 7  22076885.366 0  22076886.047 0
   8502556.406 8  39398295.236 7  22597288.603 0  22597290.116 0
 88  2 25 10 45 29.0800000  0  3  3 13 12
 -14375466.085 7  73452425.007 6  21325083.541 0  21325083.368 0
   3565649.138 7  58468730.266 6  22084498.011 0  22084499.688 0
   8599466.752 7  39473809.778 7  22615729.547 0  22615731.625 0
 88  2 25 10 45 59.0800000  0  3  3 13 12
 -14399240.599 7  73433899.417 6  21320559.460 0  21320560.355 0
   3605701.736 7  58499940.091 7  22092119.830 0  22092121.496 0
   8696631.152 7  39549522.285 7  22634218.102 0  22634222.580 0
 88  2 25 10 46 29.0800000  0  3  3 13 12
 -14422917.670 7  73415449.753 6  21316053.219 0  21316053.290 0
   3645803.419 7  58531188.165 6  22099750.493 0  22099751.764 0
   8794046.188 7  39625430.101 6  22652756.267 0  22652759.264 0
 88  2 25 10 46 59.0800000  0  3  3 13 12
 -14446497.663 8  73397075.743 6  21311566.487 0  21311568.286 0
   3685953.887 8  58562474.234 7  22107391.167 0  22107392.369 0
   8891708.052 7  39701530.239 6  22671341.548 0  22671342.326 0
 88  2 25 10 47 29.0800000  0  3  3 13 12
 -14469980.659 7  73378777.304 7  21307097.668 0  21307098.821 0
   3726152.817 7  58593798.074 6  22115040.624 0  22115042.504 0
   8989613.076 7  39777819.877 6  22689971.518 0  22689973.093 0
 88  2 25 10 47 59.0800000  0  3  3 13 12
 -14493366.654 8  73360554.447 6  21302648.033 0  21302649.105 0
   3766400.642 7  58625160.010 7  22122699.564 0  22122700.692 0
   9087758.125 8  39854296.531 6  22708647.958 0  22708649.501 0
 88  2 25 10 48 29.0800000  0  3  3 13 12
 -14516656.082 7  73342406.854 6  21298215.722 0  21298216.136 0
   3806697.864 8  58656560.456 7  22130368.991 0  22130369.097 0
   9186139.478 7  39930957.299 6  22727369.992 0  22727372.348 0
 88  2 25 10 48 59.0800000  0  3  3 13 12
 -14539849.452 7  73324334.101 6  21293802.253 0  21293802.738 0
   3847044.065 7  58687999.029 7  22138044.856 0  22138047.049 0
   9284753.586 7  40007799.452 6  22746135.408 0  22746137.096 0
 88  2 25 10 49 29.0800000  0  3  3 13 12
 -14562946.210 8  73306336.629 6  21289407.165 0  21289407.397 0
   3887439.763 7  58719476.195 6  22145732.599 0  22145734.519 0
   9383596.722 7  40084820.072 6  22764944.458 0  22764946.262 0
 88  2 25 10 49 59.0800000  0  3  3 13 12
 -14585946.464 8  73288414.362 6  21285031.022 0  21285031.088 0
   3927885.457 7  58750992.335 7  22153430.046 0  22153429.488 0
   9482665.572 7  40162016.530 6  22783795.079 0  22783800.222 0
 88  2 25 10 50 29.0800000  0  3  3 13 12
 -14608850.168 7  73270567.325 6  21280671.583 0  21280672.236 0
   3968380.735 7  58782547.080 7  22161135.777 0  22161136.716 0
   9581956.523 7  40239386.118 6  22802688.948 0  22802692.128 0
 88  2 25 10 50 59.0800000  0  3  3 13 12
 -14631657.830 7  73252795.147 7  21276331.044 0  21276332.020 0
   4008924.957 7  58814139.990 6  22168851.569 0  22168852.141 0
   9681465.795 7  40316925.812 6  22821627.570 0  22821629.896 0
 88  2 25 10 51 29.0800000  0  3  3 13 12
 -14654369.394 7  73235097.822 6  21272009.257 0  21272010.489 0
   4049519.696 7  58845772.251 7  22176575.696 0  22176576.758 0
   9781190.544 7  40394633.418 6  22840602.675 0  22840606.098 0
 88  2 25 10 51 59.0800000  0  3  3 13 12
 -14676984.865 7  73217475.370 6  21267706.034 0  21267706.385 0
   4090164.635 7  58877443.624 7  22184311.080 0  22184310.877 0
   9881127.527 7  40472506.396 6  22859621.527 0  22859623.306 0
 88  2 25 10 52 29.0800000  0  3  3 13 12
 -14699503.988 7  73199928.004 6  21263420.506 0  21263421.441 0
   4130860.118 7  58909154.386 7  22192054.905 0  22192056.751 0
   9981272.722 8  40550541.621 6  22878678.459 0  22878681.074 0
 88  2 25 10 52 59.0800000  0  3  3 13 12
 -14721927.291 7  73182455.318 7  21259153.592 0  21259152.817 0
   4171605.973 7  58940904.398 7  22199807.442 0  22199809.803 0
  10081622.181 7  40628736.006 6  22897774.530 0  22897776.300 0
 88  2 25 10 53 29.0800000  0  3  3 13 12
 -14744254.982 7  73165057.117 6  21254904.953 0  21254905.735 0
   4212402.549 7  58972693.945 7  22207571.361 0  22207572.512 0
  10182172.876 8  40707087.208 6  22916908.467 0  22916910.994 0
 88  2 25 10 53 59.0800000  0  3  3 13 12
 -14766486.806 7  73147733.624 6  21250674.212 0  21250674.678 0
   4253249.506 8  59004522.743 6  22215344.684 0  22215345.139 0
  10282921.572 7  40785592.674 6  22936080.488 0  22936083.192 0
 88  2 25 10 54 29.0800000  0  3  3 13 12
 -14788622.551 7  73130484.996 7  21246462.310 0  21246462.532 0
   4294147.808 8  59036391.544 6  22223127.073 0  22223128.389 0
  10383864.264 7  40864249.282 7  22955289.087 0  22955291.350 0
 88  2 25 10 54 59.0800000  0  3  3 13 12
 -14810662.408 8  73113311.073 7  21242268.848 0  21242269.038 0
   4335097.898 7  59068300.693 7  22230919.447 0  22230919.790 0
  10484997.416 7  40943054.325 7  22974533.999 0  22974535.709 0
 88  2 25 10 55 29.0800000  0  3  3 13 12
 -14832606.248 7  73096211.970 6  21238092.368 0  21238092.810 0
   4376099.736 7  59100250.180 7  22238721.797 0  22238722.215 0
  10586317.622 7  41022005.112 7  22993812.603 0  22993817.292 0
 88  2 25 10 55 59.0800000  0  3  3 13 12
 -14854454.196 7  73079187.600 6  21233934.716 0  21233936.541 0
   4417153.697 7  59132240.280 6  22246535.103 0  22246534.513 0
  10687821.338 7  41101098.911 6  23013130.302 0  23013133.427 0
 88  2 25 10 56 29.0800000  0  3  3 13 12
 -14876206.652 7  73062237.637 6  21229795.487 0  21229795.968 0
   4458259.319 7  59164270.626 6  22254355.992 0  22254356.793 0
  10789504.909 7  41180332.857 6  23032479.987 0  23032481.924 0
 88  2 25 10 56 59.0800000  0  3  3 13 12
 -14897863.545 7  73045362.153 6  21225674.039 0  21225674.872 0
   4499417.377 7  59196341.829 7  22262189.010 0  22262189.685 0
  10891364.990 7  41259704.336 6  23051863.189 0  23051864.486 0
 88  2 25 10 57 29.0800000  0  3  3 13 12
 -14919424.159 7  73028561.679 6  21221572.040 0  21221571.905 0
   4540628.393 7  59228454.304 7  22270029.480 0  22270031.523 0
  10993398.371 7  41339210.858 7  23071279.099 0  23071282.044 0
 88  2 25 10 57 59.0800000  0  3  3 13 12
 -14940888.511 7  73011836.209 6  21217486.405 0  21217487.738 0
   4581892.280 7  59260607.985 7  22277883.011 0  22277883.514 0
  11095601.012 7  41418849.268 7  23090727.764 0  23090730.479 0
 88  2 25 10 58 29.0800000  0  3  3 13 12
 -14962256.943 7  72995185.487 7  21213420.884 0  21213421.195 0
   4623209.464 7  59292803.183 6  22285744.961 0  22285746.150 0
  11197969.579 7  41498616.964 7  23110207.806 0  23110209.914 0
 88  2 25 10 58 59.0800000  0  3  3 13 12
 -14983528.958 7  72978609.895 6  21209373.111 0  21209374.660 0
   4664580.297 7  59325040.185 6  22293618.353 0  22293618.298 0
  11300500.447 7  41578511.145 7  23129719.339 0  23129720.549 0
 88  2 25 10 59 29.0800000  0  3  3 13 12
 -15004704.726 7  72962109.300 6  21205343.557 0  21205342.478 0
   4706005.080 7  59357319.241 6  22301501.694 0  22301503.776 0
  11403190.406 7  41658529.291 7  23149260.550 0  23149262.676 0
 88  2 25 10 59 59.0800000  0  3  3 13 12
 -15025784.077 7  72945683.829 6  21201332.041 0  21201333.189 0
   4747483.838 7  59389640.351 6  22309393.305 0  22309396.272 0
  11506036.152 7  41738668.794 6  23168830.980 0  23168834.051 0
 88  2 25 11  0 29.0800000  0  3  3 13 12
 -15046767.400 7  72929333.207 7  21197338.726 0  21197339.803 0
   4789016.933 7  59422003.795 7  22317297.951 0  22317298.011 0
  11609033.643 7  41818926.593 6  23188430.310 0  23188432.790 0
 88  2 25 11  0 59.0800000  0  3  3 13 12
 -15067654.206 7  72913057.784 7  21193364.634 0  21193365.158 0
   4830604.253 7  59454409.498 6  22325212.407 0  22325212.221 0
  11712179.423 7  41899299.959 6  23208058.984 0  23208060.268 0
 88  2 25 11  1 29.0800000  0  3  3 13 12
 -15088444.423 7  72896857.602 7  21189407.400 0  21189407.346 0
   4872246.908 7  59486858.311 6  22333136.151 0  22333137.682 0
  11815470.353 8  41979786.388 6  23227714.331 0  23227716.789 0
 88  2 25 11  1 59.0800000  0  3  3 13 12
 -15109138.273 7  72880732.522 6  21185470.224 0  21185470.849 0
   4913945.453 7  59519350.689 7  22341070.897 0  22341070.845 0
  11918902.742 7  42060383.091 7  23247397.128 0  23247397.617 0
 88  2 25 11  2 29.0800000  0  3  3 13 12
 -15129735.399 7  72864682.825 7  21181550.832 0  21181551.637 0
   4955699.657 7  59551886.421 7  22349016.451 0  22349017.534 0
  12022473.218 7  42141087.346 6  23267105.723 0  23267106.895 0
 88  2 25 11  2 59.0800000  0  3  3 13 12
 -15150235.012 7  72848709.101 7  21177649.516 0  21177649.976 0
   4997509.805 7  59584465.752 6  22356972.458 0  22356973.498 0
  12126178.461 7  42221896.618 6  23286840.004 0  23286842.797 0
 88  2 25 11  3 29.0800000  0  3  3 13 12
 -15170637.305 7  72832811.216 7  21173766.984 0  21173766.935 0
   5039376.761 7  59617089.347 6  22364941.151 0  22364940.517 0
  12230014.767 7  42302808.048 6  23306600.118 0  23306602.086 0
 88  2 25 11  3 59.0800000  0  3  3 13 12
 -15190942.215 7  72816989.203 7  21169903.158 0  21169903.161 0
   5081300.598 6  59649757.276 6  22372918.091 0  22372918.978 0
  12333978.534 8  42383818.785 7  23326383.114 0  23326385.185 0
 88  2 25 11  4 29.0800000  0  3  3 13 12
 -15211149.690 7  72801243.116 6  21166057.820 0  21166058.221 0
   5123281.780 7  59682469.881 7  22380906.637 0  22380908.284 0
  12438066.185 7  42464926.013 7  23346190.756 0  23346193.008 0
 88  2 25 11  4 59.0800000  0  3  3 13 12
 -15231259.310 7  72785573.286 6  21162229.967 0  21162232.232 0
   5165320.874 7  59715227.603 7  22388904.994 0  22388907.502 0
  12542274.600 7  42546127.364 7  23366020.990 0  23366022.383 0
 88  2 25 11  5 29.0800000  0  3  3 13 12
 -15251271.161 7  72769979.654 6  21158422.749 0  21158423.802 0
   5207418.401 7  59748030.870 7  22396916.203 0  22396919.208 0
  12646599.951 7  42627419.839 7  23385873.563 0  23385874.911 0
 88  2 25 11  5 59.0800000  0  3  3 13 12
 -15271184.796 7  72754462.530 7  21154633.731 0  21154634.074 0
   5249573.880 7  59780879.299 7  22404938.018 0  22404939.340 0
  12751038.980 6  42708800.867 7  23405748.150 0  23405749.520 0
 88  2 25 11  6 29.0800000  0  3  3 13 12
 -15291000.437 7  72739021.770 7  21150861.771 0  21150863.897 0
   5291788.484 7  59813773.794 7  22412972.095 0  22412973.780 0
  12855588.157 7  42790267.721 7  23425641.601 0  23425644.992 0
 88  2 25 11  6 59.0800000  0  3  3 13 12
 -15310717.202 7  72723658.069 6  21147110.274 0  21147111.231 0
   5334062.310 7  59846714.444 7  22421016.211 0  22421016.028 0
  12960243.746 7  42871817.520 7  23445557.822 0  23445560.125 0
 88  2 25 11  7 29.0800000  0  3  3 13 12
 -15330335.414 7  72708371.156 7  21143377.262 0  21143378.234 0
   5376396.138 7  59879701.839 7  22429073.196 0  22429072.595 0
  13065002.499 8  42953447.712 7  23465492.536 0  23465495.139 0
 88  2 25 11  7 59.0800000  0  3  3 13 12
 -15349854.728 7  72693161.300 6  21139663.255 0  21139663.130 0
   5418789.778 7  59912735.834 6  22437139.199 0  22437140.287 0
  13169861.057 7  43035155.683 6  23485447.677 0  23485448.898 0
 88  2 25 11  8 29.0800000  0  3  3 13 12
 -15369274.714 7  72678028.843 6  21135967.562 0  21135967.584 0
   5461244.123 7  59945817.136 6  22445219.282 0  22445218.793 0
  13274815.963 7  43116938.702 6  23505418.696 0  23505421.357 0
 88  2 25 11  8 59.0800000  0  3  3 13 12
 -15388595.205 7  72662973.918 7  21132291.330 0  21132291.247 0
   5503759.682 7  59978946.140 7  22453308.277 0  22453309.598 0
  13379863.592 8  43198793.998 6  23525409.090 0  23525411.545 0
 88  2 25 11  9 29.0800000  0  3  3 13 12
 -15407816.199 7  72647996.527 7  21128633.900 0  21128635.238 0
   5546336.523 7  60012122.885 7  22461409.449 0  22461411.219 0
  13485000.735 8  43280719.064 6  23545415.539 0  23545417.879 0
 88  2 25 11  9 59.0800000  0  3  3 13 12
 -15426936.915 7  72633097.264 7  21124994.596 0  21124995.614 0
   5588974.855 7  60045347.553 7  22469524.933 0  22469526.019 0
  13590224.029 8  43362711.263 7  23565439.347 0  23565441.017 0
 88  2 25 11 10 29.0800000  0  3  3 13 12
 -15445957.043 7  72618276.391 6  21121375.371 0  21121376.256 0
   5631675.921 7  60078621.115 6  22477650.895 0  22477651.927 0
  13695529.951 8  43444767.824 7  23585478.970 0  23585480.323 0
 88  2 25 11 10 59.0800000  0  3  3 13 12
 -15464876.707 7  72603533.782 6  21117775.350 0  21117776.049 0
   5674439.761 7  60111943.567 6  22485787.681 0  22485788.959 0
  13800914.801 7  43526885.905 6  23605533.452 0  23605534.756 0
 88  2 25 11 11 29.0800000  0  3  3 13 12
 -15483695.305 7  72588869.960 6  21114192.805 0  21114194.921 0
   5717267.208 7  60145315.614 6  22493938.351 0  22493939.216 0
  13906374.991 7  43609062.671 6  23625601.241 0  23625603.378 0
 88  2 25 11 11 59.0800000  0  3  3 13 12
 -15502412.993 7  72574284.750 7  21110632.335 0  21110633.515 0
   5760158.090 7  60178737.075 7  22502099.943 0  22502100.259 0
  14011907.223 7  43691295.599 5  23645683.403 0  23645686.241 0
 88  2 25 11 12 29.0800000  0  3  3 13 12
 -15521029.006 7  72559778.779 7  21107089.559 0  21107089.345 0
   5803113.037 7  60212208.468 7  22510274.117 0  22510274.478 0
  14117508.326 6  43773582.204 6  23665778.024 0  23665779.801 0
 88  2 25 11 12 59.0800000  0  3  3 13 12
 -15539542.763 7  72545352.456 7  21103566.511 0  21103567.556 0
   5846132.360 7  60245729.991 6  22518459.532 0  22518461.418 0
  14223174.478 6  43855919.403 6  23685884.878 0  23685887.344 0
 88  2 25 11 13 29.0800000  0  3  3 13 12
 -15557954.532 7  72531005.641 7  21100064.175 0  21100063.153 0
   5889216.636 7  60279302.151 6  22526657.999 0  22526661.240 0
  14328902.445 7  43938304.799 6  23706003.253 0  23706007.731 0
 88  2 25 11 13 59.0800000  0  3  3 13 12
 -15576263.915 7  72516738.594 6  21096579.276 0  21096578.392 0
   5932366.453 7  60312925.393 7  22534870.239 0  22534869.996 0
  14434688.578 7  44020735.551 6  23726135.456 0  23726138.143 0
 88  2 25 11 14 29.0800000  0  3  3 13 12
 -15594470.347 7  72502551.763 6  21093113.561 0  21093114.599 0
   5975582.198 7  60346599.999 7  22543093.763 0  22543095.037 0
  14540529.970 7  44103209.360 7  23746275.798 0  23746277.855 0
 88  2 25 11 14 59.0800000  0  3  3 13 12
 -15612573.228 7  72488445.617 6  21089668.451 0  21089670.639 0
   6018864.599 7  60380326.541 6  22551330.017 0  22551330.805 0
  14646422.865 7  44185723.269 7  23766426.129 0  23766429.262 0
 88  2 25 11 15 29.0800000  0  3  3 13 12
 -15630572.580 7  72474420.161 7  21086243.831 0  21086245.033 0
   6062214.310 7  60414105.524 6  22559578.809 0  22559581.806 0
  14752363.652 7  44268274.521 7  23786587.666 0  23786589.803 0
 88  2 25 11 15 59.0800000  0  3  3 13 12
 -15648467.838 7  72460475.806 6  21082838.177 0  21082839.859 0
   6105631.440 7  60447937.061 6  22567840.814 0  22567842.762 0
  14858349.422 8  44350860.835 7  23806755.683 0  23806757.714 0
 88  2 25 11 16 29.0800000  0  3  3 13 12
 -15666258.601 7  72446612.873 7  21079452.764 0  21079453.741 0
   6149116.696 7  60481821.669 7  22576115.599 0  22576117.361 0
  14964376.495 7  44433479.345 7  23826932.365 0  23826933.747 0
 88  2 25 11 16 59.0800000  0  3  3 13 12
 -15683944.794 7  72432831.426 6  21076087.060 0  21076088.506 0
   6192670.986 7  60515760.062 7  22584403.937 0  22584405.552 0
  15070441.547 8  44516127.448 7  23847115.813 0  23847117.735 0
 88  2 25 11 17 29.0800000  0  3  3 13 12
 -15701525.592 7  72419132.102 7  21072742.364 0  21072742.682 0
   6236294.058 6  60549752.075 6  22592704.070 0  22592705.881 0
  15176541.242 8  44598802.523 7  23867304.841 0  23867307.307 0
 88  2 25 11 17 59.0800000  0  3  3 13 12
 -15719000.270 7  72405515.477 7  21069416.696 0  21069416.768 0
   6279986.869 7  60583798.410 7  22601019.975 0  22601020.868 0
  15282672.149 7  44681501.928 6  23887501.006 0  23887503.215 0
 88  2 25 11 18 29.0800000  0  3  3 13 12
 -15736368.777 8  72391981.581 6  21066111.951 0  21066111.730 0
   6323749.706 7  60617899.328 7  22609348.011 0  22609349.022 0
  15388830.816 7  44764222.954 7  23907703.170 0  23907704.889 0
 88  2 25 11 18 59.0800000  0  3  3 13 12
 -15753631.017 7  72378530.472 7  21062826.713 0  21062828.124 0
   6367583.345 7  60652055.401 6  22617688.886 0  22617690.709 0
  15495014.141 7  44846963.202 7  23927908.179 0  23927910.468 0
 88  2 25 11 19 29.0800000  0  3  3 13 12
 -15770785.941 7  72365163.007 7  21059562.709 0  21059562.657 0
   6411488.203 7  60686266.976 7  22626043.216 0  22626044.615 0
  15601218.692 7  44929720.007 6  23948117.955 0  23948121.212 0
 88  2 25 11 19 59.0800000  0  3  3 13 12
 -15787833.073 7  72351879.532 6  21056318.376 0  21056318.714 0
   6455465.354 6  60720534.875 7  22634412.498 0  22634413.036 0
  15707440.969 7  45012490.599 6  23968331.750 0  23968334.359 0
 88  2 25 11 20 29.0800000  0  3  3 13 12
 -15804772.258 7  72338680.173 7  21053094.438 0  21053095.712 0
   6499514.983 7  60754859.266 7  22642793.601 0  22642796.174 0
  15813677.864 7  45095272.597 7  23988547.977 0  23988550.480 0
 88  2 25 11 20 59.0800000  0  3  3 13 12
 -15821603.033 7  72325565.278 7  21049891.966 0  21049892.542 0
   6543637.740 7  60789240.612 7  22651189.899 0  22651191.962 0
  15919925.832 7  45178063.193 7  24008767.398 0  24008769.171 0
 88  2 25 11 21 29.0800000  0  3  3 13 12
 -15838324.762 7  72312535.350 7  21046709.963 0  21046711.908 0
   6587834.294 7  60823679.469 6  22659600.441 0  22659602.839 0
  16026181.542 7  45260859.826 6  24028985.439 0  24028989.047 0
 88  2 25 11 21 59.0800000  0  3  3 13 12
 -15854936.915 7  72299590.824 7  21043548.938 0  21043549.661 0
   6632104.908 7  60858176.044 6  22668024.994 0  22668026.053 0
  16132441.680 6  45343659.957 7  24049206.589 0  24049209.954 0
 88  2 25 11 22 29.0800000  0  3  3 13 12
 -15871438.925 7  72286732.133 7  21040408.987 0  21040409.396 0
   6676450.322 7  60892730.900 7  22676464.159 0  22676465.508 0
  16238703.010 7  45426461.003 6  24069427.750 0  24069430.216 0
 88  2 25 11 22 59.0800000  0  3  3 13 12
 -15887830.558 7  72273959.434 6  21037289.611 0  21037289.485 0
   6720871.156 7  60927344.547 7  22684916.134 0  22684918.034 0
  16344962.185 7  45509260.371 6  24089648.086 0  24089651.371 0
 88  2 25 11 23 29.0800000  0  3  3 13 12
 -15904110.889 7  72261273.446 6  21034191.155 0  21034191.407 0
   6765367.756 7  60962017.208 6  22693385.255 0  22693386.099 0
  16451215.664 7  45592055.281 6  24109867.335 0  24109869.659 0
 88  2 25 11 23 59.0800000  0  3  3 13 12
 -15920279.384 8  72248674.615 7  21031114.812 0  21031115.798 0
   6809941.455 7  60996749.953 6  22701866.456 0  22701867.777 0
  16557460.463 7  45674843.418 7  24130085.812 0  24130088.965 0
 88  2 25 11 24 29.0800000  0  3  3 13 12
 -15936335.822 7  72236163.128 7  21028059.752 0  21028060.786 0
   6854592.102 7  61031542.654 7  22710363.523 0  22710365.067 0
  16663692.962 7  45757622.002 6  24150300.110 0  24150302.733 0
 88  2 25 11 24 59.0800000  0  3  3 13 12
 -15952279.331 7  72223739.594 7  21025025.487 0  21025026.001 0
   6899320.364 7  61066395.849 7  22718874.817 0  22718875.942 0
  16769910.376 7  45840388.834 6  24170514.585 0  24170515.787 0
 88  2 25 11 25 29.0800000  0  3  3 13 12
 -15968109.605 7  72211404.321 7  21022013.459 0  21022014.579 0
   6944127.108 7  61101310.186 7  22727401.535 0  22727402.868 0
  16876109.560 7  45923141.452 6  24190723.011 0  24190725.040 0
 88  2 25 11 25 59.0800000  0  3  3 13 12
 -15983825.975 7  72199157.804 7  21019022.332 0  21019023.419 0
   6989012.700 7  61136285.966 7  22735942.530 0  22735943.635 0
  16982287.084 7  46005877.207 7  24210927.694 0  24210929.359 0
 88  2 25 11 26 29.0800000  0  3  3 13 12
 -15999427.917 7  72187000.455 6  21016052.679 0  21016055.082 0
   7033978.150 7  61171323.974 7  22744499.198 0  22744500.593 0
  17088439.470 7  46088593.357 6  24231127.906 0  24231129.505 0
 88  2 25 11 26 59.0800000  0  3  3 13 12
 -16014914.415 7  72174933.072 7  21013105.405 0  21013106.682 0
   7079023.581 7  61206424.295 7  22753071.765 0  22753073.362 0
  17194563.526 7  46171287.390 6  24251321.742 0  24251325.067 0
 88  2 25 11 27 29.0800000  0  3  3 13 12
 -16030285.025 7  72162955.978 6  21010181.216 0  21010181.941 0
   7124149.961 7  61241587.709 7  22761658.464 0  22761660.337 0
  17300656.123 7  46253956.934 6  24271511.085 0  24271513.167 0
 88  2 25 11 27 59.0800000  0  3  3 13 12
 -16045539.227 7  72151069.579 6  21007278.739 0  21007279.888 0
   7169357.972 7  61276814.728 7  22770262.066 0  22770262.050 0
  17406713.724 7  46336599.201 7  24291693.136 0  24291695.742 0
 88  2 25 11 28 29.0800000  0  3  3 13 12
 -16060676.311 7  72139274.466 7  21004398.996 0  21004398.587 0
   7214647.781 7  61312105.471 7  22778879.394 0  22778881.438 0
  17512733.203 7  46419211.765 6  24311867.408 0  24311870.035 0
 88  2 25 11 28 59.0800000  0  3  3 13 12
 -16075695.705 7  72127571.033 6  21001540.122 0  21001541.124 0
   7260020.253 7  61347460.648 7  22787513.371 0  22787515.099 0
  17618711.102 7  46501791.936 6  24332035.528 0  24332037.173 0
 88  2 25 11 29 29.0800000  0  3  3 13 12
 -16090596.800 7  72115959.797 7  20998703.860 0  20998705.179 0
   7305476.242 7  61382880.900 7  22796163.564 0  22796166.719 0
  17724644.849 7  46584337.722 6  24352193.276 0  24352195.179 0
 88  2 25 11 29 59.0800000  0  3  3 13 12
 -16105378.816 7  72104441.343 7  20995891.636 0  20995892.503 0
   7351016.079 7  61418366.480 7  22804829.236 0  22804832.164 0
  17830530.509 6  46666846.021 6  24372343.000 0  24372344.476 0
 88  2 25 11 30 29.0800000  0  3  3 13 12
 -16120041.189 7  72093016.130 7  20993102.325 0  20993102.419 0
   7396640.748 7  61453918.172 7  22813511.838 0  22813514.239 0
  17936364.922 7  46749314.378 6  24392482.564 0  24392483.954 0
 88  2 25 11 30 59.0800000  0  3  3 13 12
 -16134583.428 7  72081684.507 7  20990333.497 0  20990334.020 0
   7442350.777 7  61489536.361 7  22822211.332 0  22822212.684 0
  18042145.481 7  46831740.768 6  24412610.194 0  24412613.885 0
 88  2 25 11 31 29.0800000  0  3  3 13 12
 -16149004.000 7  72070447.715 7  20987590.434 0  20987590.643 0
   7488146.913 6  61525221.660 7  22830925.381 0  22830926.890 0
  18147869.318 7  46914122.968 7  24432729.050 0  24432732.744 0
 88  2 25 11 31 59.0800000  0  3  3 13 12
 -16163303.110 8  72059305.542 6  20984868.482 0  20984869.754 0
   7534029.502 7  61560974.318 7  22839656.815 0  22839657.588 0
  18253532.595 7  46996457.996 6  24452837.163 0  24452840.018 0
 88  2 25 11 32 29.0800000  0  3  3 13 12
 -16177479.983 7  72048258.626 7  20982170.112 0  20982172.133 0
   7579999.236 7  61596794.886 7  22848404.514 0  22848405.513 0
  18359132.281 7  47078743.475 6  24472932.666 0  24472935.596 0
 88  2 25 11 32 59.0800000  0  2  3 13
 -16191533.725 1  72037307.636 1  20979500.786 0  20979495.538 0
   7626057.100 8  61632684.120 6  22857168.793 0  22857170.145 0
 88  2 25 11 33 29.0800000  0  2  3 13
 -16371533.725 1  72026426.360 4          .000 0  20976846.795 0
   7672203.776 7  61668642.556 6  22865950.500 0  22865951.751 0
 88  2 25 11 33 59.0800000  0  2  3 13
 -16378698.193 6  72015654.385 7  20974219.412 0  20974219.512 0
   7718439.583 6  61704670.453 7  22874748.942 0  22874751.440 0
 88  2 25 11 34 29.0800000  0  2  3 13
 -16392377.830 7  72004994.948 6  20971616.005 0  20971617.071 0
   7764765.028 6  61740768.195 7  22883562.441 0  22883564.815 0
 88  2 25 11 34 59.0800000  0  2  3 13
 -16405930.765 7  71994434.214 7  20969036.320 0  20969037.214 0
   7811181.939 7  61776937.222 7  22892396.530 0  22892397.881 0
 88  2 25 11 35 29.0800000  0  2  3 13
 -16419356.672 7  71983972.478 7  20966483.229 0  20966483.170 0
   7857689.769 6  61813177.065 7  22901245.382 0  22901248.175 0
 88  2 25 11 35 59.0800000  0  2  3 13
 -16432655.253 7  71973609.958 7  20963951.435 0  20963952.103 0
   7904289.374 7  61849488.448 7  22910114.325 0  22910115.777 0
 88  2 25 11 36 29.0800000  0  2  3 13
 -16445825.234 7  71963347.624 7  20961445.040 0  20961446.154 0
   7950981.790 7  61885872.139 7  22918999.930 0  22919000.727 0
 88  2 25 11 36 59.0800000  0  2  3 13
 -16458865.562 7  71953186.351 6  20958963.511 0  20958963.148 0
   7997767.903 7  61922328.850 6  22927902.374 0  22927904.015 0
 88  2 25 11 37 29.0800000  0  2  3 13
 -16471776.049 7  71943126.215 6  20956506.489 0  20956507.864 0
   8044647.923 8  61958858.741 7  22936823.978 0  22936825.424 0
 88  2 25 11 37 59.0800000  0  2  3 13
 -16484555.922 8  71933167.873 7  20954075.550 0  20954075.394 0
   8091622.637 7  61995462.405 6  22945761.442 0  22945763.916 0
 88  2 25 11 38 29.0800000  0  2  3 13
 -16497203.834 7  71923312.350 6  20951668.433 0  20951667.767 0
   8138692.653 7  62032140.338 7  22954720.367 0  22954721.304 0
 88  2 25 11 38 59.0800000  0  2  3 13
 -16509718.888 7  71913560.364 6  20949285.989 0  20949289.110 0
   8185859.183 7  62068893.475 7  22963695.636 0  22963696.802 0
 88  2 25 11 39 29.0800000  0  2  3 13
 -16522100.559 7  71903912.320 6  20946929.858 0  20946930.834 0
   8233122.561 7  62105722.063 7  22972689.702 0  22972691.097 0
 88  2 25 11 39 59.0800000  0  2  3 13
 -16534348.125 7  71894368.765 7  20944599.532 0  20944600.126 0
   8280483.256 7  62142626.493 7  22981701.173 0  22981702.510 0
 88  2 25 11 40 29.0800000  0  2  3 13
 -16546460.209 7  71884930.785 7  20942294.469 0  20942296.336 0
   8327942.071 8  62179607.384 6  22990733.554 0  22990734.297 0
 88  2 25 11 40 59.0800000  0  2  3 13
 -16558436.239 7  71875598.808 6  20940016.748 0  20940018.030 0
   8375499.938 7  62216665.446 7  22999782.583 0  22999784.501 0
 88  2 25 11 41 29.0800000  0  2  3 13
 -16570275.767 7  71866373.219 6  20937762.707 0  20937762.648 0
   8423157.248 7  62253801.017 7  23008850.958 0  23008852.998 0
 88  2 25 11 41 59.0800000  0  2  3 13
 -16581977.670 7  71857254.835 7  20935537.166 0  20935537.011 0
   8470915.058 7  62291014.895 7  23017939.581 0  23017941.642 0
 88  2 25 11 42 29.0800000  0  2  3 13
 -16593540.689 7  71848244.696 6  20933336.739 0  20933337.092 0
   8518774.373 7  62328307.858 6  23027046.378 0  23027048.502 0
 88  2 25 11 42 59.0800000  0  2  3 13
 -16604964.232 7  71839343.233 7  20931162.368 0  20931161.380 0
   8566735.341 7  62365680.032 7  23036172.948 0  23036174.820 0
 88  2 25 11 43 29.0800000  0  2  3 13
 -16616247.887 7  71830550.772 7  20929015.490 0  20929016.509 0
   8614798.539 7  62403131.865 7  23045320.570 0  23045320.794 0
 88  2 25 11 43 59.0800000  0  2  3 13
 -16627390.113 6  71821868.522 7  20926895.142 0  20926896.142 0
   8662964.879 7  62440664.064 6  23054485.513 0  23054487.150 0
 88  2 25 11 44 29.0800000  0  2  3 13
 -16638389.675 7  71813297.437 7  20924801.474 0  20924801.855 0
   8711235.400 8  62478277.468 6  23063670.625 0  23063672.942 0
 88  2 25 11 44 59.0800000  0  2  3 13
 -16649245.997 7  71804837.969 7  20922735.812 0  20922736.224 0
   8759610.462 7  62515972.313 7  23072876.415 0  23072877.573 0
 88  2 25 11 45 29.0800000  0  2  3 13
 -16659958.337 7  71796490.687 6  20920697.459 0  20920697.551 0
   8808090.636 7  62553749.066 7  23082101.539 0  23082104.146 0
 88  2 25 11 45 59.0800000  0  2  3 13
 -16670525.295 7  71788256.685 7  20918686.638 0  20918688.206 0
   8856676.862 7  62591608.452 7  23091348.076 0  23091349.053 0
 88  2 25 11 46 29.0800000  0  2  3 13
 -16680946.114 7  71780136.588 6  20916702.959 0  20916703.101 0
   8905369.708 7  62629550.931 7  23100613.092 0  23100614.696 0
 88  2 25 11 46 59.0800000  0  2  3 13
 -16691220.087 7  71772130.882 7  20914747.648 0  20914748.806 0
   8954169.817 7  62667576.980 6  23109900.246 0  23109900.703 0
 88  2 25 11 47 29.0800000  0  2  3 13
 -16701346.377 7  71764240.261 6  20912821.165 0  20912821.853 0
   9003077.354 6  62705686.745 7  23119206.496 0  23119206.870 0
 88  2 25 11 47 59.0800000  0  2  3 13
 -16711323.553 7  71756465.837 7  20910923.129 0  20910923.818 0
   9052094.418 7  62743881.853 7  23128534.346 0  23128535.472 0
 88  2 25 11 48 29.0800000  0  2  3 13
 -16721150.482 7  71748808.499 6  20909052.631 0  20909053.738 0
   9101221.770 7  62782162.897 6  23137881.995 0  23137884.773 0
 88  2 25 11 48 59.0800000  0  2  3 13
 -16730826.787 7  71741268.512 7  20907211.067 0  20907211.762 0
   9150459.191 7  62820529.698 7  23147252.850 0  23147254.449 0
 88  2 25 11 49 29.0800000  0  2  3 13
 -16740351.056 7  71733847.011 7  20905399.115 0  20905399.826 0
   9199807.651 7  62858983.042 6  23156642.951 0  23156644.833 0
 88  2 25 11 49 59.0800000  0  2  3 13
 -16749722.200 7  71726544.824 7  20903615.629 0  20903615.844 0
   9249267.781 7  62897523.389 7  23166055.821 0  23166057.305 0
 88  2 25 11 50 29.0800000  0  2  3 13
 -16758939.488 8  71719362.516 7  20901861.976 0  20901862.216 0
   9298840.833 7  62936151.738 7  23175488.930 0  23175490.669 0
 88  2 25 11 50 59.0800000  0  2  3 13
 -16768002.174 7  71712300.689 7  20900137.780 0  20900137.485 0
   9348526.688 7  62974867.993 7  23184944.316 0  23184944.947 0
 88  2 25 11 51 29.0800000  0  2  3 13
 -16776908.557 7  71705360.644 7  20898441.720 0  20898442.669 0
   9398326.657 7  63013673.144 7  23194420.066 0  23194422.663 0
 88  2 25 11 51 59.0800000  0  2  3 13
 -16785657.671 7  71698543.151 7  20896777.255 0  20896777.719 0
   9448241.175 7  63052567.568 7  23203918.402 0  23203919.308 0
 88  2 25 11 52 29.0800000  0  2  3 13
 -16794248.717 7  71691848.832 7  20895143.313 0  20895143.072 0
   9498271.122 7  63091551.950 7  23213440.027 0  23213440.364 0
 88  2 25 11 52 59.0800000  0  2  3 13
 -16802680.864 7  71685278.331 7  20893538.659 0  20893539.124 0
   9548417.472 7  63130627.021 7  23222981.651 0  23222982.655 0
 88  2 25 11 53 29.0800000  0  2  3 13
 -16810952.675 7  71678832.757 7  20891965.065 0  20891963.974 0
   9598680.331 7  63169792.852 7  23232547.189 0  23232548.979 0
 88  2 25 11 53 59.0800000  0  2  3 13
 -16819062.684 8  71672513.262 6  20890420.524 0  20890421.045 0
   9649061.251 7  63209050.684 7  23242134.634 0  23242136.058 0
 88  2 25 11 54 29.0800000  0  2  3 13
 -16827010.745 7  71666319.970 7  20888907.784 0  20888907.899 0
   9699560.062 6  63248400.400 7  23251741.883 0  23251745.241 0
 88  2 25 11 54 59.0800000  0  2  3 13
 -16834795.402 7  71660254.009 7  20887426.382 0  20887428.192 0
   9750177.515 7  63287842.574 8  23261375.566 0  23261376.232 0
 88  2 25 11 55 29.0800000  0  2  3 13
 -16842415.553 7  71654316.223 7  20885976.947 0  20885977.162 0
   9800914.992 6  63327378.245 7  23271030.849 0  23271031.491 0
 88  2 25 11 55 59.0800000  0  2  3 13
 -16849870.143 7  71648507.453 7  20884557.738 0  20884560.277 0
   9851773.075 6  63367007.892 7  23280708.510 0  23280710.624 0
 88  2 25 11 56 29.0800000  0  2  3 13
 -16857158.198 7  71642828.454 7  20883171.344 0  20883171.921 0
   9902752.032 7  63406731.752 7  23290409.315 0  23290411.054 0
 88  2 25 11 56 59.0800000  0  2  3 13
 -16864278.768 7  71637279.944 7  20881815.536 0  20881817.744 0
   9953852.740 7  63446550.474 7  23300132.804 0  23300134.963 0
 88  2 25 11 57 29.0800000  0  2  3 13
 -16871230.231 7  71631863.235 7  20880493.763 0  20880493.488 0
  10005076.303 6  63486464.925 6  23309880.843 0  23309882.579 0
 88  2 25 11 57 59.0800000  0  2  3 13
 -16878011.363 7  71626579.235 7  20879201.999 0  20879203.688 0
  10056423.434 7  63526475.664 7  23319651.804 0  23319654.178 0
 88  2 25 11 58 29.0800000  0  2  3 13
 -16884621.459 7  71621428.507 7  20877945.578 0  20877946.750 0
  10107894.176 7  63566582.749 7  23329445.802 0  23329447.440 0
 88  2 25 11 58 59.0800000  0  2  3 13
 -16891058.832 7  71616412.366 7  20876718.880 0  20876720.882 0
  10159489.843 7  63606787.146 7  23339264.185 0  23339266.540 0
 88  2 25 11 59 29.0800000  0  2  3 13
 -16897322.468 7  71611531.625 7  20875527.550 0  20875528.819 0
  10211210.894 6  63647089.239 6  23349107.012 0  23349109.507 0
 88  2 25 11 59 59.0800000  0  2  3 13
 -16903411.602 7  71606786.832 7  20874369.152 0  20874370.240 0
  10263057.853 7  63687489.468 6  23358973.578 0  23358974.579 0
 88  2 25 12  0 29.0800000  0  2  3 13
 -16909324.970 7  71602179.027 7  20873244.764 0  20873244.505 0
  10315031.466 7  63727988.390 7  23368864.332 0  23368865.934 0
 88  2 25 12  0 59.0800000  0  2  3 13
 -16915061.092 7  71597709.304 7  20872151.983 0  20872154.196 0
  10367132.458 8  63768586.577 7  23378778.485 0  23378780.258 0
 88  2 25 12  1 29.0800000  0  2  3 13
 -16920618.993 7  71593378.476 7  20871094.367 0  20871096.447 0
  10419362.286 7  63809285.125 6  23388717.235 0  23388719.875 0
 88  2 25 12  1 59.0800000  0  2  3 13
 -16925998.239 7  71589186.869 7  20870070.720 0  20870072.655 0
  10471721.111 7  63850084.215 7  23398680.482 0  23398682.186 0
 88  2 25 12  2 29.0800000  0  2  3 13
 -16931197.138 7  71585135.773 7  20869081.706 0  20869082.320 0
  10524209.478 8  63890984.247 6  23408669.629 0  23408670.197 0
 88  2 25 12  2 59.0800000  0  2  3 13
 -16936213.802 7  71581226.684 7  20868127.941 0  20868128.731 0
  10576828.601 7  63931986.175 6  23418682.778 0  23418682.035 0
 88  2 25 12  3 29.0800000  0  2  3 13
 -16941047.496 7  71577460.173 7  20867208.048 0  20867207.659 0
  10629578.799 8  63973090.218 7  23428720.167 0  23428721.096 0
 88  2 25 12  3 59.0800000  0  2  3 13
 -16945697.441 7  71573836.833 6  20866322.493 0  20866323.835 0
  10682460.421 7  64014296.668 7  23438783.470 0  23438783.857 0
 88  2 25 12  4 29.0800000  0  2  3 13
 -16950162.041 7  71570357.939 7  20865473.619 0  20865474.100 0
  10735474.540 7  64055606.373 7  23448871.470 0  23448873.761 0
 88  2 25 12  4 59.0800000  0  2  3 13
 -16954439.721 8  71567024.662 7  20864659.610 0  20864659.414 0
  10788622.082 7  64097020.034 7  23458984.721 0  23458987.258 0
 88  2 25 12  5 29.0800000  0  2  3 13
 -16958529.951 7  71563837.481 7  20863881.469 0  20863881.778 0
  10841903.437 7  64138537.979 7  23469124.629 0  23469125.086 0
 88  2 25 12  5 59.0800000  0  2  3 13
 -16962431.407 7  71560797.376 7  20863137.738 0  20863139.126 0
  10895319.026 6  64180160.514 7  23479287.444 0  23479290.611 0
 88  2 25 12  6 29.0800000  0  2  3 13
 -16966142.779 7  71557905.395 7  20862432.528 0  20862433.692 0
  10948870.131 7  64221888.648 6  23489477.981 0  23489481.303 0
 88  2 25 12  6 59.0800000  0  2  3 13
 -16969662.485 7  71555162.773 7  20861762.474 0  20861762.566 0
  11002557.779 6  64263723.189 7  23499695.646 0  23499697.219 0
 88  2 25 12  7 29.0800000  0  2  3 13
 -16972989.562 7  71552570.235 7  20861129.366 0  20861131.139 0
  11056381.799 7  64305663.953 7  23509938.277 0  23509939.298 0
 88  2 25 12  7 59.0800000  0  2  3 13
 -16976122.900 7  71550128.679 7  20860532.828 0  20860533.462 0
  11110342.346 7  64347711.144 7  23520205.795 0  23520207.007 0
 88  2 25 12  8 29.0800000  0  2  3 13
 -16979060.948 7  71547839.300 7  20859973.093 0  20859974.701 0
  11164441.378 7  64389866.238 6  23530500.739 0  23530503.141 0
 88  2 25 12  8 59.0800000  0  2  3 13
 -16981802.499 7  71545703.015 7  20859452.321 0  20859452.329 0
  11218679.121 6  64432129.405 7  23540822.634 0  23540824.218 0
 88  2 25 12  9 29.0800000  0  2  3 13
 -16984346.591 7  71543720.607 7  20858967.346 0  20858969.284 0
  11273056.332 7  64474501.266 7  23551170.014 0  23551171.172 0
 88  2 25 12  9 59.0800000  0  2  3 13
 -16986692.078 7  71541892.942 7  20858520.703 0  20858522.247 0
  11327573.168 7  64516981.908 7  23561543.767 0  23561545.417 0
 88  2 25 12 10 29.0800000  0  2  3 13
 -16988837.335 7  71540221.316 6  20858113.005 0  20858114.781 0
  11382230.582 7  64559572.091 8  23571944.901 0  23571946.397 0
 88  2 25 12 10 59.0800000  0  2  3 13
 -16990781.258 7  71538706.583 7  20857742.647 0  20857743.641 0
  11437029.643 7  64602272.641 7  23582372.948 0  23582374.363 0
 88  2 25 12 11 29.0800000  0  2  3 13
 -16992522.905 7  71537349.458 7  20857411.217 0  20857413.579 0
  11491970.339 7  64645083.567 7  23592827.893 0  23592829.106 0
